[[{"header":{"parameterUnit":"m.s-1","parameterCategory":1,"la1":30.6,"la2":28.766,"lo1":-90.7593,"lo2":-88.6598,"dy":0.0162,"dx":0.0183,"nx":116,"ny":114,"refTime":"2024-03-17T12:00:00:Z","depth":0,"parameterNumber":2,"parameterNumberName":"U-component_of_WINDS"},"data":[0.0,0.0,0.0,0.0,0.0,0.0,0.0,0.0,0.0,0.0,0.0,0.0,0.0,0.0,0.0,0.0,0.0,0.0,0.0,0.0,0.0,0.0,0.0,0.0,0.0,0.0,0.0,0.0,0.0,0.0,0.0,0.0,0.0,0.0,0.0,0.0,0.0,0.0,0.0,0.0,0.0,0.0,0.0,0.0,0.0,0.0,0.0,0.0,0.0,0.0,0.0,0.0,0.0,0.0,0.0,0.0,0.0,0.0,0.0,0.0,0.0,0.0,0.0,0.0,0.0,0.0,0.0,0.0,0.0,0.0,0.0,0.0,0.0,0.0,0.0,0.0,0.0,0.0,0.0,0.0,0.0,0.0,0.0,0.0,0.0,0.0,0.0,0.0,0.0,0.0,0.0,0.0,0.0,0.0,0.0,0.0,0.0,0.0,0.0,0.0,0.0,0.0,0.0,0.0,0.0,0.0,0.0,0.0,0.0,0.0,0.0,0.0,0.0,0.0,0.0,0.0,0.0,0.0,0.0,0.0,0.0,0.0,0.0,0.0,0.0,0.0,0.0,0.0,0.0,0.0,0.0,0.0,0.0,0.0,0.0,0.0,0.0,0.0,0.0,0.0,0.0,0.0,0.0,0.0,0.0,0.0,0.0,0.0,0.0,0.0,0.0,0.0,0.0,0.0,0.0,0.0,0.0,0.0,0.0,0.0,0.0,0.0,0.0,0.0,0.0,0.0,0.0,0.0,0.0,0.0,0.0,0.0,0.0,0.0,0.0,0.0,0.0,0.0,0.0,0.0,0.0,0.0,0.0,0.0,0.0,0.0,0.0,0.0,0.0,0.0,0.0,0.0,0.0,0.0,0.0,0.0,0.0,0.0,0.0,0.0,0.0,0.0,0.0,0.0,0.0,0.0,0.0,0.0,0.0,0.0,0.0,0.0,0.0,0.0,0.0,0.0,0.0,0.0,0.0,0.0,0.0,0.0,0.0,0.0,0.0,0.0,0.0,0.0,0.0,0.0,0.0,0.0,0.0,0.0,0.0,0.0,0.0,0.0,0.0,0.0,0.0,0.0,0.0,0.0,0.0,0.0,0.0,0.0,0.0,0.0,0.0,0.0,0.0,0.0,0.0,0.0,0.0,0.0,0.0,0.0,0.0,0.0,0.0,0.0,0.0,0.0,0.0,0.0,0.0,0.0,0.0,0.0,0.0,0.0,0.0,0.0,0.0,0.0,0.0,0.0,0.0,0.0,0.0,0.0,0.0,0.0,0.0,0.0,0.0,0.0,0.0,0.0,0.0,0.0,0.0,0.0,0.0,0.0,0.0,0.0,0.0,0.0,0.0,0.0,0.0,0.0,0.0,0.0,0.0,0.0,0.0,0.0,0.0,0.0,0.0,0.0,0.0,0.0,0.0,0.0,0.0,0.0,0.0,0.0,0.0,0.0,0.0,0.0,0.0,0.0,0.0,0.0,0.0,0.0,0.0,0.0,0.0,0.0,0.0,0.0,0.0,0.0,0.0,0.0,0.0,0.0,0.0,0.0,0.0,0.0,0.0,0.0,0.0,0.0,0.0,0.0,0.0,0.0,0.0,0.0,0.0,0.0,0.0,0.0,0.0,0.0,0.0,0.0,0.0,0.0,0.0,0.0,0.0,0.0,0.0,0.0,0.0,0.0,0.0,0.0,0.0,0.0,0.0,0.0,0.0,0.0,0.0,0.0,0.0,0.0,0.0,0.0,0.0,0.0,0.0,0.0,0.0,0.0,0.0,0.0,0.0,0.0,0.0,0.0,0.0,0.0,0.0,0.0,0.0,0.0,0.0,0.0,0.0,0.0,0.0,0.0,0.0,0.0,0.0,0.0,0.0,0.0,0.0,0.0,0.0,0.0,0.0,0.0,0.0,0.0,0.0,0.0,0.0,0.0,0.0,0.0,0.0,0.0,0.0,0.0,0.0,0.0,0.0,0.0,0.0,0.0,0.0,0.0,0.0,0.0,0.0,0.0,0.0,0.0,0.0,0.0,0.0,0.0,0.0,0.0,0.0,0.0,0.0,0.0,0.0,0.0,0.0,0.0,0.0,0.0,0.0,0.0,0.0,0.0,0.0,0.0,0.0,0.0,0.0,0.0,0.0,0.0,0.0,0.0,0.0,0.0,0.0,0.0,0.0,0.0,0.0,0.0,0.0,0.0,0.0,0.0,0.0,0.0,0.0,0.0,0.0,0.0,0.0,0.0,0.0,0.0,0.0,0.0,0.0,0.0,0.0,0.0,0.0,0.0,0.0,0.0,0.0,0.0,0.0,0.0,0.0,0.0,0.0,0.0,0.0,0.0,0.0,0.0,0.0,0.0,0.0,0.0,0.0,0.0,0.0,0.0,0.0,0.0,0.0,0.0,0.0,0.0,0.0,0.0,0.0,0.0,0.0,0.0,0.0,0.0,0.0,0.0,0.0,0.0,0.0,0.0,0.0,0.0,0.0,0.0,0.0,0.0,0.0,0.0,0.0,0.0,0.0,0.0,0.0,0.0,0.0,0.0,0.0,0.0,0.0,0.0,0.0,0.0,0.0,0.0,0.0,0.0,0.0,0.0,0.0,0.0,0.0,0.0,0.0,0.0,0.0,0.0,0.0,0.0,0.0,0.0,0.0,0.0,0.0,0.0,0.0,0.0,0.0,0.0,0.0,0.0,0.0,0.0,0.0,0.0,0.0,0.0,0.0,0.0,0.0,0.0,0.0,0.0,0.0,0.0,0.0,0.0,0.0,0.0,0.0,0.0,0.0,0.0,0.0,0.0,0.0,0.0,0.0,0.0,0.0,0.0,0.0,0.0,0.0,0.0,0.0,0.0,0.0,0.0,0.0,0.0,0.0,0.0,0.0,0.0,0.0,0.0,0.0,0.0,0.0,0.0,0.0,0.0,0.0,0.0,0.0,0.0,0.0,0.0,0.0,0.0,0.0,0.0,0.0,0.0,0.0,0.0,0.0,0.0,0.0,0.0,0.0,0.0,0.0,0.0,0.0,0.0,0.0,0.0,0.0,0.0,0.0,0.0,0.0,0.0,0.0,0.0,0.0,0.0,0.0,0.0,0.0,0.0,0.0,0.0,0.0,0.0,0.0,0.0,0.0,0.0,0.0,0.0,0.0,0.0,0.0,0.0,0.0,0.0,0.0,0.0,0.0,0.0,0.0,0.0,0.0,0.0,0.0,0.0,0.0,0.0,0.0,0.0,0.0,0.0,0.0,0.0,0.0,0.0,0.0,0.0,0.0,0.0,0.0,0.0,0.0,0.0,0.0,0.0,0.0,0.0,0.0,0.0,0.0,0.0,0.0,0.0,0.0,0.0,0.0,0.0,0.0,0.0,0.0,0.0,0.0,0.0,0.0,0.0,0.0,0.0,0.0,0.0,0.0,0.0,0.0,0.0,0.0,0.0,0.0,0.0,0.0,0.0,0.0,0.0,0.0,0.0,0.0,0.0,0.0,0.0,0.0,0.0,0.0,0.0,0.0,0.0,0.0,0.0,0.0,0.0,0.0,0.0,0.0,0.0,0.0,0.0,0.0,0.0,0.0,0.0,0.0,0.0,0.0,0.0,0.0,0.0,0.0,0.0,0.0,0.0,0.0,0.0,0.0,0.0,0.0,0.0,0.0,0.0,0.0,0.0,0.0,0.0,0.0,0.0,0.0,0.0,0.0,0.0,0.0,0.0,0.0,0.0,0.0,0.0,0.0,0.0,0.0,0.0,0.0,0.0,0.0,0.0,0.0,0.0,0.0,0.0,0.0,0.0,0.0,0.0,0.0,0.0,0.0,0.0,0.0,0.0,0.0,0.0,0.0,0.0,0.0,0.0,0.0,0.0,0.0,0.0,0.0,0.0,0.0,0.0,0.0,0.0,0.0,0.0,0.0,0.0,0.0,0.0,0.0,0.0,0.0,0.0,0.0,0.0,0.0,0.0,0.0,0.0,0.0,0.0,0.0,0.0,0.0,0.0,0.0,0.0,0.0,0.0,0.0,0.0,0.0,0.0,0.0,0.0,0.0,0.0,0.0,0.0,0.0,0.0,0.0,0.0,0.0,0.0,0.0,0.0,0.0,0.0,0.0,0.0,0.0,0.0,0.0,0.0,0.0,0.0,0.0,0.0,0.0,0.0,0.0,0.0,0.0,0.0,0.0,0.0,0.0,0.0,0.0,0.0,0.0,0.0,0.0,0.0,0.0,0.0,0.0,0.0,0.0,0.0,0.0,0.0,0.0,0.0,0.0,0.0,0.0,0.0,0.0,0.0,0.0,0.0,0.0,0.0,0.0,0.0,0.0,0.0,0.0,0.0,0.0,0.0,0.0,0.0,0.0,0.0,0.0,0.0,0.0,0.0,0.0,0.0,0.0,0.0,0.0,0.0,0.0,0.0,0.0,0.0,0.0,0.0,0.0,0.0,0.0,0.0,0.0,0.0,0.0,0.0,0.0,0.0,0.0,0.0,0.0,0.0,0.0,0.0,0.0,0.0,0.0,0.0,0.0,0.0,0.0,0.0,0.0,0.0,0.0,0.0,0.0,0.0,0.0,0.0,0.0,0.0,0.0,0.0,0.0,0.0,0.0,0.0,0.0,0.0,0.0,0.0,0.0,0.0,0.0,0.0,0.0,0.0,0.0,0.0,0.0,0.0,0.0,0.0,0.0,0.0,0.0,0.0,0.0,0.0,0.0,0.0,0.0,0.0,0.0,0.0,0.0,0.0,0.0,0.0,0.0,0.0,0.0,0.0,0.0,0.0,0.0,0.0,0.0,0.0,0.0,0.0,0.0,0.0,0.0,0.0,0.0,0.0,0.0,0.0,0.0,0.0,0.0,0.0,0.0,0.0,0.0,0.0,0.0,0.0,0.0,0.0,0.0,0.0,0.0,0.0,0.0,0.0,0.0,0.0,0.0,0.0,0.0,0.0,0.0,0.0,0.0,0.0,0.0,0.0,0.0,0.0,0.0,0.0,0.0,0.0,0.0,0.0,0.0,0.0,0.0,0.0,0.0,0.0,0.0,0.0,0.0,0.0,0.0,0.0,0.0,0.0,0.0,0.0,0.0,0.0,0.0,0.0,0.0,0.0,0.0,0.0,0.0,0.0,0.0,0.0,0.0,0.0,0.0,0.0,0.0,0.0,0.0,0.0,0.0,0.0,0.0,0.0,0.0,0.0,0.0,0.0,0.0,0.0,0.0,0.0,0.0,0.0,0.0,0.0,0.0,0.0,0.0,0.0,0.0,0.0,0.0,0.0,0.0,0.0,0.0,0.0,0.0,0.0,0.0,0.0,0.0,0.0,0.0,0.0,0.0,0.0,0.0,0.0,0.0,0.0,0.0,0.0,0.0,0.0,0.0,0.0,0.0,0.0,0.0,0.0,0.0,0.0,0.0,0.0,0.0,0.0,0.0,0.0,0.0,0.0,0.0,0.0,0.0,0.0,0.0,0.0,0.0,0.0,0.0,0.0,0.0,0.0,0.0,0.0,0.0,0.0,0.0,0.0,0.0,0.0,0.0,0.0,0.0,0.0,0.0,0.0,0.0,0.0,0.0,0.0,0.0,0.0,0.0,0.0,0.0,0.0,0.0,0.0,0.0,0.0,0.0,0.0,0.0,0.0,0.0,0.0,0.0,0.0,0.0,0.0,0.0,0.0,0.0,0.0,0.0,0.0,0.0,0.0,0.0,0.0,0.0,0.0,0.0,0.0,0.0,0.0,0.0,0.0,0.0,0.0,0.0,0.0,0.0,0.0,0.0,0.0,0.0,0.0,0.0,0.0,0.0,0.0,0.0,0.0,0.0,0.0,0.0,0.0,0.0,0.0,0.0,0.0,0.0,0.0,0.0,0.0,0.0,0.0,0.0,0.0,0.0,0.0,0.0,0.0,0.0,0.0,0.0,0.0,0.0,0.0,0.0,0.0,0.0,0.0,0.0,0.0,0.0,0.0,0.0,0.0,0.0,0.0,0.0,0.0,0.0,0.0,0.0,0.0,0.0,0.0,0.0,0.0,0.0,0.0,0.0,0.0,0.0,0.0,0.0,0.0,0.0,0.0,0.0,0.0,0.0,0.0,0.0,0.0,0.0,0.0,0.0,0.0,0.0,0.0,0.4584,0.0,0.0,0.0,0.0,0.0,0.0,0.0,0.0,0.0,0.0,0.0,0.0,0.0,0.0,0.0,0.0,0.0,0.0,0.0,0.0,0.0,0.0,0.0,0.0,0.0,0.0,0.0,-0.7349,-0.7182,-0.6677,-0.6416,-0.6204,-0.6033,-0.5529,-0.4966,-0.4355,-0.4008,-0.3435,-0.2632,-0.2319,-0.1784,-0.1072,-0.1461,-0.1555,-0.1372,0.0,0.0,0.0,0.0,0.0,0.0,0.0,0.0,0.0,0.0,0.0,0.0,0.0,0.0,0.0,0.0,0.0,0.0,0.0,0.0,0.0,0.0,0.0,0.0,0.0,0.0,0.0,0.0,0.0,0.0,0.0,0.0,0.0,0.0,0.0,0.0,0.0,0.0,0.0,0.0,0.0,0.0,0.0,0.0,0.0,0.0,0.0,0.0,0.0,0.0,0.0,0.0,0.0,0.0,0.0,0.0,0.0,0.0,0.0,0.0,0.0,0.0,0.0,0.0,0.0,0.0,0.0,0.0,0.0,0.0,0.0,0.5193,0.0,0.0,0.0,0.0,0.0,0.0,0.0,0.0,0.0,0.0,0.0,0.0,0.0,0.0,0.0,0.0,0.0,0.0,0.0,0.0,0.0,0.0,0.0,-0.7897,-0.7474,-0.7112,-0.7063,-0.6852,-0.638,-0.6252,-0.6033,-0.561,-0.5135,-0.4618,-0.4005,-0.348,-0.286,-0.2146,-0.1428,-0.0896,-0.0543,0.0094,-0.0049,-0.0866,0.0,0.0,0.0,0.0,0.0,0.0,0.0,0.0,0.0,0.0,0.0,0.0,0.0,0.0,0.0,0.0,0.0,0.0,0.0,0.0,0.0,0.0,0.0,0.0,0.0,0.0,0.0,0.0,0.0,0.0,0.0,0.0,0.0,0.0,0.0,0.0,0.0,0.0,0.0,0.0,0.0,0.0,0.0,0.0,0.0,0.0,0.0,0.0,0.0,0.0,0.0,0.0,0.0,0.0,0.0,0.0,0.0,0.0,0.0,0.0,0.0,0.0,0.0,0.0,0.529,0.5358,0.5362,0.5461,0.5793,0.6167,0.5806,0.6046,0.6701,0.0,0.0,0.0,0.0,0.0,0.0,0.0,0.0,0.0,0.0,0.0,0.0,0.0,0.0,0.0,0.0,0.0,0.0,0.0,0.0,0.0,0.0,-0.7697,-0.7412,-0.737,-0.7328,-0.7112,-0.652,-0.6087,-0.5615,-0.5096,-0.4661,-0.4096,-0.3483,-0.3394,-0.2726,-0.1433,-0.0358,0.0091,-0.0094,0.0836,0.1225,0.1213,0.1434,0.0,0.0,0.0,0.0,0.0,0.0,0.0,0.0,0.0,0.0,0.0,0.0,0.0,0.0,0.0,0.0,0.0,0.0,0.0,0.0,0.0,0.0,0.0,0.0,0.0,0.0,0.0,0.0,0.0,0.0,0.0,0.0,0.0,0.0,0.0,0.0,0.0,0.0,0.0,0.0,0.0,0.0,0.0,0.1996,0.1876,0.0,0.0,0.0,0.0,0.0,0.0,0.0,0.0,0.0,0.0,0.0,0.0,0.0,0.3936,0.4228,0.5043,0.5546,0.5766,0.647,0.6828,0.6833,0.686,0.687,0.6929,0.6907,0.0,0.7203,0.6858,0.0,0.0,0.0,0.0,0.0,0.0,0.0,0.0,0.0,0.0,0.0,0.0,0.0,0.0,0.0,0.0,0.0,0.0,0.0,0.0,0.0,-0.7904,-0.7587,-0.7587,-0.7377,-0.6992,-0.6392,-0.597,-0.5453,-0.4753,-0.4228,-0.3697,-0.3126,-0.2768,-0.1988,-0.0695,-0.0185,-0.0,-0.0049,0.0716,0.1205,0.1488,0.1845,0.2266,0.2747,0.3314,0.0,0.0,0.0,0.0,0.0,0.0,0.0,0.0,0.0,0.0,0.0,0.0,0.0,0.0,0.0,0.0,0.0,0.0,0.0,0.0,0.0,0.0,0.0,0.0,0.0,0.0,0.0,0.0,0.0,0.0,0.0,0.0,0.0,0.0,0.0,0.0,0.0,0.0,0.0,0.1982,0.2082,0.2011,0.1886,0.1954,0.0,0.0,0.0,0.0,0.0,0.0,0.0,0.0,0.0,0.3917,0.4117,0.4448,0.4903,0.5601,0.6072,0.6347,0.6876,0.7085,0.7085,0.7085,0.7085,0.7085,0.7246,0.7359,0.7413,0.73,0.7461,0.7788,0.0,0.0,0.0,0.0,0.8533,0.8896,0.0,0.0,0.0,0.0,0.0,0.0,0.0,0.0,0.0,0.0,0.0,0.0,-0.8618,-0.8103,-0.7746,-0.767,-0.7412,-0.695,-0.6264,-0.5884,-0.5415,-0.467,-0.414,-0.3609,-0.2943,-0.2164,-0.1336,-0.0475,-0.0384,-0.0246,-0.0102,0.0526,0.1123,0.1616,0.2158,0.2631,0.3023,0.3869,0.3755,0.0,0.0,0.0,0.0,0.0,0.0,0.0,0.0,0.0,0.0,0.0,0.0,0.0,0.0,0.0,0.0,0.0,0.0,0.0,0.0,0.0,0.0,0.0,0.0,0.0,0.0,0.0,0.0,0.0,0.0,0.0,0.0,0.0,0.0,0.0,0.0,0.0,0.0,0.2166,0.2454,0.2228,0.2311,0.2396,0.0,0.0,0.0,0.0,0.0,0.0,0.3519,0.3741,0.407,0.4472,0.4636,0.499,0.5571,0.5972,0.6372,0.6701,0.6977,0.7085,0.7085,0.7085,0.7139,0.7241,0.7509,0.7723,0.7883,0.7681,0.7836,0.8156,0.8156,0.8368,0.8685,0.8685,0.9047,0.9458,0.0,0.0,0.0,0.0,0.0,0.0,0.0,0.0,0.0,0.0,0.0,-0.8958,-0.8144,-0.8021,-0.7855,-0.7523,-0.7482,-0.7105,-0.6264,-0.5964,-0.5529,-0.5009,-0.4626,-0.4012,-0.3034,-0.1718,-0.1092,-0.1238,-0.0839,-0.0512,-0.0159,0.0532,0.1354,0.2178,0.2794,0.3297,0.3796,0.4515,0.4618,0.4375,0.0,0.0,0.0,0.0,0.0,0.0,0.0,0.0,0.0,0.0,0.0,0.0,0.0,0.0,0.0,0.0,0.0,0.0,0.0,0.0,0.0,0.0,0.0,0.0,0.0,0.0,0.0,0.0,0.0,0.0,0.0,0.0,0.0,0.0,0.0,0.0,0.0,0.0,0.0,0.3119,0.3288,0.0,0.0,0.0,0.0,0.3199,0.3257,0.3512,0.4009,0.4196,0.4539,0.5068,0.5193,0.5449,0.5782,0.605,0.6372,0.6701,0.6977,0.7085,0.7085,0.7085,0.7295,0.767,0.7978,0.8396,0.8869,0.8156,0.8315,0.8928,0.8928,0.934,0.9909,1.0064,1.0115,1.0167,0.0,0.0,0.0,0.0,0.0,0.0,0.0,0.0,-1.001,-0.9774,-0.9106,-0.8616,-0.8537,-0.8111,-0.7832,-0.7765,-0.7572,-0.7154,-0.6435,-0.597,-0.5539,-0.5101,-0.4312,-0.3433,-0.2326,-0.1844,-0.1514,-0.1436,-0.1298,-0.0851,-0.0165,0.044,0.1273,0.2238,0.3236,0.4012,0.4512,0.4787,0.5113,0.5479,0.6002,0.5864,0.0,0.0,0.0,0.0,0.0,0.0,0.0,0.0,0.0,0.0,0.0,0.0,0.0,0.0,0.0,0.0,0.0,0.0,0.0,0.0,0.0,0.0,0.0,0.0,0.0,0.0,0.0,0.0,0.0,0.0,0.0,0.0,0.0,0.0,0.0,0.0,0.0,0.3332,0.3393,0.0,0.3369,0.3243,0.3218,0.3321,0.3802,0.4213,0.4474,0.4676,0.4927,0.5205,0.5265,0.5356,0.5462,0.6268,0.6583,0.6372,0.7456,0.7783,0.7509,0.7984,0.8249,0.8408,0.8771,0.9086,0.9347,0.9197,0.9295,0.9503,0.9503,0.9755,1.0115,1.0167,1.0482,1.0897,0.0,0.0,0.0,0.0,0.0,0.0,0.0,0.0,-1.001,-0.9892,-0.9136,-0.8655,-0.874,-0.8262,-0.7896,-0.7848,-0.7454,-0.6992,-0.6483,-0.6062,-0.5631,-0.5183,-0.4103,-0.3095,-0.2142,-0.2053,-0.1879,-0.1546,-0.1364,-0.0837,0.0057,0.0748,0.1619,0.2661,0.3746,0.4656,0.5341,0.568,0.6054,0.6519,0.7015,0.6985,0.669,0.0,0.0,0.0,0.0,0.0,0.0,0.0,0.0,0.0,0.0,0.0,0.0,0.0,0.0,0.0,0.0,0.0,0.0,0.0,0.0,0.0,0.0,0.0,0.0,0.0,0.0,0.0,0.0,0.0,0.0,0.0,0.0,0.0,0.0,0.0,0.4075,0.3977,0.4065,0.3986,0.3649,0.3676,0.3703,0.3703,0.4207,0.4584,0.4695,0.4899,0.5179,0.5513,0.5407,0.5462,0.5732,0.6372,0.6583,0.6372,0.7456,0.7889,0.7723,0.8296,0.8718,0.904,0.9451,0.9821,1.0131,1.0285,1.0438,1.0482,1.0269,1.0474,1.083,1.083,1.115,1.1578,0.0,0.0,0.0,0.0,0.0,0.0,0.0,-1.039,-0.9952,-0.9658,-0.9421,-0.911,-0.8756,-0.8382,-0.8047,-0.7724,-0.7196,-0.6745,-0.6416,-0.6147,-0.5755,-0.5275,-0.4077,-0.3139,-0.2626,-0.236,-0.2025,-0.1711,-0.1142,-0.0353,0.0588,0.1396,0.2402,0.3449,0.4418,0.5317,0.6156,0.7186,0.763,0.7622,0.8168,0.8209,0.7913,0.0,0.0,0.0,0.0,0.0,0.0,0.0,0.0,0.0,0.0,0.0,0.0,0.0,0.0,0.0,0.0,0.0,0.0,0.0,0.0,0.0,0.0,0.0,0.0,0.0,0.0,0.0,0.0,0.0,0.0,0.0,0.0,0.0,0.4948,0.5121,0.5267,0.514,0.5226,0.5,0.4267,0.4382,0.4515,0.4515,0.4519,0.4574,0.4743,0.4849,0.5285,0.6,0.5572,0.5786,0.6588,0.6372,0.6426,0.6756,0.7025,0.7402,0.7777,0.8031,0.8659,0.9465,1.002,1.0584,1.1175,1.1427,1.1678,1.1877,1.1283,1.1493,1.2076,1.2076,1.2116,1.2107,0.0,0.0,0.0,0.0,0.0,0.0,0.0,-1.0235,-0.9795,-0.9892,-0.9089,-0.8599,-0.8901,-0.8325,-0.7881,-0.7848,-0.7321,-0.6816,-0.6483,-0.5873,-0.5164,-0.4367,-0.3861,-0.3459,-0.3039,-0.2632,-0.2346,-0.212,-0.1107,-0.0238,0.0547,0.1411,0.2402,0.3449,0.4776,0.5796,0.6579,0.7903,0.8655,0.8966,0.8873,0.8598,0.8229,0.0,0.0,0.0,0.0,0.0,0.0,0.0,0.0,0.0,0.0,0.0,0.0,0.0,0.0,0.0,0.0,0.0,0.0,0.0,0.0,0.0,0.0,0.0,0.0,0.0,0.0,0.0,0.0,0.0,0.0,0.0,0.0,0.5242,0.5194,0.5271,0.5261,0.5263,0.5303,0.5046,0.446,0.482,0.5062,0.5062,0.4794,0.4904,0.5449,0.5614,0.5832,0.6159,0.6431,0.6756,0.7128,0.7557,0.7717,0.7557,0.8508,0.8928,0.8935,0.9569,1.0138,1.0651,1.1006,1.136,1.1678,1.1778,1.1877,1.2026,1.176,1.1819,1.2126,1.2224,1.2087,1.1836,0.0,0.0,0.0,0.0,0.0,0.0,0.0,-1.003,-0.9439,-0.9695,-0.9024,-0.8627,-0.8869,-0.8334,-0.7887,-0.7765,-0.7196,-0.6781,-0.6617,-0.5793,-0.501,0.0,0.0,-0.3553,-0.3184,-0.2843,-0.2546,-0.2294,-0.0904,0.0061,0.0616,0.1746,0.2742,0.3574,0.4904,0.5908,0.6712,0.8154,0.9065,0.9564,0.9505,0.9147,0.8672,0.8287,0.8229,0.8268,0.8062,0.8072,0.8168,0.8062,0.0,0.0,0.0,0.0,0.0,0.0,0.0,0.0,0.0,0.0,0.0,0.0,0.0,0.0,0.0,0.0,0.0,0.0,0.0,0.0,0.0,0.0,0.0,0.0,0.576,0.5998,0.6032,0.6046,0.6046,0.6046,0.6046,0.5719,0.4901,0.5332,0.5605,0.5386,0.5391,0.5609,0.61,0.6263,0.6534,0.6804,0.7025,0.7348,0.7824,0.8043,0.8096,0.8143,0.8876,0.9302,0.9413,1.0087,1.0608,0.0,1.1377,1.1628,1.1819,1.1697,1.1722,0.0,0.0,0.0,0.0,0.0,1.1761,1.147,0.0,0.0,0.0,0.0,0.0,0.0,0.0,-0.9913,-0.9208,-0.9399,-0.9128,-0.8895,-0.8756,-0.8431,-0.8013,-0.7599,-0.7034,-0.6679,-0.6582,-0.5805,0.0,-0.451,-0.4063,-0.3688,-0.3332,-0.3031,-0.2716,-0.2366,-0.0748,0.0316,0.0739,0.2276,0.3292,0.3722,0.4942,0.5951,0.6858,0.8196,0.9127,0.9739,1.0012,0.9786,0.9203,0.8965,0.8798,0.8672,0.8639,0.8474,0.8221,0.8221,0.0,0.0,0.0,0.0,0.0,0.0,0.0,0.0,0.0,0.0,0.0,0.0,0.0,0.0,0.0,0.0,0.0,0.0,0.0,0.0,0.0,0.0,0.0,0.0,0.6586,0.6993,0.716,0.7192,0.7192,0.7085,0.7085,0.6647,0.5496,0.5937,0.615,0.576,0.614,0.6524,0.6696,0.0,0.0,0.0,0.0,0.7723,0.8679,0.8196,0.815,0.858,0.8837,0.9197,0.9621,1.0072,1.0533,1.1023,1.1368,1.1601,1.1688,1.1435,1.1405,1.1584,1.1898,1.1987,1.199,1.1621,1.1286,1.1022,0.0,0.0,0.0,0.0,0.0,0.0,0.0,-1.058,-1.0001,-1.0079,-0.9239,-0.8724,-0.9056,-0.8472,-0.8021,-0.7897,-0.7314,-0.6613,-0.5848,0.0,-0.4714,-0.4503,-0.4274,-0.4092,-0.4032,-0.3768,-0.3353,-0.2867,-0.0923,0.0185,0.0554,0.2352,0.3326,0.3707,0.5048,0.6264,0.7376,0.8656,0.9748,1.0573,1.0397,1.0032,0.9566,0.9265,0.9097,0.9064,0.8831,0.8586,0.8321,0.8221,0.8055,0.783,0.7473,0.0,0.0,0.0,0.0,0.0,0.0,0.0,0.0,0.0,0.0,0.0,0.0,0.0,0.0,0.0,0.0,0.0,0.0,0.0,0.0,0.6713,0.6943,0.7245,0.7676,0.7741,0.7574,0.7139,0.7085,0.681,0.61,0.6593,0.6912,0.6961,0.6691,0.6858,0.7456,0.7605,0.7765,0.7871,0.8362,0.8791,0.9106,0.9302,0.951,0.9681,0.0,0.0,1.0761,1.0863,1.1217,1.1719,1.1778,1.1697,1.1542,1.1469,1.1334,1.1138,1.1313,1.1431,1.1474,1.1027,1.0893,1.0903,0.0,0.0,0.0,0.0,0.0,0.0,0.0,-1.0272,-0.95,-0.9646,-0.9199,-0.8967,-0.9096,-0.8602,-0.8185,-0.7987,-0.7238,-0.6501,0.0,-0.5325,-0.4931,-0.472,-0.4556,-0.4477,-0.4442,-0.4025,-0.3683,-0.332,-0.1308,-0.0062,0.048,0.2282,0.3308,0.3732,0.4884,0.6042,0.726,0.8382,0.9588,1.0667,1.0767,1.0622,1.0315,0.9741,0.9478,0.9329,0.9078,0.8757,0.8474,0.8275,0.8209,0.815,0.7526,0.7448,0.7484,0.0,0.0,0.0,0.0,0.0,0.0,0.0,0.0,0.0,0.0,0.0,0.0,0.0,0.0,0.6304,0.0,0.0,0.671,0.7361,0.7494,0.7574,0.7848,0.7901,0.7788,0.7521,0.7521,0.73,0.6701,0.7246,0.7568,0.7391,0.7498,0.7771,0.8209,0.8315,0.8362,0.8468,0.8791,0.9113,0.9309,0.951,0.9666,0.9784,1.0257,1.0624,1.0812,1.093,1.1149,1.1376,1.1372,1.1267,1.1168,1.1191,1.0984,1.0689,1.0845,1.0939,1.0975,1.0778,1.0608,1.0486,0.0,0.0,0.0,0.0,0.0,0.0,0.0,-1.0233,-0.9253,-0.9217,-0.9208,-0.9208,-0.9056,-0.8732,-0.8316,-0.787,-0.7027,-0.6433,0.0,-0.5634,-0.5242,-0.5112,-0.4944,-0.4862,-0.4829,-0.4316,-0.3938,-0.3719,-0.1638,-0.031,0.0354,0.2175,0.3379,0.3918,0.4753,0.5844,0.7147,0.826,0.9518,1.0751,1.1185,1.1205,1.0974,1.0415,0.9923,0.9535,0.9254,0.8937,0.8573,0.8268,0.8368,0.8468,0.7574,0.7745,0.8018,0.6718,0.6558,0.0,0.0,0.0,0.0,0.0,0.0,0.0,0.0,0.0,0.6253,0.6641,0.6701,0.6762,0.7172,0.7212,0.7338,0.7812,0.7901,0.7901,0.7901,0.7901,0.7901,0.7901,0.7901,0.7735,0.73,0.7788,0.7996,0.7711,0.8249,0.8633,0.8804,0.8804,0.8857,0.8956,0.9008,0.9159,0.9361,0.9465,0.9621,0.9777,1.023,1.0519,1.0612,1.0779,1.0845,1.0874,1.075,1.0756,1.0772,1.0788,1.0605,1.0322,1.0505,1.0607,1.0627,1.0659,1.0486,1.0235,0.0,0.0,0.0,0.0,0.0,0.0,0.0,0.0,-1.0951,-1.0,-0.9377,-0.9096,-0.9239,-0.8773,-0.816,-0.7607,-0.6894,0.0,-0.6527,-0.5766,-0.5448,-0.5783,-0.5462,-0.533,-0.5301,-0.4941,-0.4492,-0.3903,-0.1742,-0.0429,0.0122,0.2256,0.3565,0.4181,0.5074,0.6171,0.7445,0.8977,1.0155,1.1052,1.1864,1.1684,1.0919,1.11,1.0587,0.9788,0.92,0.8824,0.8573,0.8268,0.8109,0.7895,0.7419,0.7599,0.7723,0.6401,0.0,0.6117,0.4965,0.5111,0.0,0.6229,0.6631,0.7108,0.0,0.0,0.7765,0.8118,0.8069,0.8029,0.8059,0.7913,0.7812,0.7895,0.7901,0.7901,0.7901,0.7901,0.7901,0.7901,0.7901,0.7901,0.7794,0.7901,0.8055,0.8262,0.8368,0.8533,0.8804,0.8804,0.8811,0.8804,0.9061,0.9211,0.9211,0.9681,1.0102,1.0411,1.0335,1.0569,1.1011,1.0701,1.0651,1.0858,1.0585,1.0494,1.0634,1.0457,1.0332,1.0322,1.0505,1.0613,1.0614,1.0614,1.0584,1.0544,0.0,0.0,0.0,0.0,0.0,0.0,0.0,0.0,0.0,-0.9765,-0.9576,-0.9417,-0.9319,-0.8692,-0.8085,-0.7663,0.0,0.0,-0.6667,-0.5936,-0.5618,-0.6028,-0.5899,-0.5705,-0.5517,-0.5462,-0.5032,-0.4182,-0.2914,-0.1808,-0.0797,0.1449,0.3171,0.4457,0.5585,0.6612,0.7541,0.8948,0.9843,1.0332,1.0842,1.0756,1.0154,0.9811,0.9363,0.8961,0.8665,0.8528,0.0,0.0,0.7377,0.7446,0.6833,0.6924,0.7018,0.5903,0.595,0.0,0.6119,0.0,0.0,0.0,0.6974,0.7104,0.7644,0.7425,0.7378,0.8137,0.8221,0.8168,0.8062,0.7955,0.7901,0.0,0.7901,0.7901,0.7901,0.7901,0.7901,0.7901,0.7901,0.7901,0.7901,0.8008,0.8115,0.8268,0.8421,0.858,0.8685,0.885,0.8956,0.9008,0.9211,0.9361,0.9413,0.9784,1.0003,0.9995,1.0499,1.066,1.0516,1.0578,1.0556,1.0441,1.0302,1.0387,1.0607,1.0585,1.0621,1.0725,1.0899,1.1002,1.1067,1.0725,1.0582,1.0661,0.0,0.0,0.0,0.0,0.0,0.0,0.0,0.0,0.0,0.0,-0.9734,-0.9695,-0.9248,-0.8521,-0.7953,-0.7712,0.0,0.0,0.0,-0.6235,-0.6071,-0.6169,-0.6252,-0.6275,-0.6124,-0.5963,-0.5542,-0.4813,-0.3673,-0.2356,-0.0879,0.1365,0.3359,0.4981,0.6229,0.711,0.7749,0.9058,0.9773,1.0002,1.0458,1.018,0.9551,0.8997,0.8469,0.7926,0.7978,0.7955,0.0,0.0,0.6611,0.6773,0.6234,0.6277,0.6433,0.5599,0.5467,0.5697,0.6245,0.0,0.0,0.6815,0.6838,0.6865,0.7021,0.6956,0.7079,0.7783,0.7949,0.7949,0.7901,0.7794,0.0,0.7901,0.7901,0.7901,0.7901,0.7901,0.7901,0.7901,0.7901,0.7901,0.7901,0.8062,0.8215,0.8321,0.8527,0.8685,0.8732,0.8949,0.9113,0.9211,0.9309,0.9465,0.9666,0.979,0.9834,0.9817,1.0335,1.0479,1.0219,1.0472,1.0475,1.0273,1.0302,1.0572,1.0954,1.1115,1.1255,1.1356,1.1452,1.1638,1.1752,1.1308,1.1019,1.093,0.0,0.0,0.0,0.0,0.0,0.0,0.0,0.0,0.0,0.0,0.0,0.0,0.0,-0.8218,-0.7731,0.0,0.0,0.0,0.0,-0.6836,-0.6873,-0.6322,-0.6656,-0.7081,-0.7509,-0.6397,-0.5798,-0.5866,-0.3436,-0.1361,0.0332,0.2716,0.4607,0.6121,0.703,0.7754,0.8285,0.9818,1.0451,1.0557,1.1255,1.0697,0.9439,0.9535,0.8531,0.7043,0.7122,0.0,0.0,0.0,0.5844,0.5844,0.5741,0.5834,0.0,0.5678,0.4743,0.0,0.0,0.0,0.4784,0.5271,0.6,0.6588,0.648,0.6972,0.7461,0.7343,0.7343,0.745,0.7842,0.7467,0.73,0.7794,0.7901,0.7901,0.7901,0.7901,0.7901,0.7901,0.7901,0.7901,0.0,0.8062,0.8321,0.8573,0.8692,0.8857,0.8956,0.9106,0.9211,0.9211,0.9309,0.951,0.9814,0.9615,0.9792,1.0245,0.9661,0.9768,1.0481,1.0444,1.0522,1.0677,1.0905,1.1282,1.1774,1.2066,1.2174,1.2174,1.2234,1.239,1.2555,1.2555,1.2103,1.1516,0.0,0.0,0.0,0.0,0.0,0.0,0.0,0.0,0.0,0.0,0.0,0.0,0.0,0.0,0.0,0.0,0.0,0.0,0.0,-0.6322,-0.6192,-0.5682,-0.6508,-0.7012,-0.6949,-0.6904,-0.4976,-0.1074,-0.064,0.0805,0.3239,0.5396,0.7687,1.0113,0.877,0.8483,0.9111,0.9695,0.9892,0.9888,0.9733,0.9221,0.8532,0.7813,0.6972,0.6058,0.0,0.0,0.0,0.5409,0.5083,0.4938,0.462,0.4393,0.0,0.4157,0.3856,0.3746,0.0,0.0,0.5293,0.5535,0.5774,0.5873,0.5891,0.6268,0.675,0.7079,0.7325,0.7465,0.7264,0.7367,0.7367,0.7056,0.7459,0.7729,0.7628,0.7735,0.7783,0.7783,0.7842,0.0,0.0,0.0,0.0,0.8321,0.8527,0.8685,0.8738,0.9054,0.9263,0.9465,0.9467,0.9657,0.999,0.9843,0.9955,1.0317,1.0118,1.0376,1.0953,1.076,1.1001,1.1556,1.1625,1.2153,1.2898,1.2579,1.2614,1.2871,1.2906,1.2998,1.3157,1.3361,1.3225,1.2883,0.0,0.0,0.0,0.0,0.0,0.0,0.0,0.0,0.0,0.0,0.0,0.0,0.0,0.0,0.0,0.0,0.0,0.0,0.0,0.0,-0.6142,-0.552,-0.6412,-0.6344,-0.5165,-0.5278,-0.2892,0.2066,0.3726,0.4956,0.5813,0.8255,1.0285,1.1744,1.0094,0.9668,1.0208,1.0041,0.9838,0.9573,0.8958,0.8351,0.7704,0.6655,0.5999,0.0,0.0,0.0,0.0,0.4489,0.4184,0.4041,0.3554,0.3331,0.3274,0.3228,0.3203,0.3477,0.0,0.4793,0.4702,0.5089,0.5167,0.5167,0.5175,0.5668,0.6136,0.6386,0.6618,0.6719,0.6616,0.677,0.6905,0.6733,0.7248,0.7622,0.7515,0.7568,0.7622,0.7622,0.7729,0.0,0.0,0.0,0.0,0.8321,0.858,0.8732,0.8732,0.9106,0.9311,0.9344,0.9355,0.9542,0.9938,0.9673,0.9739,1.0091,1.0496,1.0828,1.1137,1.1085,1.1513,1.2307,1.2348,1.2866,1.3672,1.3377,1.3408,1.3635,1.3656,1.3742,1.3921,1.413,1.4181,1.4078,0.0,0.0,0.0,0.0,0.0,0.0,0.0,0.0,0.0,0.0,0.0,0.0,0.0,0.0,0.0,0.0,0.0,0.0,0.0,0.0,0.0,-0.5909,-0.6299,-0.5287,-0.2565,-0.1916,0.0082,0.3549,0.9173,1.0609,0.8158,1.1278,1.222,1.126,1.0882,1.0979,1.1391,1.0863,1.0249,0.9644,0.8969,0.8065,0.7025,0.6231,0.0,0.0,0.0,0.0,0.0,0.0,0.0,0.0,0.0,0.0,0.2932,0.2825,0.2839,0.2996,0.3739,0.3544,0.3241,0.3855,0.4242,0.4463,0.4463,0.5113,0.5653,0.5366,0.5267,0.5414,0.0,0.0,0.6067,0.6747,0.7182,0.7467,0.7467,0.7467,0.7467,0.0,0.0,0.0,0.0,0.0,0.0,0.8521,0.0,0.8956,0.9008,0.9263,0.9219,0.8969,0.9118,0.9354,0.9614,0.9258,0.9342,0.9827,1.079,1.1199,1.1092,1.1469,1.2112,1.2872,1.302,1.3454,1.4105,1.4319,1.4461,1.4447,1.4515,1.4641,1.4825,1.4825,1.4904,1.4937,0.0,0.0,0.0,0.0,0.0,0.0,0.0,0.0,0.0,0.0,0.0,0.0,0.0,0.0,0.0,0.0,0.0,0.0,0.0,0.0,0.0,0.0,0.0,0.0,0.0,0.0,0.0,0.0,0.0,1.2375,1.4675,1.3947,1.3217,1.248,1.0498,1.0056,1.0789,0.9652,0.9407,0.9691,0.0,0.8018,0.7435,0.0,0.0,0.0,0.0,0.0,0.0,0.0,0.0,0.0,0.0,0.0,0.0934,0.1532,0.1871,0.2216,0.3281,0.3445,0.3411,0.3913,0.4079,0.4132,0.4132,0.4588,0.4963,0.4976,0.5212,0.5313,0.0,0.0,0.0,0.5977,0.6706,0.0,0.7192,0.7306,0.0,0.0,0.0,0.7568,0.7568,0.7788,0.0,0.0,0.8374,0.8639,0.8857,0.9008,0.9221,0.9541,0.947,0.962,0.9964,1.0356,1.0907,1.1568,1.1769,1.2048,1.2357,1.2549,1.3107,1.3935,1.4079,1.4509,1.5169,1.4949,1.4949,1.5086,1.5149,1.5195,1.5239,1.5299,1.5359,1.5418,0.0,0.0,0.0,0.0,0.0,0.0,0.0,0.0,0.0,0.0,0.0,0.0,0.0,0.0,0.0,0.0,0.0,0.0,0.0,0.0,0.0,0.0,0.0,0.0,0.0,0.0,0.0,0.0,0.0,0.0,0.0,1.4607,1.3754,1.2975,1.1163,1.0659,1.1122,0.9803,0.0,0.0,0.0,0.0,0.0,0.0,0.0,0.0,0.0,0.0,0.0,0.0,0.0,-0.1769,-0.1344,-0.0806,-0.0152,0.0999,0.0,0.1819,0.2494,0.2796,0.2965,0.3357,0.3466,0.3561,0.373,0.4031,0.4299,0.4321,0.4466,0.0,0.0,0.0,0.0,0.0,0.0,0.0,0.6756,0.6923,0.7036,0.0,0.7144,0.0,0.7419,0.7574,0.7788,0.0,0.8215,0.8474,0.8692,0.8903,0.9034,0.9154,0.9272,0.9572,0.9977,1.0932,1.1542,1.1766,1.2048,1.2407,1.2796,1.2902,1.3516,1.4458,0.0,1.49,1.5464,1.5278,1.5269,1.5418,1.5522,1.558,1.558,1.5726,1.5784,1.5841,0.0,0.0,0.0,0.0,0.0,0.0,0.0,0.0,0.0,0.0,0.0,0.0,0.0,0.0,0.0,0.0,0.0,0.0,0.0,0.0,0.0,0.0,0.0,0.0,0.0,0.0,0.0,0.0,0.0,0.0,0.0,0.0,0.0,0.0,0.0,0.0,0.0,0.0,0.0,0.0,0.0,0.0,0.0,0.0,0.0,0.0,0.0,0.0,0.0,0.0,-0.3291,-0.3675,-0.192,-0.1205,-0.0562,0.1608,0.1847,0.1453,0.161,0.1847,0.2128,0.2465,0.2676,0.292,0.3212,0.3478,0.3598,0.3566,0.0,0.0,0.3567,0.0,0.501,0.494,0.0,0.6725,0.6258,0.6426,0.6647,0.6647,0.6761,0.6933,0.7203,0.7359,0.7521,0.7794,0.8109,0.8368,0.8633,0.8844,0.8799,0.8371,0.8874,0.9387,0.9813,1.1032,1.1556,1.1348,1.202,1.2551,1.293,1.3043,1.3706,1.4775,0.0,0.0,1.5418,1.5522,1.5566,1.5624,1.5784,1.5856,1.5898,1.6095,1.6179,1.6234,0.0,0.0,0.0,0.0,0.0,0.0,0.0,0.0,0.0,0.0,0.2439,0.0757,0.0,0.0,0.0,0.0,0.0,0.0,0.0,0.0,0.0,0.0,0.0,0.0,0.0,0.0,0.0,0.0,0.0,0.0,0.0,0.0,0.0,0.0,0.0,0.0,0.0,0.0,0.0,0.0,0.0,0.0,0.0,0.0,0.0,0.0,0.0,0.0,0.0,0.0,-0.0,-0.3104,0.156,0.0643,-0.0913,0.5424,0.412,0.0668,0.0952,0.1065,0.1233,0.1792,0.2136,0.241,0.277,0.2792,0.0,0.0,0.0,0.3372,0.3422,0.391,0.0,0.4836,0.0,0.0,0.0,0.0,0.6263,0.0,0.0,0.0,0.0,0.0,0.0,0.0,0.0,0.8002,0.8752,0.8804,0.8844,0.882,0.8952,0.9346,1.0035,1.0566,1.1266,1.211,1.2507,1.3057,1.3718,1.4007,1.4488,1.5122,1.5222,0.0,1.5955,1.5926,1.6024,1.6163,1.6067,1.6151,1.6316,1.6394,1.6528,1.6686,0.0,0.0,0.0,0.0,0.0,0.0,0.0,0.4758,0.6501,0.8032,0.5855,0.3723,0.2627,0.1787,0.0597,0.0,0.0,0.0,0.0,0.0,0.0,0.0,0.0,0.0,0.0,0.0,0.0,0.0,0.0,0.0,0.0,0.0,0.0,0.0,0.0,0.0,0.0,0.0,0.0,0.0,0.0,0.0,0.0,0.0,0.0,0.0,0.0,0.0,0.0,0.0,-0.0301,0.0128,0.5132,0.2438,-0.1748,0.2491,0.1992,0.0056,0.0336,0.0505,0.0729,0.1232,0.1438,0.1679,0.2191,0.0,0.0,0.0,0.0,0.3089,0.3041,0.0,0.0,0.0,0.0,0.0,0.0,0.0,0.0,0.0,0.0,0.0,0.0,0.0,0.0,0.0,0.0,0.7842,0.8533,0.8612,0.8686,0.8781,0.9012,0.9406,0.9926,1.0503,1.1328,1.2302,1.2528,1.315,1.4111,1.4254,1.47,1.5314,1.5359,0.0,1.6191,1.6191,1.6328,1.6501,1.649,1.6528,1.6686,1.6799,1.6942,1.7018,0.0,0.0,0.0,0.0,0.0,0.0,0.0,0.3753,0.6023,0.9721,0.8657,0.7118,0.6027,0.5643,0.4223,0.0,0.0,0.0,0.0,0.0,0.0,0.0,0.0,0.0,0.0,0.0,0.0,0.0,0.0,0.0,0.0,0.0,0.0,0.0,0.0,0.0,0.0,0.0,0.0,0.0,0.0,0.0,0.0,0.0,0.0,0.0,0.0,0.0,0.0,0.0,-0.0574,0.2913,0.7539,0.4309,-0.0831,0.0763,0.0428,-0.0444,-0.0277,-0.0,0.028,0.0611,0.0717,0.0918,0.1565,0.2175,0.0,0.0,0.2732,0.2776,0.2684,0.0,0.0,0.0,0.0,0.0,0.0,0.0,0.0,0.0,0.0,0.0,0.0,0.0,0.0,0.0,0.0,0.0,0.8174,0.8373,0.852,0.8532,0.9068,0.9495,0.9813,1.0435,1.1285,1.2332,1.2447,1.311,1.43,1.4429,1.4811,1.5418,1.5536,0.0,0.0,1.6463,1.6607,1.6799,1.6799,1.6876,1.6977,1.7167,1.7264,1.7313,0.0,0.0,0.0,0.0,0.0,0.0,0.0,0.3966,0.6382,1.0084,1.0365,1.0054,0.957,0.8376,0.6681,0.0,0.0,0.0,0.0,0.0,0.0,0.0,0.0,0.0,0.0,0.0,0.0,0.0,0.0,0.0,0.0,0.0,0.0,0.0,0.0,0.0,0.0,0.0,0.0,0.0,0.0,0.0,0.0,0.0,0.0,0.0,0.0,0.0,0.0,0.0,0.0,0.2552,0.7184,0.6563,0.4508,0.6585,0.0,0.0,-0.0803,-0.0548,-0.0167,0.0054,0.0157,0.0403,0.0966,0.0,0.0,0.0,0.2549,0.2551,0.2504,0.2692,0.0,0.0,0.0,0.0,0.0,0.0,0.0,0.0,0.0,0.0,0.0,0.0,0.0,0.0,0.0,0.0,0.7631,0.8122,0.8305,0.8084,0.9047,0.9674,0.9902,0.99,1.0766,1.2484,1.2425,1.3073,1.4332,1.4871,1.5254,1.5507,1.5953,0.0,0.0,1.6763,1.6876,1.7035,1.6952,1.7002,1.7191,1.7272,1.7408,1.7566,0.0,0.0,0.0,0.0,0.0,0.0,0.1267,0.2534,0.4432,0.812,0.8782,0.9297,1.026,1.0816,1.0169,0.7694,0.0,0.0,0.0,0.0,0.0,0.0,0.0,0.0,0.0,0.0,0.0,0.0,0.0,0.0,0.0,0.0,0.0,0.0,0.0,0.0,0.0,0.0,0.0,0.0,0.0,0.0,0.0,0.0,0.0,0.0,0.0,0.0,0.0,0.0,0.0,0.0,0.693,0.7927,0.0,0.0,0.7671,0.5204,0.0415,-0.077,-0.0496,0.021,0.0211,0.0359,0.145,0.0,0.0,0.2254,0.2377,0.2377,0.2105,0.2373,0.2723,0.0,0.0,0.0,0.0,0.0,0.0,0.0,0.0,0.0,0.0,0.0,0.0,0.0,0.0,0.0,0.6479,0.7432,0.7939,0.7816,0.8429,0.9133,0.9954,1.0128,1.1196,1.3085,1.306,1.373,1.5029,1.5285,1.5623,1.6105,1.6351,0.0,0.0,1.7076,1.7224,1.7408,1.7337,1.7392,1.7486,1.7532,1.7595,1.7664,0.0,0.0,0.0,0.0,0.0,-0.1487,0.0921,0.1934,0.3394,0.6091,0.6875,0.7945,0.9839,1.1468,1.1873,1.0514,0.8765,0.0,0.0,0.0,0.0,0.0,0.0,0.0,0.0,0.0,0.0,0.0,0.0,0.0,0.0,0.0,0.0,0.0,0.0,0.0,0.0,0.0,0.0,0.0,0.0,0.0,0.0,0.0,0.0,0.0,0.0,0.0,0.0,0.0,0.0,0.0,0.0,0.0,0.0,0.0,1.0185,0.7995,0.3518,0.0693,-0.0458,0.1756,0.1157,0.0903,0.0,0.0,0.1859,0.2256,0.2377,0.2377,0.2152,0.2462,0.28,0.0,0.0,0.0,0.0,0.0,0.0,0.0,0.0,0.0,0.0,0.0,0.0,0.0,0.0,0.0,0.0,0.6873,0.7591,0.7712,0.8776,0.9753,1.0592,1.1071,1.2337,1.4329,1.3904,1.4426,1.5805,1.5794,1.6034,1.6512,0.0,0.0,0.0,1.7337,1.7479,1.7635,1.7658,1.7704,1.7789,1.8031,1.8003,1.7907,0.0,0.0,0.0,0.0,0.0,0.0,0.1231,0.2788,0.4012,0.4364,0.524,0.6604,0.859,0.9706,1.0992,1.2608,1.2743,0.0,0.0,0.0,0.0,0.0,0.0,0.0,0.0,0.0,0.0,0.0,0.0,0.0,0.0,0.0,0.0,0.0,0.0,0.0,0.0,0.0,0.0,0.0,0.0,0.0,0.0,0.0,0.0,0.0,0.0,0.0,0.0,0.0,0.0,0.0,0.0,0.0,0.0,0.0,0.9984,0.508,0.8793,0.4398,-0.0,0.5002,0.3195,0.2129,0.0,0.0,0.1074,0.2326,0.2595,0.264,0.2868,0.3043,0.3214,0.3217,0.3425,0.0,0.0,0.0,0.0,0.0,0.0,0.0,0.0,0.0,0.0,0.0,0.0,0.0,0.0,0.6597,0.7365,0.769,1.0526,1.2061,1.2094,1.2884,1.4279,1.6257,1.4877,1.4993,1.6495,1.6491,1.6501,0.0,0.0,0.0,0.0,1.7496,1.7658,1.7726,1.7772,1.7856,1.799,1.8802,1.8721,1.8375,0.0,0.0,0.0,0.0,0.0,0.0,0.0,0.2804,0.366,0.4012,0.453,0.5406,0.6907,0.8475,0.9848,1.0977,1.1794,0.0,0.0,0.0,0.0,0.0,0.0,0.0,0.0,0.0,0.0,0.8512,0.9294,0.0,0.0,0.0,0.0,0.0,0.0,0.0,0.0,0.0,0.0,0.0,0.0,0.0,0.0,0.0,0.0,0.0,0.0,0.0,0.0,0.0,0.0,0.0,0.0,0.0,0.0,1.8408,1.7587,0.0,1.3971,1.0386,0.7026,0.6236,0.5525,0.4815,0.3967,0.0,0.1748,0.1791,0.2196,0.2511,0.237,0.2773,0.3046,0.2773,0.3072,0.0,0.0,0.0,0.0,0.0,0.0,0.0,0.0,0.0,0.0,0.0,0.0,0.0,0.0,1.1741,1.1966,0.9338,1.1148,1.3097,1.5022,1.5847,1.6939,1.8355,1.7338,1.7189,1.7798,1.7419,0.0,0.0,0.0,0.0,0.0,1.8272,1.8585,1.8659,1.9267,1.9171,1.8819,1.9728,1.9608,1.9095,0.0,0.0,0.0,0.0,0.0,0.0,0.0,0.2591,0.3258,0.3609,0.4391,0.525,0.6137,0.7551,0.8762,0.9579,1.0709,0.0,0.0,0.0,0.0,0.0,0.0,0.0,0.0,0.0,1.206,1.2103,1.2978,1.3423,1.3473,0.0,0.0,0.0,0.0,0.0,0.0,0.0,0.0,0.0,0.0,0.0,0.5746,0.0,0.0,0.0,0.0,0.0,0.0,0.0,0.0,0.0,0.0,0.0,0.0,0.0,2.0644,2.029,0.0,1.3926,1.0395,0.9853,0.8087,0.0,0.0,0.0,0.0,0.1882,0.233,0.2645,0.2546,0.2862,0.3043,0.2726,0.2993,0.0,0.0,0.0,0.0,0.0,0.0,0.0,0.0,0.0,0.0,0.0,0.0,0.0,0.0,1.5454,1.5928,1.4381,1.4902,1.5832,1.7205,1.8475,1.9436,2.0119,1.893,1.8579,1.8927,1.8198,0.0,0.0,0.0,0.0,0.0,1.8939,1.9344,1.9659,2.0144,2.0041,1.9698,2.0638,2.0524,2.003,0.0,0.0,0.0,0.0,0.0,0.0,0.0,0.2188,0.2849,0.3158,0.4665,0.5786,0.6052,0.6897,0.7728,0.8545,0.0,0.0,0.0,0.0,0.0,0.0,0.0,0.0,0.0,1.3468,1.4684,1.4807,1.6938,1.8036,1.8195,1.8431,1.8556,0.0,0.0,0.0,0.0,0.0,0.0,0.0,0.0,1.1489,0.0,0.0,0.0,0.0,0.0,0.0,0.0,0.0,0.0,0.0,0.0,0.0,0.0,0.0,0.0,0.0,0.0,1.5405,1.0952,1.4983,1.0526,0.5684,0.0,0.0,0.0,0.0,0.2823,0.2912,0.3129,0.317,0.3126,0.299,0.0,0.0,0.0,0.0,0.0,0.0,0.0,0.0,0.0,0.0,0.0,0.0,0.0,0.0,0.0,1.8117,1.9469,2.177,2.0991,2.0024,1.8976,2.0934,2.1803,2.1585,1.9913,1.9434,2.0032,1.8944,0.0,0.0,0.0,0.0,0.0,1.9595,2.0048,2.0702,2.0621,2.0549,2.0614,2.1555,2.1488,2.1105,0.0,0.0,0.0,0.0,0.0,0.0,0.0,0.0,0.0,0.0,0.3917,0.473,0.5743,0.6295,0.7224,0.0,0.0,0.0,0.0,0.0,0.0,0.0,0.0,0.0,0.0,1.6143,1.6848,1.6903,1.7538,1.7864,1.791,1.8017,1.8124,1.8124,1.581,0.0,0.0,0.0,0.0,0.0,1.1326,1.0217,0.0,0.0,0.0,0.0,0.9797,1.177,0.0,0.0,0.0,0.0,0.0,0.0,0.0,0.0,1.9803,1.9333,2.0263,0.0,1.4212,1.5588,1.0824,0.5911,0.0,0.0,0.0,0.0,0.0,0.2558,0.264,0.2682,0.0,0.0,0.0,0.0,0.0,0.0,0.0,0.0,0.0,0.0,0.0,0.0,0.0,0.0,0.0,0.0,0.0,2.3335,2.4765,2.5093,2.4939,2.405,2.2428,2.411,2.4189,2.2646,2.2224,2.1927,2.1693,2.0401,0.0,0.0,0.0,0.0,1.97,2.0952,2.159,2.1801,2.2209,2.2104,2.1803,2.2582,2.2482,2.2105,0.0,0.0,0.0,0.0,0.0,0.0,0.0,0.0,0.0,0.0,0.0,0.0,0.0,0.0,0.0,0.0,0.0,0.0,0.0,0.0,0.0,0.0,0.0,0.0,0.0,1.6068,1.6628,1.6961,1.6898,1.7057,1.7432,1.7297,1.7353,1.7445,1.6272,0.0,0.0,0.0,0.0,0.0,1.4656,0.0,0.0,0.0,0.0,0.0,1.2795,1.3345,0.0,1.5009,1.6651,1.7986,0.0,0.0,0.0,0.0,1.9184,1.8783,2.0104,1.8039,1.524,1.4123,1.0069,0.5998,0.4583,0.0,0.0,0.0,0.0,0.0,0.2523,0.0,0.0,0.0,0.0,0.0,0.0,0.0,0.0,0.0,0.0,0.0,0.0,0.0,0.0,0.0,0.0,0.0,0.0,2.6052,2.6841,2.7055,2.7168,2.6224,2.4166,2.5363,2.5211,2.3783,2.3249,2.2868,2.2585,2.1387,2.0713,0.0,0.0,0.0,2.109,2.19,2.2469,2.2802,2.3041,2.2946,2.27,2.3171,2.3135,2.2923,0.0,0.0,0.0,0.0,0.0,0.0,0.0,0.0,0.0,0.0,0.0,0.0,0.0,0.0,0.0,0.0,0.0,0.0,0.0,0.0,0.0,0.0,0.0,1.4215,1.4414,1.4833,1.5395,1.6053,1.5847,1.6098,1.6743,1.6465,1.6459,1.6686,1.685,0.0,0.0,0.0,0.0,0.0,1.8375,0.0,0.0,0.0,0.0,0.0,0.0,0.0,0.0,1.5046,1.6062,1.6552,1.8484,0.0,0.0,0.0,0.0,0.0,1.9935,1.8161,1.5358,1.3291,1.0474,0.7503,0.4904,0.0,0.0,0.0,0.0,0.0,0.0,0.0,0.0,0.0,0.0,0.0,0.0,0.0,0.0,0.0,0.0,0.0,0.0,0.0,0.0,0.0,0.0,0.0,0.0,2.7139,2.7141,2.7875,2.7891,2.6929,2.4945,2.5666,2.5551,2.4562,2.3712,2.3262,2.3192,2.2209,2.1753,0.0,0.0,0.0,2.2768,2.2697,2.3067,2.3638,2.3458,2.3365,2.3383,2.3476,2.3539,2.3562,0.0,0.0,0.0,0.0,0.0,0.0,0.0,0.0,0.0,0.0,0.0,0.0,0.0,0.0,0.0,0.0,0.0,0.0,0.0,0.0,0.0,0.0,1.2612,1.315,1.3591,1.4401,1.5043,1.5445,1.5433,1.5522,1.5654,1.5639,1.5824,1.6136,1.6163,1.6421,0.0,0.0,0.0,1.7271,1.7332,0.0,0.0,0.0,0.0,0.0,0.0,0.0,0.0,1.8661,1.896,1.9163,1.9745,0.0,0.0,0.0,0.0,0.0,1.9923,1.7994,1.6196,1.8524,1.6785,1.4386,0.0,0.0,0.0,0.0,0.0,0.0,0.0,0.0,0.0,0.0,0.0,0.0,0.0,0.0,0.0,0.0,0.0,0.0,0.0,0.0,0.0,0.0,0.0,0.0,0.0,2.6882,2.6921,2.6996,2.6367,2.5843,2.5476,2.626,2.5774,2.4022,2.441,2.449,2.4232,2.3349,2.2928,0.0,0.0,2.2831,2.3087,2.362,2.3888,2.3917,2.378,2.3714,2.37,2.3611,2.3656,2.3761,0.0,0.0,0.0,0.0,0.0,0.0,0.0,0.0,0.0,0.0,0.0,0.0,0.0,0.0,0.0,0.0,0.0,0.0,0.0,0.0,0.0,0.0,1.1387,1.208,1.2437,1.3014,1.3952,1.5189,1.4764,1.5156,1.6366,1.5965,1.5826,1.5926,1.5811,1.5896,1.6105,0.0,1.6416,1.6632,0.0,0.0,0.0,0.0,0.0,0.0,0.0,0.0,0.0,0.0,1.9335,1.9447,1.9261,0.0,0.0,0.0,0.0,0.0,1.9783,1.9033,1.8336,1.985,1.6735,1.3329,0.0,0.0,0.0,0.0,0.0,0.0,0.0,0.0,0.0,0.0,0.0,0.0,0.0,0.0,0.0,0.0,0.0,0.0,0.0,0.0,0.0,0.0,0.0,0.0,0.0,0.0,2.6235,2.6198,2.585,2.5646,2.5646,2.5948,2.5627,2.4706,2.4828,2.4828,2.4708,2.4097,2.3849,2.383,0.0,2.373,2.3767,2.4082,2.421,2.4211,2.4155,2.4174,2.4229,2.4118,2.4136,2.4192,0.0,0.0,0.0,0.0,0.0,0.0,0.0,0.0,0.0,0.0,0.0,0.0,0.0,0.0,0.0,0.0,0.0,0.0,0.0,0.0,0.9686,0.9469,1.0321,1.1046,1.1531,1.2008,1.3035,1.4611,1.402,1.4633,1.6312,1.5766,1.5521,1.5536,1.5463,1.5433,1.5448,1.5609,1.5809,1.6016,0.0,0.0,0.0,0.0,0.0,0.0,0.0,0.0,0.0,0.0,0.0,0.0,0.0,0.0,0.0,1.8862,1.884,1.8918,1.9628,1.9832,1.9907,1.9993,0.0,0.0,0.0,0.0,0.0,0.0,0.0,0.0,0.0,0.0,0.0,0.0,0.0,0.0,0.0,0.0,0.0,0.0,0.0,0.0,0.0,0.0,0.0,0.0,0.0,0.0,0.0,0.0,2.5691,2.5703,2.5673,2.5685,2.5685,2.5556,2.5474,2.5418,2.513,2.4987,2.4981,2.4697,2.4554,2.4567,2.4505,2.4459,2.4393,2.4426,2.4425,2.4441,2.4491,2.4554,2.4564,2.4514,2.45,2.4522,0.0,0.0,0.0,0.0,0.0,0.0,0.0,0.0,0.0,0.0,0.0,0.0,0.0,0.0,0.0,0.0,0.0,0.0,0.0,0.0,0.9177,0.9056,0.9469,1.0234,1.1372,1.2306,1.2885,1.3166,1.3459,1.3687,1.3765,1.3967,1.4208,1.4533,1.4749,1.5041,1.5329,1.5329,1.5344,1.5404,1.5754,0.0,0.0,0.0,0.0,0.0,0.0,0.0,0.0,0.0,0.0,0.0,0.0,0.0,1.9036,1.9351,1.9221,1.9054,1.9425,1.9521,1.9613,1.9912,0.0,0.0,0.0,0.0,0.0,0.0,0.0,0.0,0.0,0.0,0.0,0.0,0.0,0.0,0.0,0.0,0.0,0.0,0.0,0.0,0.0,0.0,0.0,0.0,0.0,0.0,0.0,0.0,0.0,2.5703,2.5634,2.5608,2.5608,2.5548,2.5493,2.5495,2.534,2.5274,2.5283,2.513,2.505,2.5042,2.485,2.4731,2.4692,2.4804,2.4708,2.4522,2.4771,2.4723,2.4514,2.4498,2.45,2.4505,0.0,0.0,0.0,0.0,0.0,0.0,0.0,0.0,0.0,0.0,0.0,0.0,0.0,0.0,0.0,0.0,0.0,0.0,0.0,0.0,0.8901,0.9096,0.9913,1.0534,1.0905,1.1356,1.2167,1.3253,1.3909,1.402,1.3648,1.3848,1.4032,1.4214,1.4227,1.4452,1.4814,1.4935,1.5102,1.5328,1.5668,1.5898,0.0,0.0,0.0,0.0,0.0,0.0,0.0,0.0,1.8566,1.886,1.9115,1.9097,1.9013,1.9159,1.9146,1.915,1.9292,1.9442,1.9582,1.9669,0.0,0.0,0.0,0.0,0.0,0.0,0.0,0.0,0.0,0.0,0.0,0.0,0.0,0.0,0.0,0.0,0.0,0.0,0.0,0.0,0.0,0.0,0.0,0.0,0.0,0.0,0.0,0.0,0.0,2.5702,2.5681,2.5656,2.5649,2.5604,2.5554,2.556,2.5437,2.536,2.5352,2.5272,2.5216,2.5215,2.5146,2.5046,2.4948,2.4993,2.4968,2.4911,2.5126,2.5107,2.4998,2.4993,2.4993,2.4993,0.0,0.0,0.0,0.0,0.0,0.0,0.0,0.0,0.0,0.0,0.0,0.0,0.0,0.0,0.0,0.0,0.0,0.0,0.0,0.7957,0.8529,0.8805,0.9677,1.0137,1.0176,1.0611,1.1443,1.2759,1.3531,1.3699,1.3297,1.3635,1.3835,1.3868,1.3881,1.4013,1.4292,1.4447,1.4683,1.5025,1.5359,1.561,0.0,0.0,0.0,0.0,0.0,0.0,0.0,0.0,1.8229,1.8489,1.877,1.8807,1.8771,1.893,1.8999,1.9069,1.9152,1.9329,1.9538,0.0,0.0,0.0,0.0,0.0,0.0,0.0,0.0,0.0,0.0,0.0,0.0,0.0,0.0,0.0,0.0,0.0,0.0,0.0,0.0,0.0,0.0,0.0,0.0,0.0,0.0,0.0,0.0,0.0,0.0,0.0,2.5702,2.5702,2.5696,2.5645,2.5636,2.5622,2.5541,2.5471,2.5459,2.5362,2.5348,2.5369,2.5343,2.5236,2.5109,2.5165,2.5184,2.5205,2.5341,2.537,2.5322,2.5322,2.5322,2.5293,0.0,0.0,0.0,0.0,0.0,0.0,0.0,0.0,0.0,0.0,0.0,0.0,0.0,0.0,0.0,0.0,0.0,0.0,0.0,0.7979,0.8021,0.8021,0.8472,0.891,0.9284,1.0137,1.084,1.1308,1.2029,1.2401,1.2413,1.3069,1.3391,1.3391,1.3674,1.3788,1.3788,1.3788,1.3974,1.4319,1.4735,1.5104,1.5448,0.0,0.0,0.0,0.0,0.0,0.0,0.0,1.7794,1.7971,1.8375,1.8373,1.829,1.8753,1.8807,1.8753,1.9033,1.9168,0.0,0.0,0.0,0.0,0.0,0.0,0.0,0.0,0.0,0.0,0.0,0.0,0.0,0.0,0.0,0.0,0.0,0.0,0.0,0.0,0.0,0.0,0.0,0.0,0.0,0.0,0.0,0.0,0.0,0.0,0.0,0.0,2.5693,2.5707,2.5707,2.5707,2.5696,2.5703,2.5696,2.5673,2.5598,2.5465,2.544,2.5508,2.5425,2.5292,2.5119,2.5321,2.5387,2.5387,2.5387,2.5397,2.5398,2.5398,2.5361,2.5303,0.0,0.0,0.0,0.0,0.0,0.0,0.0,0.0,0.0,0.0,0.0,0.0,0.0,0.0,0.0,0.0,0.0,0.0,0.0,0.775,0.817,0.8561,0.8999,0.9319,0.943,1.0069,1.0802,1.1664,1.1884,1.1957,1.1957,1.2174,1.2461,1.2791,1.2861,1.3207,1.3728,1.3728,1.396,1.43,1.4447,1.4686,1.5011,0.0,0.0,0.0,0.0,0.0,0.0,0.0,0.0,0.0,1.818,1.8266,1.8385,1.8565,1.877,1.8931,1.9018,0.0,0.0,0.0,0.0,0.0,0.0,0.0,0.0,0.0,0.0,0.0,0.0,0.0,0.0,0.0,0.0,0.0,0.0,0.0,0.0,0.0,0.0,0.0,0.0,0.0,0.0,0.0,0.0,0.0,0.0,0.0,0.0,0.0,2.5675,2.5701,2.5707,2.5703,2.5702,2.5703,2.57,2.5691,2.5676,2.5623,2.5593,2.5563,2.5551,2.5473,2.5372,2.539,2.5393,2.5393,2.5393,2.5404,2.5404,2.5406,2.5415,2.5423,0.0,0.0,0.0,0.0,0.0,0.0,0.0,0.0,0.0,0.0,0.5524,0.6013,0.0,0.0,0.0,0.619,0.6361,0.0,0.7321,0.7724,0.8177,0.8618,0.9056,0.9448,0.9804,1.0118,1.0659,1.1463,1.159,1.1664,1.17,1.1993,1.2282,1.2544,0.0,1.3035,1.348,1.348,1.3828,1.43,1.43,1.4588,1.5025,0.0,0.0,0.0,0.0,0.0,0.0,0.0,0.0,0.0,1.7772,0.0,1.8246,1.8524,1.8734,1.8985,1.9466,0.0,0.0,0.0,0.0,0.0,0.0,0.0,0.0,0.0,0.0,0.0,0.0,0.0,0.0,0.0,0.0,0.0,0.0,0.0,0.0,0.0,0.0,0.0,0.0,0.0,0.0,0.0,0.0,0.0,0.0,0.0,0.0,0.0,2.5644,2.5665,2.5698,2.5693,2.5698,2.5701,2.5703,2.5702,2.5703,2.5697,2.5687,2.5648,2.5606,2.5578,2.5542,2.5499,2.5485,2.5485,2.5485,2.5485,2.5471,2.5483,2.5503,2.5471,0.0,0.0,0.3034,0.3534,0.0,0.0,0.0,0.0,0.0,0.5048,0.5841,0.6416,0.0,0.0,0.0,0.6829,0.6914,0.7209,0.7829,0.7919,0.8085,0.8373,0.8732,0.9337,1.0157,1.0205,1.0438,1.0853,1.1228,1.1452,1.1479,1.2138,1.2496,1.2567,0.0,1.3129,1.3198,1.3198,1.3607,1.4189,1.4222,1.4637,1.5222,1.5253,0.0,0.0,0.0,0.0,0.0,0.0,0.0,0.0,1.7288,1.7595,1.7975,1.8469,1.868,1.8968,0.0,0.0,0.0,0.0,0.0,0.0,0.0,0.0,0.0,0.0,0.0,0.0,0.0,0.0,0.0,0.0,0.0,0.0,0.0,0.0,0.0,0.0,0.0,0.0,0.0,0.0,0.0,0.0,0.0,0.0,0.0,0.0,0.0,2.5593,2.5598,2.5621,2.5694,2.5696,2.5685,0.0,2.5683,2.5698,2.5683,2.5703,2.5702,2.5682,2.5622,2.559,2.5593,2.5582,2.5585,2.5585,2.56,2.561,2.5595,2.559,2.5546,2.5379,0.0,0.0,0.3034,0.3534,0.0,0.0,0.0,0.0,0.5135,0.548,0.6056,0.6416,0.6416,0.6416,0.0,0.6496,0.6999,0.7377,0.7496,0.8002,0.8332,0.8414,0.8496,0.8773,0.9257,0.9597,0.9991,1.0448,1.0833,1.1023,0.0,0.0,0.0,1.221,0.0,1.265,1.3198,1.3198,1.3301,1.3459,1.3715,1.4111,1.4556,1.4808,1.5056,0.0,0.0,0.0,0.0,0.0,0.0,0.0,1.6917,1.728,1.7704,1.7924,1.8397,1.9057,0.0,0.0,0.0,0.0,0.0,0.0,0.0,0.0,0.0,0.0,0.0,0.0,0.0,0.0,0.0,0.0,0.0,0.0,0.0,0.0,0.0,0.0,0.0,0.0,0.0,0.0,0.0,0.0,0.0,0.0,0.0,0.0,0.0,2.5599,2.559,2.5615,2.562,2.5629,2.5626,0.0,2.5629,2.5619,2.5621,2.5684,2.5668,2.5623,2.5546,2.5522,2.552,2.5517,2.5515,2.5533,2.5583,2.5595,2.5593,2.5603,2.5164,2.4553,0.0,0.0,0.0,0.0,0.0,0.0,0.0,0.0,0.5437,0.5653,0.6099,0.6416,0.6416,0.6416,0.0,0.0,0.6708,0.6999,0.7167,0.7496,0.7912,0.8406,0.861,0.8895,0.9279,0.9509,0.9707,0.9952,0.0,0.0,0.0,0.0,0.0,1.1811,0.0,1.2389,1.2896,1.2896,1.3104,1.3459,1.3648,1.4046,1.4556,1.4746,1.4994,1.5313,1.5313,0.0,0.0,0.0,0.0,0.0,0.0,0.0,1.7342,1.7732,1.8118,1.8741,0.0,0.0,0.0,0.0,0.0,0.0,0.0,0.0,0.0,0.0,0.0,0.0,0.0,0.0,0.0,0.0,0.0,0.0,0.0,0.0,0.0,0.0,0.0,0.0,0.0,0.0,0.0,0.0,0.0,0.0,0.0,2.5503,2.549,2.5498,2.5511,2.5525,2.5538,2.556,2.5571,2.5599,2.5595,2.557,2.5549,2.5624,2.541,2.5002,2.5375,2.5305,2.4954,2.5388,2.5546,2.5546,2.5586,2.5351,2.5077,2.5467,2.48,2.3722,0.0,0.0,0.0,0.0,0.0,0.0,0.0,0.0,0.0,0.5787,0.6099,0.6367,0.6416,0.6416,0.6416,0.0,0.0,0.0,0.6872,0.6999,0.7496,0.8439,0.8732,0.9047,0.939,0.9469,0.9509,0.0,0.0,0.0,0.0,0.0,0.0,1.1404,0.0,1.221,1.2603,1.2603,1.2988,1.3615,1.3682,1.4078,1.4606,1.4683,1.4932,1.5222,1.5238,1.5344,1.5507,1.5507,0.0,0.0,0.0,0.0,1.696,1.7528,1.7776,1.828,0.0,0.0,0.0,0.0,0.0,0.0,0.0,0.0,0.0,0.0,0.0,0.0,0.0,0.0,0.0,0.0,0.0,0.0,0.0,0.0,0.0,0.0,0.0,0.0,0.0,0.0,0.0,0.0,0.0,0.0,2.5395,2.5415,2.5432,2.5429,2.5401,2.5418,2.5476,2.5476,2.5499,2.5561,2.5412,2.5239,2.5047,2.511,2.4833,2.4344,2.5065,2.4966,2.4366,2.5236,2.5595,2.5595,2.5598,2.5098,2.4459,2.5143,2.4326,2.2887,0.0,0.0,0.0,0.0,0.0,0.0,0.0,0.0,0.0,0.0,0.6153,0.6153,0.6373,0.6416,0.6416,0.6416,0.6666,0.6829,0.6914,0.0,0.0,0.8414,0.8455,0.8496,0.857,0.8895,0.9096,0.0,0.0,0.0,0.0,0.0,0.0,1.0992,0.0,0.0,1.2603,1.2603,1.2861,1.3301,1.3581,1.3749,1.3868,1.4222,1.4588,1.4856,1.4921,1.5195,1.5507,1.558,1.5755,0.0,0.0,0.0,0.0,1.6876,1.7223,0.0,0.0,0.0,0.0,0.0,0.0,0.0,0.0,0.0,0.0,0.0,0.0,0.0,0.0,0.0,0.0,0.0,0.0,0.0,0.0,0.0,0.0,0.0,0.0,0.0,0.0,0.0,0.0,0.0,0.0,0.0,2.5393,2.5456,2.5484,2.5484,2.5429,2.5401,2.541,2.5412,2.5423,2.5415,2.4662,2.3925,2.3248,2.3255,2.3638,2.4315,2.4416,2.4402,2.4369,2.5229,2.5604,2.5609,2.5595,2.5079,2.4323,2.4495,2.3449,2.1971,0.0,0.0,0.0,0.0,0.0,0.0,0.0,0.0,0.0,0.0,0.0,0.6282,0.6367,0.6416,0.6416,0.6416,0.6708,0.6999,0.7167,0.7628,0.7953,0.8126,0.8291,0.8414,0.8414,0.8781,0.8898,0.0,0.0,0.0,0.0,1.0383,1.0696,0.0,0.0,0.0,0.0,1.2413,1.2708,1.2896,1.3288,1.3581,1.3835,1.4013,1.4305,1.4641,1.4672,1.4814,1.5043,1.5255,1.5418,1.561,1.587,0.0,0.0,0.0,0.0,0.0,0.0,0.0,0.0,0.0,0.0,0.0,0.0,0.0,0.0,0.0,0.0,0.0,0.0,0.0,0.0,0.0,0.0,0.0,0.0,0.0,0.0,0.0,0.0,0.0,0.0,0.0,0.0,0.0,0.0,2.5284,2.5284,2.5313,2.5341,2.5398,2.5361,2.536,2.5406,2.5397,2.5119,2.4553,2.412,2.3506,2.2717,2.228,2.2357,2.2906,2.3882,2.4018,2.3675,2.5039,2.5317,2.4871,2.4874,2.4049,2.2902,2.3422,2.2546,2.1146,0.0,0.0,0.0,0.0,0.0,0.0,0.0,0.0,0.0,0.0,0.0,0.6325,0.6416,0.0,0.0,0.0,0.6575,0.6829,0.716,0.7412,0.7663,0.787,0.8211,0.8425,0.8508,0.8944,0.0,0.0,0.0,0.0,0.9763,1.0529,1.0934,0.0,1.1394,0.0,0.0,0.0,0.0,1.2708,1.2978,1.3391,1.3802,0.0,0.0,0.0,0.0,1.4501,1.4627,1.4921,1.5088,1.5239,1.558,1.5755,0.0,0.0,0.0,0.0,0.0,0.0,0.0,0.0,0.0,0.0,0.0,0.0,0.0,0.0,0.0,0.0,0.0,0.0,0.0,0.0,0.0,0.0,0.0,0.0,0.0,0.0,0.0,0.0,0.0,0.0,0.0,0.0,0.0,2.5212,2.5179,2.5171,2.519,2.5198,2.5198,2.522,2.5273,2.5061,2.4378,2.3214,2.3163,2.2713,2.1911,2.1321,2.1139,2.1385,2.2907,2.3197,2.272,2.4244,2.4483,2.3928,2.3928,2.3009,2.1779,2.243,2.175,2.059,0.0,0.0,0.0,0.0,0.0,0.0,0.0,0.0,0.0,0.0,0.0,0.611,0.6373,0.6416,0.6416,0.6416,0.6196,0.619,0.652,0.6562,0.6985,0.787,0.822,0.0,0.8874,0.0,0.0,0.0,0.0,0.0,1.0078,1.0825,1.1168,1.1206,1.1669,1.1828,1.1774,0.0,0.0,0.0,1.2838,1.3104,0.0,0.0,0.0,0.0,0.0,0.0,0.0,1.4763,1.4825,1.4856,1.4982,0.0,0.0,0.0,0.0,0.0,0.0,0.0,0.0,0.0,0.0,0.0,0.0,0.0,0.0,0.0,0.0,0.0,0.0,0.0,0.0,0.0,0.0,0.0,0.0,0.0,0.0,0.0,0.0,0.0,0.0,0.0,0.0,0.0,0.0,2.5239,2.5106,2.5111,2.5056,2.4929,2.4929,2.4929,2.4929,2.4164,2.2961,2.1335,2.1335,2.0921,2.0125,2.0087,2.0098,2.0231,2.1146,2.1537,2.1556,2.2468,2.2859,2.2882,2.2875,2.239,2.17,2.1743,2.1235,2.0507,0.0,0.0,0.0,0.0,0.0,0.0,0.0,0.0,0.0,0.0,0.0,0.0,0.0,0.6416,0.6416,0.6416,0.6702,0.7034,0.737,0.7614,0.787,0.8209,0.8325,0.8539,0.8897,0.0,0.0,0.0,0.0,1.0554,1.0522,1.1254,1.1541,1.1452,1.173,1.1691,1.1437,1.192,0.0,0.0,1.2685,1.3012,0.0,0.0,0.0,0.0,0.0,0.0,0.0,0.0,0.0,0.0,0.0,0.0,0.0,0.0,0.0,0.0,0.0,0.0,0.0,0.0,0.0,0.0,0.0,0.0,0.0,0.0,0.0,0.0,0.0,0.0,0.0,0.0,0.0,0.0,0.0,0.0,0.0,0.0,0.0,0.0,0.0,0.0,0.0,0.0,0.0,0.0,2.4974,2.4968,2.4955,2.4902,2.4902,2.4902,2.4902,2.4521,2.3498,2.1834,2.1811,2.1084,1.9818,1.9804,1.9847,1.9919,2.0236,2.0762,2.1474,2.2345,2.2374,2.1903,2.19,2.1405,2.0662,2.0677,2.0492,2.0248,0.0,0.0,0.0,0.0,0.0,0.0,0.0,0.0,0.0,0.0,0.0,0.0,0.0,0.0,0.6373,0.6282,0.666,0.7034,0.7245,0.7447,0.7704,0.787,0.8025,0.8364,0.9012,0.0,0.0,0.0,0.0,0.0,0.0,1.1214,1.1491,1.1402,1.1594,1.1538,0.0,0.0,0.0,1.1957,0.0,1.2971,1.3473,0.0,0.0,0.0,0.0,0.0,0.0,0.0,0.0,0.0,0.0,0.0,0.0,0.0,0.0,0.0,0.0,0.0,0.0,0.0,0.0,0.0,0.0,0.0,0.0,0.0,0.0,0.0,0.0,0.0,0.0,0.0,0.0,0.0,0.0,0.0,0.0,0.0,0.0,0.0,0.0,0.0,0.0,0.0,0.0,0.0,2.4851,2.4832,2.4804,2.4779,2.4482,2.4199,2.3931,2.357,2.2701,2.133,2.1268,2.0713,1.9673,1.9681,1.9707,1.977,1.977,2.0174,2.0915,2.1499,2.1395,2.0899,2.091,2.0565,2.0067,2.0095,2.0112,2.0137,0.0,0.0,0.0,0.0,0.0,0.0,0.0,0.0,0.0,0.0,0.0,0.0,0.0,0.0,0.0,0.6019,0.6019,0.6019,0.6019,0.6019,0.6319,0.6914,0.724,0.8018,0.9282,0.0,0.0,0.0,0.0,0.0,0.0,0.0,1.1008,1.1019,1.1351,1.1485,1.1485,0.0,1.1671,1.21,0.0,1.2987,1.411,0.0,0.0,0.0,1.5652,1.5689,0.0,0.0,0.0,0.0,0.0,0.0,0.0,0.0,0.0,0.0,0.0,0.0,0.0,0.0,0.0,0.0,0.0,0.0,0.0,0.0,0.0,0.0,0.0,0.0,0.0,0.0,0.0,0.0,0.0,0.0,0.0,0.0,0.0,0.0,0.0,0.0,0.0,0.0,0.0,2.4832,2.4707,2.4692,2.4629,2.45,2.3665,2.2831,2.2033,2.1235,2.0418,1.9639,1.9639,1.9629,1.9614,1.9614,1.9628,1.9686,1.9686,1.9744,1.9795,1.9795,1.9844,1.9896,1.9904,1.9941,2.0003,2.0069,2.0122,2.018,0.0,0.0,0.0,0.0,0.0,0.0,0.0,0.0,0.0,0.0,0.0,0.0,0.0,0.0,0.0,0.6282,0.6496,0.666,0.666,0.6865,0.7202,0.7628,0.7932,0.861,0.9636,0.0,0.0,0.0,0.0,0.0,0.0,0.0,0.0,0.0,1.1448,1.1485,1.1485,1.1485,0.0,0.0,1.273,1.335,0.0,0.0,0.0,0.0,0.0,1.5465,0.0,0.0,1.5291,1.4507,0.0,0.0,0.0,0.0,0.0,0.0,1.6876,0.0,0.0,0.0,0.0,0.0,0.0,0.0,0.0,0.0,0.0,0.0,0.0,0.0,0.0,0.0,0.0,0.0,0.0,0.0,0.0,0.0,0.0,0.0,0.0,0.0,0.0,0.0,2.4613,2.458,2.4549,2.4568,2.4551,2.45,2.3665,2.3091,2.2868,2.207,2.1254,2.0474,2.0474,2.0168,1.9614,1.9614,1.9628,1.9686,1.9686,1.9712,1.9745,1.9745,1.9738,1.9751,1.9806,1.983,1.9866,1.9877,1.9934,2.0074,0.0,0.0,0.0,0.0,0.0,0.0,0.0,0.0,0.0,0.0,0.0,0.0,0.0,0.0,0.0,0.658,0.6855,0.7045,0.709,0.7313,0.7534,0.7755,0.7982,0.85,0.9439,0.0,0.0,0.0,0.0,0.0,0.0,0.0,0.0,0.0,1.1201,0.0,0.0,0.0,0.0,0.0,1.2896,0.0,0.0,1.4783,1.5246,0.0,0.0,0.0,1.5648,1.6059,1.5452,0.0,0.0,0.0,0.0,0.0,0.0,0.0,0.0,0.0,0.0,0.0,0.0,0.0,2.0065,2.1011,2.1982,0.0,0.0,0.0,0.0,0.0,0.0,0.0,0.0,0.0,0.0,0.0,0.0,0.0,0.0,0.0,0.0,0.0,0.0,2.45,2.45,2.45,2.45,2.45,2.45,2.45,2.3665,2.3203,2.3203,2.2404,2.1755,2.1291,2.1213,2.0754,1.997,1.9896,1.9696,1.9394,1.9394,1.9438,1.9481,1.9476,1.9591,1.9745,1.9776,1.9807,1.9845,2.0183,2.0358,2.0566,0.0,0.0,0.4152,0.4276,0.428,0.0,0.0,0.0,0.0,0.0,0.0,0.0,0.0,0.0,0.0,0.0,0.7113,0.7296,0.7433,0.7433,0.7481,0.7643,0.7669,0.8138,0.9138,0.966,0.0,0.0,0.0,0.0,0.0,0.0,0.0,0.0,1.0784,1.0916,0.0,0.0,0.0,1.1892,1.2913,1.3736,0.0,0.0,1.5885,0.0,1.6595,1.6595,1.6549,1.61,1.5441,0.0,0.0,0.0,0.0,0.0,1.6019,0.0,0.0,0.0,0.0,0.0,0.0,0.0,1.91,2.0079,2.104,0.0,0.0,0.0,0.0,0.0,0.0,0.0,0.0,0.0,0.0,0.0,0.0,0.0,0.0,0.0,0.0,2.45,2.45,2.45,2.45,2.45,2.45,2.45,2.4482,2.4465,2.3631,2.3169,2.3117,2.2321,2.1877,2.1803,2.1619,2.1111,2.0338,2.0154,1.9668,1.9014,1.9014,1.9066,1.9184,1.9196,1.9409,1.9757,1.977,1.9807,1.9976,2.0714,2.1105,2.1422,0.3836,0.402,0.4108,0.4152,0.0,0.0,0.0,0.0,0.0,0.0,0.0,0.0,0.0,0.0,0.0,0.0,0.0,0.7433,0.7541,0.744,0.7576,0.797,0.8247,0.894,1.0011,1.0458,1.1022,0.0,0.0,0.0,0.0,0.0,0.0,0.0,1.1015,1.0916,0.0,0.0,0.0,1.1988,1.3376,0.0,1.4875,1.5605,1.599,1.6076,1.612,1.6088,1.5928,0.0,1.5716,1.5802,0.0,0.0,0.0,0.0,0.0,0.0,0.0,0.0,0.0,0.0,0.0,0.0,1.8531,1.912,1.9784,0.0,0.0,0.0,0.0,0.0,0.0,0.0,0.0,0.0,0.0,0.0,0.0,0.0,0.0,0.0,0.0,2.45,2.45,2.45,2.45,2.45,2.45,2.45,2.4411,2.4173,2.3382,2.2887,2.2716,2.1879,2.1152,2.0553,2.0517,2.0082,1.9282,1.925,1.9142,1.9014,1.9014,1.9048,1.9115,1.9132,1.9261,1.9479,1.9471,1.9874,2.0485,2.0732,2.1302,2.2065,0.4012,0.4144,0.428,0.4495,0.0,0.0,0.0,0.0,0.0,0.0,0.0,0.0,0.0,0.0,0.0,0.0,0.0,0.0,0.0,0.0,0.815,0.8414,0.8606,0.8987,0.9532,1.0003,1.0359,1.0532,0.0,0.0,0.0,0.0,0.0,0.0,0.0,0.0,0.0,0.0,1.1828,1.2238,1.3666,0.0,1.4836,1.5752,1.61,1.61,1.61,1.6001,1.5828,1.5465,1.557,0.0,0.0,1.5745,1.6198,0.0,1.679,1.7371,0.0,0.0,0.0,1.708,0.0,0.0,0.0,1.8269,1.8983,0.0,0.0,0.0,0.0,0.0,0.0,0.0,0.0,0.0,0.0,0.0,0.0,0.0,0.0,0.0,0.0,2.4498,2.4446,2.4321,2.4303,2.4266,2.4154,2.4154,2.4096,2.3941,2.3576,2.3299,2.3216,2.2779,2.2363,2.2001,2.1486,2.0836,2.0028,1.9558,1.9145,1.8753,1.8753,1.8789,1.8842,1.8842,1.8966,1.9139,1.965,2.0101,2.0558,2.1498,2.2152,2.2696,0.4276,0.4316,0.4403,0.4792,0.0,0.0,0.0,0.0,0.0,0.0,0.0,0.0,0.0,0.0,0.0,0.0,0.0,0.0,0.0,0.0,0.0,0.8804,0.8804,0.8857,0.8956,0.9361,0.949,0.9283,0.0,0.0,0.0,0.0,0.0,0.0,0.0,0.0,0.0,0.0,0.0,1.2494,0.0,1.4413,1.4688,1.5714,1.6083,1.6096,1.6163,1.6144,1.6015,1.5532,0.0,1.5575,1.5264,1.5685,0.0,0.0,0.0,0.0,0.0,0.0,0.0,0.0,0.0,1.7765,0.0,0.0,0.0,1.9409,0.0,0.0,0.0,0.0,0.0,0.0,0.0,0.0,0.0,0.0,0.0,0.0,0.0,0.0,0.0,2.4375,2.4284,2.4058,2.404,2.3979,2.3816,2.3795,2.3774,2.3732,2.3732,2.371,2.3667,2.3667,2.3523,2.322,2.24,2.1512,2.0568,1.9817,1.9099,1.8485,1.8485,1.8544,1.8584,1.8584,1.8641,1.8841,1.9831,2.0318,2.068,2.2283,2.3015,2.3308,0.4316,0.4316,0.432,0.436,0.0,0.0,0.0,0.0,0.0,0.0,0.0,0.0,0.0,0.0,0.0,0.0,0.0,0.0,0.8908,0.0,0.0,0.0,0.8804,0.9008,0.951,0.9562,0.9858,1.0442,0.0,0.0,0.0,0.0,0.0,0.0,1.1548,0.0,0.0,0.0,1.2425,0.0,1.3604,1.4234,0.0,1.5323,1.56,1.562,1.6071,1.6275,1.6293,0.0,1.6003,1.6176,0.0,1.6715,0.0,0.0,0.0,0.0,0.0,0.0,0.0,0.0,1.7914,0.0,0.0,0.0,1.9082,1.9378,0.0,0.0,0.0,0.0,0.0,0.0,0.0,0.0,0.0,0.0,0.0,0.0,0.0,0.0,0.0,0.0,2.3858,2.3837,2.3837,2.3816,2.3795,2.3795,2.371,2.3531,2.3531,2.3435,2.3175,2.3175,2.2494,2.1141,2.1009,2.0217,1.879,1.868,1.8573,1.8485,1.8485,1.8505,1.8505,1.8505,1.8524,1.8632,1.9589,2.0438,2.1309,2.2333,2.3249,2.4004,0.4316,0.4316,0.4403,0.4661,0.0,0.0,0.0,0.0,0.0,0.0,0.0,0.0,0.0,0.0,0.0,0.0,0.0,0.8748,0.0,0.0,0.0,0.0,0.0,0.0,0.9106,0.9159,0.9316,0.9681,1.0079,0.0,0.0,0.0,0.0,0.0,1.1738,0.0,1.1877,0.0,0.0,0.0,0.0,0.0,0.0,1.4737,1.5019,1.5294,1.5441,1.5905,1.6349,0.0,1.5957,0.0,0.0,0.0,0.0,0.0,0.0,0.0,0.0,0.0,0.0,0.0,0.0,0.0,0.0,0.0,1.8773,0.0,0.0,0.0,0.0,0.0,0.0,0.0,0.0,0.0,0.0,0.0,0.0,0.0,0.0,0.0,0.0,0.0,0.0,0.0,2.3642,2.3553,2.3417,2.3394,2.3348,2.3271,2.3271,2.3199,2.3095,2.3095,2.2786,2.2119,2.1246,2.0473,1.9805,1.8926,1.8485,1.8485,1.8485,1.8485,1.8485,1.8485,1.8788,1.9343,2.0203,2.0782,2.1289,2.2751,2.3521,2.3873,0.441,0.0,0.0,0.0,0.0,0.0,0.0,0.0,0.0,0.0,0.0,0.0,0.891,0.8817,0.0,0.0,0.0,0.8882,0.0,0.0,0.9008,0.0,0.0,0.0,0.0,0.8804,0.891,0.9061,0.9562,0.9941,0.0,0.0,0.0,0.0,0.0,1.2039,1.2282,0.0,0.0,1.3499,1.3896,1.4033,1.3905,1.4252,1.4669,1.5102,1.5163,1.5648,1.6207,1.5901,1.5913,0.0,1.6349,0.0,0.0,0.0,0.0,0.0,1.7828,0.0,0.0,0.0,0.0,0.0,0.0,0.0,0.0,0.0,0.0,0.0,0.0,0.0,0.0,0.0,0.0,0.0,0.0,0.0,0.0,0.0,0.0,0.0,0.0,0.0,0.0,2.3412,2.3389,2.3295,2.3119,2.3095,2.3095,2.3095,2.3095,2.3095,2.3095,2.3095,2.3014,2.2803,2.1645,2.1018,2.0771,1.9647,1.9137,1.9117,1.8866,1.8758,1.874,1.8679,1.9073,1.9794,2.0823,2.1255,2.1501,2.3109,2.3721,2.3725,0.4755,0.4606,0.0,0.0,0.0,0.0,0.0,0.0,0.0,0.0,0.0,0.0,0.0,0.0,0.0,0.0,0.0,0.9496,0.9399,0.0,0.9211,0.0,0.0,0.8857,0.0,0.0,0.891,0.9211,0.9211,0.9354,0.0,0.0,0.0,0.0,0.0,1.255,1.3178,1.3294,1.3542,1.38,1.381,1.363,1.3397,0.0,1.4596,1.5067,1.5584,0.0,0.0,1.625,1.6032,0.0,0.0,0.0,0.0,0.0,0.0,0.0,0.0,0.0,0.0,1.8277,0.0,0.0,0.0,0.0,1.9615,0.0,0.0,0.0,0.0,0.0,0.0,0.0,0.0,0.0,0.0,0.0,0.0,0.0,0.0,0.0,0.0,0.0,0.0,2.3102,2.3102,2.3119,2.3095,2.3095,2.3095,2.3095,2.3095,2.3095,2.3095,2.3095,2.2751,2.2013,2.2002,2.1562,2.0807,2.0754,2.0736,2.0662,1.9769,1.9369,1.9369,1.9155,1.9195,1.9564,2.1156,2.1896,2.2207,2.3307,2.3747,2.3795,0.0,0.0,0.0,0.0,0.0,0.0,0.0,0.6349,0.0,0.0,0.0,0.0,0.0,0.0,0.8942,0.0,0.0,0.9047,0.9361,0.9361,0.0,0.0,0.0,0.8956,0.0,0.0,0.8903,0.9211,0.9562,0.9873,1.0138,0.0,0.0,0.0,0.0,1.207,0.0,0.0,0.0,0.0,0.0,1.382,1.3641,0.0,0.0,1.4275,1.4292,1.4753,0.0,1.5142,1.5232,1.5445,1.5623,1.5988,1.6318,1.6405,1.6748,0.0,0.0,0.0,1.7639,1.7828,0.0,0.0,0.0,0.0,0.0,0.0,0.0,0.0,0.0,0.0,0.0,0.0,0.0,0.0,0.0,0.0,0.0,0.0,0.0,0.0,0.0,0.0,0.0,2.2893,2.3003,2.3095,0.0,2.3095,2.3095,2.3095,2.3095,2.3095,2.3095,2.3095,2.2923,2.2519,2.1997,2.1264,2.0401,2.0418,2.0142,1.9642,1.9333,1.9476,1.9904,1.9343,1.9843,2.1028,2.1598,2.2312,2.3079,2.3432,2.3589,2.3616,0.5251,0.0,0.0,0.0,0.0,0.0,0.0,0.0,0.0,0.0,0.8408,0.0,0.9159,0.0,0.8837,0.0,0.904,0.904,0.9197,0.9309,0.0,0.9361,0.9159,0.0,0.0,0.0,0.9061,0.9256,0.9614,0.9925,1.0138,0.0,0.0,0.0,0.0,0.0,0.0,0.0,1.3314,0.0,0.0,1.4104,0.0,0.0,1.3993,1.4094,0.0,1.4316,1.488,1.4834,1.4869,1.504,1.5311,1.568,1.6013,1.6044,1.6262,1.6509,1.6436,1.6552,0.0,1.7173,1.7421,0.0,1.8277,0.0,0.0,0.0,0.0,0.0,0.0,0.0,0.0,0.0,0.0,0.0,0.0,2.0759,0.0,0.0,0.0,0.0,0.0,0.0,2.2842,2.2893,2.3045,2.3095,0.0,0.0,2.307,2.2995,2.2977,2.297,2.2893,2.2893,2.2816,2.2685,2.2169,2.1593,2.1028,2.102,2.0764,2.0294,1.9923,2.0051,2.0433,1.9891,2.0398,2.1539,2.1798,2.2407,2.3168,2.3407,2.3539,2.3567,0.5756,0.0,0.0,0.0,0.5059,0.0,0.0,0.0,0.6624,0.0,0.7777,0.8249,0.9099,0.9211,0.9099,0.883,0.9249,0.0,0.883,0.9145,0.0,0.0,0.9309,0.9263,0.9413,0.0,0.0,0.0,0.9413,0.9465,0.9614,0.0,0.0,0.0,1.0506,0.0,1.2365,1.2764,1.3314,1.3962,1.4244,1.4326,1.4326,1.4176,1.4269,1.4455,1.4617,1.4582,1.4593,1.5187,1.5006,1.4593,1.5322,1.5546,1.5579,1.5712,1.5788,1.5788,1.5623,1.5712,1.5932,1.638,0.0,0.0,0.0,0.0,1.8198,0.0,0.0,0.0,0.0,0.0,0.0,0.0,0.0,0.0,0.0,0.0,0.0,0.0,0.0,0.0,0.0,2.2893,2.285,2.307,2.3095,0.0,0.0,0.0,2.2977,2.279,2.279,2.2685,2.2515,2.2515,2.2487,2.247,2.247,2.247,2.2392,2.247,2.247,2.2358,2.1393,2.1009,2.1015,2.0772,2.0844,2.1137,2.1827,2.2271,2.2579,2.3217,2.3544,2.3656,0.5941,0.5852,0.5756,0.0,0.5729,0.5659,0.0,0.0,0.0,0.0,0.8049,0.8791,0.9309,0.8995,0.889,0.9197,0.8771,0.0,0.0,0.0,0.0,0.8981,0.9204,0.9361,0.9413,0.9263,0.0,0.9413,0.9413,0.9465,0.9614,0.0,0.0,0.0,0.0,0.0,1.1366,1.1765,1.2511,1.3409,1.3457,1.3457,0.0,0.0,1.3457,1.3447,1.3988,1.415,1.415,1.4337,1.4326,1.4316,1.4501,1.4869,1.5244,1.5277,1.5534,1.5788,1.5744,1.5964,1.6194,1.6275,1.6479,1.6808,0.0,0.0,0.0,0.0,0.0,0.0,0.0,0.0,0.0,0.0,0.0,0.0,0.0,0.0,0.0,0.0,0.0,0.0,0.0,2.2426,2.2605,2.2659,2.279,0.0,0.0,0.0,0.0,2.2579,2.2596,2.2569,2.2515,2.2515,2.2415,2.2198,2.2198,2.1827,2.1184,2.1723,2.1673,2.1167,2.0883,2.1088,2.1553,2.0948,2.1128,2.1844,2.2029,2.2281,2.2596,2.2764,2.2919,2.3028,0.6059,0.0,0.0,0.6154,0.0,0.0,0.6168,0.0,0.0,0.7187,0.7783,0.0,0.8771,0.8626,0.8573,0.8823,0.8567,0.0,0.0,0.0,0.0,0.9204,0.9413,0.9465,0.9465,0.9413,0.0,0.9465,0.0,0.0,0.9614,0.0,0.0,0.0,0.0,1.0293,0.0,1.1715,1.2414,1.3064,1.316,0.0,0.0,1.316,1.316,1.316,1.3515,1.361,1.3621,1.3821,1.3905,1.3988,1.4222,1.4512,1.4789,1.4789,1.5051,1.5311,1.5311,1.5534,1.5844,1.6044,1.625,1.6466,1.682,1.6863,1.6947,0.0,0.0,0.0,0.0,0.0,0.0,0.0,0.0,0.0,0.0,0.0,0.0,0.0,0.0,0.0,0.0,0.0,0.0,0.0,0.0,0.0,0.0,0.0,0.0,2.2343,2.2343,2.2287,2.2175,2.2175,2.2118,2.1969,2.1969,2.1695,2.1168,2.1599,2.1566,2.1168,2.1168,2.1416,2.1764,2.1334,2.1487,2.1969,2.1969,2.2084,2.226,2.2287,2.2535,2.2868,0.0,0.0,0.0,0.0,0.0,0.0,0.0,0.6756,0.0,0.7139,0.0,0.7729,0.8131,0.8309,0.8362,0.8184,0.0,0.8639,0.8468,0.8837,0.9211,0.9532,0.9569,0.9562,0.9562,0.9562,0.0,0.0,0.0,0.0,0.0,0.0,0.0,0.0,0.0,0.0,0.0,1.1981,1.2521,0.0,1.2967,1.3074,1.3074,1.3074,1.3074,1.3074,1.3074,1.3016,1.3112,1.3563,1.3621,1.361,1.4093,1.428,1.4337,1.4373,1.4512,1.4708,1.4754,1.4971,1.5289,1.5812,1.5944,1.6076,1.6539,1.6625,1.6667,1.6723,1.6765,1.6964,0.0,0.0,0.0,0.0,0.0,0.0,0.0,0.0,0.0,0.0,0.0,0.0,0.0,0.0,0.0,0.0,0.0,0.0,0.0,0.0,0.0,2.2068,2.2068,2.1969,2.1797,0.0,2.1797,2.1797,2.1797,2.1797,2.1797,2.1797,2.1797,2.1797,2.1797,2.1797,2.1797,2.1797,2.1797,2.1797,2.1811,2.1811,2.1811,2.1899,2.2298,2.2816,0.0,0.0,0.0,0.0,0.0,0.6756,0.6977,0.7192,0.7354,0.7413,0.7681,0.8002,0.8468,0.8521,0.8573,0.8514,0.8349,0.0,0.0,0.0,0.0,0.8249,0.8988,0.9413,0.9413,0.919,0.9302,0.0,0.0,0.0,0.0,0.0,0.0,0.0,0.0,0.0,1.1217,1.1418,0.0,1.2215,1.2264,1.2264,1.2264,1.2264,1.2264,1.2264,1.2264,1.2647,1.317,1.3266,1.3266,1.3314,1.3362,1.3658,1.3962,1.4176,1.4466,1.4743,1.4971,1.5244,1.5468,1.5558,1.5691,1.5913,1.6281,1.6355,1.6454,1.6778,1.7073,1.7352,1.7639,0.0,0.0,0.0,0.0,0.0,0.0,0.0,0.0,0.0,0.0,0.0,0.0,0.0,0.0,0.0,0.0,0.0,0.0,0.0,0.0,0.0,2.184,0.0,0.0,0.0,2.1797,2.1797,2.1797,2.1797,2.1797,2.1797,2.1797,2.1797,2.1797,2.1797,2.1797,2.1797,2.1797,2.1827,2.1869,2.1899,2.1899,2.2094,2.2225,2.2293,0.0,0.0,0.0,0.0,0.0,0.0,0.0,0.7354,0.0,0.7521,0.7628,0.7788,0.7996,0.8156,0.8215,0.8215,0.8103,0.8043,0.8043,0.815,0.8256,0.8468,0.8844,0.0,0.9113,0.8949,0.9106,0.948,0.0,0.0,0.0,0.0,0.0,0.0,0.0,1.0616,0.0,0.0,0.0,1.1877,1.2026,1.2076,1.2076,1.2076,1.2076,1.2076,1.2076,1.2314,1.2647,1.2852,1.2949,1.2997,1.317,1.3362,1.3658,1.4082,1.4455,1.4777,1.5198,1.5468,1.5659,1.5659,1.5748,1.5836,1.5988,1.6032,1.6076,1.6306,1.6479,1.6765,1.7352,1.7948,0.0,0.0,0.0,0.0,0.0,0.0,0.0,0.0,0.0,0.0,0.0,0.0,0.0,0.0,0.0,0.0,0.0,0.0,0.0,0.0,0.0,0.0,0.0,0.0,0.0,2.1797,2.1797,2.1797,2.1797,2.1797,2.1797,2.1797,2.1797,2.1797,2.1797,2.1797,2.1797,2.1827,2.1869,2.1899,2.1978,2.253,2.271,2.266,0.0,0.6109,0.0,0.0,0.6718,0.0,0.6668,0.7241,0.7681,0.7574,0.7574,0.7574,0.7574,0.7788,0.7901,0.7901,0.7901,0.8055,0.8415,0.8368,0.8427,0.8745,0.8745,0.8752,0.8752,0.8692,0.8798,0.0,0.0,0.0,0.0,0.0,0.0,0.0,0.0,0.0,0.0,0.0,1.1719,1.1778,1.2026,1.2076,1.2076,1.2076,1.2076,1.2076,1.2076,1.2076,1.2126,1.248,1.2578,1.2676,1.2939,1.317,1.3409,1.3884,1.4305,1.4663,1.5277,1.5513,1.5659,1.5792,1.5792,1.5792,1.5792,1.5792,1.5792,1.5792,1.5881,1.6175,1.7031,1.7557,0.0,0.0,0.0,0.0,0.0,0.0,0.0,0.0,0.0,0.0,0.0,0.0,0.0,0.0,0.0,0.0,0.0,0.0,0.0,0.0,0.0,2.1797,2.1797,0.0,2.1797,2.1797,2.1797,2.1797,2.1797,2.1797,2.1797,2.1797,2.1797,2.1768,2.1721,2.1781,2.1781,2.1751,2.1853,2.1911,2.1995,2.2718,2.3083,2.3164,0.0,0.0,0.0,0.0,0.0,0.0,0.6539,0.6918,0.7354,0.7788,0.7848,0.7848,0.7848,0.7901,0.7901,0.7901,0.7901,0.7901,0.7955,0.7955,0.7955,0.8008,0.8421,0.8626,0.8626,0.8296,0.8455,0.0,0.0,0.0,0.0,0.0,0.0,0.0,0.0,0.0,0.0,1.1678,1.1828,1.2076,1.2076,1.2076,1.2076,1.2076,1.2076,1.2076,1.2076,1.2076,1.2126,1.2126,1.2224,1.2323,1.2372,1.2696,1.3112,1.3409,1.3742,1.4201,1.4915,1.5153,1.5289,1.5703,1.5792,1.5792,1.5792,1.5792,1.5792,1.5792,1.6032,1.6454,1.706,1.7297,1.7558,0.0,0.0,0.0,0.0,0.0,0.0,0.0,0.0,0.0,0.0,0.0,0.0,0.0,0.0,0.0,0.0,0.0,0.0,2.1797,0.0,2.1797,2.1797,2.1797,2.1797,2.1797,2.1797,2.1797,2.1797,2.1797,2.1797,2.1797,2.1797,2.1661,2.1448,2.1781,2.1735,2.1554,2.1866,2.1998,2.2015,2.2207,2.2736,2.3274,0.0,0.0,0.0,0.0,0.0,0.0,0.0,0.6263,0.6642,0.6864,0.7461,0.7901,0.7901,0.7901,0.7901,0.7901,0.7901,0.7901,0.7901,0.7901,0.7901,0.7901,0.8055,0.8162,0.8162,0.8049,0.8203,0.0,0.0,0.0,0.0,0.0,0.0,0.0,0.0,1.0387,1.0685,1.0838,1.099,1.1091,1.146,1.1628,1.1669,1.1977,1.2076,1.2076,1.2076,1.2076,1.2076,1.2076,1.2175,1.2274,1.2274,1.252,1.29,1.3276,1.3563,1.3894,1.4444,1.4628,1.4674,1.4858,1.5142,1.5379,1.5379,1.5614,1.5792,1.5792,1.5913,1.612,1.6582,1.6866,1.716,0.0,0.0,0.0,0.0,0.0,0.0,0.0,0.0,0.0,0.0,0.0,0.0,0.0,0.0,0.0,0.0,0.0,0.0,2.1198,0.0,2.1309,2.1495,2.1495,2.1617,2.1797,2.1587,2.1495,2.1495,2.1293,2.1198,2.1198,2.1448,2.1509,2.1448,2.1794,2.1911,2.1807,2.2032,2.2106,2.2252,2.3232,2.3769,2.414,0.4731,0.0,0.5363,0.0,0.5437,0.5815,0.5352,0.566,0.5991,0.6213,0.6977,0.7521,0.7628,0.7848,0.7955,0.7901,0.7901,0.7901,0.7901,0.7901,0.7901,0.7901,0.7901,0.0,0.7901,0.7901,0.8002,0.8268,0.8463,0.0,0.0,0.0,0.0,0.0,0.9807,0.9961,1.0115,1.0312,1.0415,1.0415,1.0846,1.1057,1.1057,1.146,1.161,1.161,1.161,1.161,1.161,1.1868,1.2017,1.2116,1.2274,1.2529,1.2822,1.3152,1.3334,1.3478,1.3978,1.4071,1.4118,1.4258,1.4582,1.4869,1.4869,1.5142,1.5424,1.5558,1.5703,1.5869,1.6151,1.6466,1.6752,1.7146,0.0,0.0,0.0,0.0,0.0,0.0,0.0,1.9228,1.9228,0.0,0.0,0.0,0.0,0.0,0.0,0.0,0.0,0.0,0.0,0.0,0.0,2.1151,2.1277,2.1509,2.1277,2.1151,2.1151,2.0893,2.0794,2.0827,2.1103,2.1198,2.115,2.1507,2.1744,2.1911,2.2112,2.2249,2.2534,2.3818,2.4413,2.4692,0.4419,0.4571,0.4646,0.4546,0.4519,0.4684,0.5226,0.5281,0.5555,0.6327,0.6381,0.6598,0.7085,0.7735,0.8115,0.7901,0.7901,0.7901,0.7901,0.7901,0.7901,0.0,0.0,0.7901,0.7901,0.7901,0.7901,0.7901,0.0,0.0,0.9114,0.0,1.005,1.0292,1.0061,1.0167,1.0415,1.0415,1.0415,1.0415,1.0415,1.0415,1.0415,1.0415,1.0415,1.0415,1.0415,1.0415,1.0517,1.1259,1.156,1.171,1.2323,1.2676,1.2881,1.2881,1.2929,1.3017,1.3478,1.361,1.3705,1.4165,1.4305,1.4294,1.4294,1.4294,1.449,1.5006,1.5468,1.5836,1.6001,1.6144,1.6392,1.6909,0.0,0.0,0.0,0.0,0.0,0.0,1.886,1.9101,1.9101,0.0,0.0,0.0,0.0,0.0,0.0,0.0,0.0,2.0794,2.0794,0.0,2.0794,2.0794,2.0794,2.0827,2.0794,2.0794,2.0794,2.0794,2.0794,2.0794,2.0794,2.0662,2.0444,2.0763,2.1207,2.1635,2.1981,2.2394,2.2878,2.3637,2.4176,2.4625,0.4505,0.4616,0.4643,0.4543,0.4519,0.4574,0.4736,0.4849,0.4959,0.5238,0.5782,0.6164,0.6209,0.7133,0.7676,0.0,0.7895,0.8062,0.0,0.7901,0.7901,0.7901,0.7901,0.7901,0.7901,0.7901,0.7901,0.7901,0.0,0.0,0.0,0.8843,0.9009,0.9031,0.9029,0.9145,0.9316,0.9316,0.9316,0.9361,0.9718,0.9865,0.9917,1.0261,1.0415,1.0415,1.0415,1.0415,1.0525,1.1259,1.1519,1.171,1.2421,1.2783,1.2881,1.2881,1.2881,1.2929,1.3065,1.3113,1.3162,1.3296,1.3573,1.3847,1.3847,1.4071,1.449,1.5085,1.5367,1.5591,1.6057,1.6231,1.6392,1.6552,1.668,0.0,0.0,0.0,0.0,0.0,1.7948,1.8344,0.0,1.8707,0.0,0.0,0.0,0.0,0.0,0.0,0.0,0.0,2.0065,0.0,2.0395,2.0395,2.0545,2.0794,2.053,2.0258,2.0065,2.0065,2.0065,2.0065,2.0345,2.0398,2.0395,2.1286,2.1467,2.1307,2.2296,2.2513,2.2392,2.3603,2.411,2.4284,0.448,0.4538,0.4575,0.4536,0.4519,0.4519,0.4519,0.4574,0.4688,0.4743,0.523,0.5618,0.5618,0.6431,0.0,0.702,0.7402,0.7568,0.7408,0.7568,0.7676,0.7676,0.7628,0.7681,0.7901,0.7681,0.0,0.7901,0.8063,0.8202,0.8251,0.8471,0.8486,0.8474,0.8633,0.8745,0.8804,0.8804,0.8804,0.8804,0.9159,0.9309,0.9361,0.9658,0.9814,0.9814,0.9814,0.9814,1.002,1.0947,1.1292,1.1543,1.2471,1.2832,1.2881,1.2881,1.2881,1.2881,1.2881,1.2881,1.2881,1.2881,1.3113,1.3344,1.3392,1.3763,1.4258,1.4709,1.513,1.5501,1.5913,1.6231,1.6392,1.6436,1.6479,1.6522,1.6522,0.0,0.0,0.0,0.0,0.0,0.0,1.8266,1.85,0.0,0.0,0.0,0.0,0.0,0.0,1.969,1.969,0.0,2.0015,2.0015,2.012,2.0376,2.012,1.9909,1.969,1.969,1.969,1.9711,1.9965,2.0089,2.017,2.0864,2.108,2.1117,2.2191,2.2488,2.2429,2.3846,2.4308,2.428,0.4366,0.4487,0.4546,0.0,0.4532,0.0,0.4519,0.4519,0.4625,0.4846,0.4901,0.5014,0.5297,0.5782,0.6263,0.648,0.0,0.0,0.0,0.702,0.7235,0.7235,0.7133,0.7306,0.7794,0.73,0.73,0.7848,0.7848,0.8008,0.8221,0.8321,0.8474,0.8626,0.8745,0.8804,0.8804,0.8804,0.8804,0.8804,0.8804,0.8811,0.8804,0.8804,0.8811,0.8804,0.8804,0.891,0.9159,1.0364,1.0864,1.1174,1.2412,1.2783,1.2783,1.2881,1.2881,1.2881,1.2881,1.2881,1.2881,1.2881,1.2929,1.2929,1.3075,1.345,1.381,1.3978,1.4766,1.5457,1.5546,1.5988,1.6392,1.6423,1.6479,1.6522,1.6522,0.0,0.0,0.0,0.0,0.0,0.0,1.7868,1.8187,0.0,0.0,0.0,0.0,0.0,2.0393,1.9705,1.969,1.969,1.969,1.969,1.969,1.969,1.969,1.969,1.9726,1.9726,1.9756,1.9786,1.9786,1.9852,1.9948,1.9942,2.0391,2.1129,2.1857,2.2371,2.2895,2.4312,2.4646,2.4466,0.0,0.0,0.4772,0.4657,0.4754,0.4716,0.4536,0.4739,0.4959,0.4897,0.5069,0.5242,0.5297,0.5407,0.5513,0.5622,0.6372,0.675,0.6588,0.6696,0.675,0.675,0.6647,0.6598,0.6761,0.6539,0.6701,0.73,0.7521,0.7788,0.8221,0.8421,0.8573,0.8626,0.8745,0.8804,0.8804,0.8804,0.8804,0.8804,0.8804,0.8857,0.8962,0.8857,0.8857,0.8956,0.8956,0.8956,0.9159,1.0064,1.0364,1.0517,1.1351,1.161,1.176,1.2627,1.2881,1.2881,1.2881,1.2881,1.2881,1.2881,1.2978,1.3085,1.3085,1.3248,1.3505,1.4025,1.4362,1.464,1.5142,1.5623,1.5932,1.5964,1.625,1.6522,1.6522,1.6607,0.0,0.0,1.6765,1.6934,1.7323,1.7421,1.7652,0.0,0.0,0.0,0.0,2.0093,2.0393,1.9705,1.969,1.969,1.969,1.969,1.969,1.969,1.969,1.9726,1.9762,1.9762,2.0119,2.0676,2.0676,2.1,2.1515,2.2031,2.2031,2.1872,2.3041,2.3275,2.3044,2.3912,2.4153,2.4035,0.354,0.3829,0.4157,0.4505,0.4548,0.4644,0.4857,0.5068,0.5129,0.5129,0.5179,0.5242,0.5297,0.5297,0.5297,0.5297,0.5837,0.6105,0.6,0.6213,0.6322,0.6322,0.6213,0.6213,0.6485,0.6154,0.6317,0.6864,0.7025,0.7241,0.7616,0.7771,0.7877,0.7937,0.8256,0.8368,0.8421,0.8699,0.8804,0.8804,0.8804,0.8857,0.9008,0.891,0.8956,0.9106,0.9106,0.9106,0.9263,0.9961,1.0218,1.0379,1.0998,1.12,1.1301,1.1959,1.2323,1.2529,1.2529,1.2725,1.2929,1.2978,1.3036,1.3123,1.321,1.3286,1.3409,1.3847,1.4129,1.4373,1.4743,1.5175,1.5534,1.5788,1.602,1.625,1.6466,1.6522,0.0,1.6522,1.6522,1.6607,1.696,1.706,1.7338,1.7828,1.8997,0.0,1.9445,2.0537,2.0857,2.0183,1.9854,1.9974,2.0602,2.0602,2.0602,2.0602,2.0303,2.0355,2.0678,2.034,2.064,2.131,2.131,2.1583,2.2024,2.2334,2.2313,2.2178,2.3214,2.3396,2.3168,2.3865,2.4151,2.4105,0.31,0.3173,0.3361,0.4145,0.4139,0.4317,0.4979,0.5103,0.5188,0.5253,0.5216,0.5223,0.5337,0.5313,0.5297,0.5297,0.5297,0.5297,0.5297,0.5677,0.5896,0.5896,0.5778,0.5882,0.6372,0.5937,0.5937,0.648,0.6534,0.6642,0.6907,0.6907,0.6966,0.7139,0.7664,0.7925,0.7925,0.8533,0.8804,0.8804,0.8804,0.891,0.9008,0.9008,0.9106,0.9211,0.9211,0.9309,0.9458,0.9969,1.0182,1.0344,1.0795,1.0947,1.0947,1.0947,1.136,1.1868,1.2076,1.248,1.2929,1.3085,1.3123,1.3162,1.3372,1.3471,1.357,1.3676,1.4111,1.4475,1.4399,1.4762,1.5234,1.5635,1.5744,1.5964,1.6423,0.0,1.6522,1.6522,1.6522,1.6577,1.6675,1.6791,1.7073,1.7516,1.8618,1.9429,1.9846,2.091,2.1312,2.0905,2.0311,2.0543,2.168,2.1695,2.1695,2.168,2.1126,2.1156,2.1704,2.1111,2.1255,2.1884,2.1884,2.1988,2.2146,2.2013,2.2046,2.224,2.2913,2.3172,2.3249,2.3989,2.4276,2.4261,0.2682,0.3257,0.368,0.3651,0.3763,0.3799,0.3645,0.4339,0.481,0.4756,0.5214,0.551,0.5571,0.5386,0.5297,0.5297,0.5297,0.5297,0.5297,0.5352,0.5407,0.5407,0.5293,0.5234,0.5344,0.5234,0.5449,0.5937,0.6154,0.6475,0.6907,0.7025,0.7085,0.7139,0.7664,0.7925,0.7925,0.8533,0.8804,0.8804,0.8804,0.8962,0.9159,0.9061,0.9159,0.9361,0.9361,0.9361,0.9413,0.9614,0.9718,0.9718,0.9821,0.9873,0.9873,0.9873,1.0233,1.0854,1.1819,1.248,1.2929,1.3085,1.3152,1.3228,1.3372,1.3764,1.4151,1.42,1.4561,1.4768,1.4372,1.4682,1.5071,1.5165,1.5534,1.5964,1.6423,0.0,1.6522,1.6522,1.662,1.662,1.6522,1.6748,1.6876,1.6846,1.7964,1.8681,1.8765,1.9838,2.0841,2.1684,2.151,2.1485,2.1695,2.1695,2.1695,2.1695,2.159,2.1629,2.1783,2.1678,2.2073,2.2803,2.2803,2.2829,2.2829,2.2829,2.2495,2.2109,2.2778,2.3036,2.3112,2.3781,2.4124,2.4208,0.2374,0.2598,0.2874,0.3294,0.3027,0.295,0.3749,0.413,0.4335,0.4275,0.477,0.5155,0.5155,0.5451,0.5604,0.5446,0.5438,0.5398,0.5305,0.5297,0.5297,0.5297,0.5242,0.5187,0.5187,0.5187,0.5293,0.5508,0.5673,0.5837,0.605,0.6109,0.6109,0.6164,0.675,0.6961,0.7069,0.7931,0.8309,0.8368,0.8745,0.9008,0.9211,0.9211,0.9361,0.9517,0.9517,0.9517,0.951,0.9562,0.9614,0.9614,0.9614,0.9614,0.9614,0.9614,0.9984,1.06,1.141,1.2067,1.2569,1.2696,1.3035,1.3423,1.3775,1.4099,1.4376,1.4624,1.4852,1.4935,1.4718,1.4671,1.48,1.5333,1.5406,0.0,0.0,1.6796,1.6986,1.6986,1.7295,1.7529,1.7503,1.7651,1.7741,1.7785,1.8816,1.9494,1.9584,2.0637,2.1605,2.2395,2.2609,2.2712,2.2712,2.2712,2.2906,2.3266,2.2562,2.2439,2.278,2.2435,2.2686,2.333,2.333,2.3387,2.3428,2.3428,2.3288,2.3102,2.3405,2.3527,2.3557,2.3876,2.3796,2.3534,0.2221,0.2018,0.2151,0.2818,0.2351,0.2353,0.362,0.3813,0.3821,0.3821,0.429,0.4645,0.4645,0.5111,0.5408,0.5389,0.5436,0.5443,0.543,0.5422,0.5386,0.5305,0.5297,0.5297,0.5297,0.5297,0.5297,0.5297,0.5297,0.5297,0.5297,0.5297,0.5297,0.5352,0.5941,0.6209,0.6263,0.7444,0.7818,0.7818,0.8527,0.885,0.8837,0.8995,0.9197,0.9406,0.9406,0.951,0.9614,0.9614,0.9614,0.9614,0.9614,0.9614,0.9614,0.9614,0.9932,1.0403,1.1108,1.176,1.2323,1.2537,1.3067,1.3744,1.4305,1.4552,1.4728,1.509,1.5245,1.5287,1.5183,1.4863,1.4861,1.5556,0.0,0.0,0.0,1.7078,1.7426,1.7576,1.7999,1.8251,1.8333,1.8427,1.852,1.8601,1.9574,2.0227,2.0469,2.1404,2.2281,2.2908,2.3496,2.3834,2.3834,2.3984,2.4268,2.4567,2.361,2.3295,2.358,2.3101,2.3146,2.3595,2.3595,2.3563,2.3528,2.3528,2.3522,2.35,2.3652,2.3712,2.3712,2.3712,2.3379,2.2925,0.2221,0.2154,0.2221,0.2288,0.2221,0.2221,0.2354,0.2882,0.3272,0.3272,0.3711,0.4088,0.4088,0.3996,0.4172,0.4823,0.4884,0.5125,0.5787,0.5852,0.5701,0.5313,0.5297,0.5297,0.5297,0.5297,0.5297,0.5297,0.5297,0.5297,0.5297,0.5297,0.5297,0.5352,0.5941,0.6209,0.6263,0.7444,0.7658,0.7396,0.7996,0.8103,0.783,0.783,0.8249,0.8883,0.8883,0.9197,0.9614,0.9614,0.9614,0.9614,0.9614,0.9614,0.9614,0.9614,0.9732,1.0102,1.1167,1.1977,1.2615,1.3118,1.362,1.4215,1.479,1.5277,1.5597,1.5628,1.598,1.6146,1.5711,1.5608,1.5614,1.5674,0.0,0.0,1.7073,1.7267,1.752,1.8094,1.8273,1.8333,1.8251,1.8452,1.8546,1.8427,1.921,1.9911,2.0471,2.1184,2.2033,2.3038,2.4032,2.4507,2.4507,2.5151,2.5181,2.4582,2.4477,2.4178,2.3595,2.355,2.355,2.3595,2.3595,2.3281,2.2783,2.2783,2.2424,2.1944,2.2544,2.2798,2.2798,2.2798,2.278,2.2712,0.2161,0.2221,0.2221,0.2221,0.2221,0.2221,0.2221,0.2421,0.2552,0.2552,0.3123,0.3493,0.3493,0.3853,0.4185,0.4293,0.4728,0.5064,0.5214,0.5638,0.5774,0.5527,0.5515,0.5406,0.5301,0.5297,0.5297,0.5297,0.5297,0.5297,0.5297,0.5297,0.5297,0.5301,0.5513,0.5622,0.5673,0.6593,0.6864,0.681,0.7568,0.7836,0.7723,0.7771,0.8249,0.8778,0.8778,0.9145,0.9614,0.9614,0.9614,0.9614,0.9614,0.9614,0.9614,0.9614,0.9732,0.9999,1.0454,1.1524,1.2554,1.2744,1.3723,1.48,1.5318,1.5566,1.5773,1.6053,1.626,1.6322,1.6146,1.5887,1.5776,1.6111,0.0,1.6056,1.7166,1.7568,1.803,1.8609,1.9044,1.9246,1.9196,1.9724,2.0029,2.0067,2.0798,2.1368,2.1655,2.2181,2.2709,2.3082,2.4202,2.4939,2.5267,2.5121,2.5121,2.5241,2.4776,2.4268,2.3595,2.3595,2.3595,2.3595,2.3595,2.346,2.3251,2.3251,2.2877,2.2338,2.2619,2.2428,2.2069,2.2069,2.1839,2.1449,0.1824,0.2087,0.2221,0.2221,0.2221,0.2221,0.2221,0.2221,0.2221,0.2221,0.2619,0.2885,0.2885,0.3353,0.3659,0.3714,0.4226,0.4513,0.4609,0.5359,0.5701,0.5709,0.5697,0.5644,0.547,0.5466,0.5438,0.5378,0.5438,0.541,0.5301,0.5353,0.5349,0.5297,0.5297,0.5352,0.5462,0.6114,0.6327,0.6327,0.7139,0.7354,0.7241,0.7348,0.7818,0.8508,0.8508,0.8981,0.9614,0.9614,0.9614,0.9614,0.9614,0.9614,0.9614,0.9673,0.9836,0.9999,1.0102,1.1297,1.2502,1.2502,1.3569,1.478,1.5452,1.5609,1.5757,1.6312,1.6487,1.6591,1.6591,1.6332,1.6218,1.6539,1.6206,1.6266,1.716,1.7861,1.857,1.9165,1.9745,2.019,2.0366,2.0739,2.1089,2.1429,2.1977,2.2398,2.2622,2.3135,2.3352,2.3165,2.4109,2.4855,2.5208,2.4948,2.478,2.4787,2.4347,2.3879,2.3377,2.3377,2.3465,2.3595,2.3595,2.349,2.331,2.331,2.2936,2.2368,2.2368,2.2084,2.1665,2.1455,2.1096,2.0677,0.1278,0.1751,0.2223,0.2221,0.2221,0.2221,0.2221,0.2221,0.2221,0.2221,0.2221,0.2221,0.2221,0.2221,0.2487,0.3149,0.3215,0.3482,0.422,0.5014,0.5539,0.5848,0.5892,0.5892,0.5888,0.5888,0.5799,0.5612,0.5799,0.5705,0.5305,0.5531,0.5519,0.5301,0.5301,0.5407,0.5622,0.6168,0.6223,0.6055,0.6663,0.6613,0.6178,0.6178,0.6923,0.7931,0.7925,0.8613,0.9614,0.9614,0.9614,0.9614,0.9614,0.9614,0.9614,0.9747,0.9903,1.0058,1.0272,1.1399,1.2483,1.2483,1.317,1.4089,1.5139,1.541,1.5594,1.6269,1.6736,1.6987,1.6987,1.6987,1.6987,1.6987,1.6674,1.6591,1.7101,1.8182,1.9144,1.9725,2.0328,2.0986,2.164,2.1345,2.1416,2.2159,2.232,2.2622,2.3184,2.3785,2.3838,2.3223,2.3799,2.4099,2.4069,2.4713,2.4343,2.3104,2.3104,2.3018,2.2889,2.2889,2.3157,2.3595,2.3595,2.3251,2.2724,2.2724,2.2278,2.1695,2.1695,2.168,2.1605,2.0946,2.0707,2.0617,0.1246,0.1547,0.1841,0.2155,0.2217,0.2203,0.2228,0.2221,0.2221,0.2221,0.2221,0.2221,0.2221,0.2221,0.2287,0.2487,0.295,0.3482,0.422,0.4486,0.465,0.477,0.5627,0.6076,0.5892,0.5888,0.586,0.5807,0.586,0.5766,0.5535,0.5588,0.5645,0.5714,0.5714,0.5823,0.5988,0.6219,0.6193,0.6014,0.6435,0.6553,0.6384,0.6384,0.7104,0.808,0.7943,0.8613,0.9614,0.9614,0.9614,0.9614,0.9614,0.9614,0.9658,0.9953,1.0134,1.0247,1.0574,1.1349,1.2085,1.244,1.3375,1.4499,1.5206,1.5644,1.6049,1.6663,1.6894,1.708,1.741,1.7203,1.709,1.742,1.708,1.712,1.8067,1.817,1.8518,1.9472,1.9929,2.0214,2.0428,2.131,2.1794,2.1574,2.245,2.3041,2.321,2.3785,2.3668,2.2675,2.3197,2.307,2.2287,2.3662,2.4152,2.3716,2.3655,2.3406,2.2889,2.3246,2.3465,2.358,2.3131,2.3101,2.3295,2.2862,2.2278,2.1695,2.1695,2.1126,2.0258,2.0064,1.9989,1.9959,0.0909,0.1277,0.1649,0.214,0.221,0.226,0.2199,0.2189,0.2181,0.2225,0.2221,0.2221,0.2221,0.2221,0.2221,0.2221,0.2554,0.3086,0.3818,0.3885,0.4018,0.4287,0.5065,0.5559,0.5716,0.597,0.6063,0.599,0.6063,0.5969,0.5722,0.5791,0.5905,0.5956,0.5884,0.5966,0.6187,0.6167,0.6119,0.6078,0.6393,0.6426,0.6365,0.6445,0.7095,0.7863,0.7758,0.8366,0.9214,0.9368,0.9513,0.9614,0.9614,0.9614,0.968,1.007,1.0228,1.0364,1.079,1.1353,1.1846,1.2143,1.2998,1.3992,1.4824,1.526,1.5681,1.6591,1.7067,1.7337,1.7626,1.7647,1.7667,1.7936,1.745,1.7249,1.7871,1.7954,1.8333,1.9206,1.9725,2.0184,2.0735,2.1419,2.1912,2.2029,2.2776,2.3315,2.3563,2.3916,2.3694,2.2766,2.3041,2.2779,2.1851,2.2671,2.2921,2.2684,2.2644,2.2507,2.2342,2.2603,2.273,2.2659,2.2278,2.2319,2.2562,2.1939,2.153,2.1276,2.1006,2.0408,1.969,1.969,1.969,1.969,0.0421,0.0988,0.1493,0.2108,0.2266,0.2319,0.2177,0.2175,0.223,0.217,0.223,0.223,0.223,0.2225,0.2221,0.2221,0.2227,0.2429,0.3096,0.3103,0.3439,0.4102,0.4169,0.4495,0.5209,0.5947,0.627,0.6105,0.6335,0.6245,0.5912,0.6137,0.6183,0.6138,0.5973,0.6075,0.6351,0.6146,0.6115,0.6248,0.6431,0.6403,0.6332,0.6516,0.6927,0.7426,0.744,0.7908,0.8597,0.8983,0.9383,0.9702,0.9702,0.9702,0.9768,1.0221,1.0379,1.0453,1.0944,1.1429,1.1838,1.1869,1.2224,1.292,1.4231,1.4556,1.494,1.6195,1.7098,1.7626,1.7668,1.8061,1.8319,1.8319,1.7636,1.7049,1.7049,1.7637,1.8245,1.8942,1.9479,2.0391,2.1631,2.1452,2.1781,2.3076,2.321,2.3459,2.4008,2.4086,2.3825,2.3158,2.3197,2.2923,2.235,2.176,2.125,2.0777,2.0788,2.0997,2.1423,2.1458,2.1429,2.1389,2.1332,2.1212,2.1073,2.0393,2.0343,2.0608,1.9923,1.9656,1.9656,1.9596,1.9611,1.967,-0.0222,0.0447,0.1038,0.1535,0.2001,0.2349,0.2198,0.2255,0.2294,0.2233,0.2225,0.2225,0.2225,0.2183,0.2221,0.2221,0.2198,0.2294,0.2432,0.2479,0.2556,0.2641,0.3188,0.3562,0.3682,0.4945,0.5595,0.556,0.6129,0.6306,0.6154,0.6258,0.6442,0.6586,0.6613,0.678,0.7012,0.6744,0.666,0.6665,0.6707,0.6851,0.6965,0.7007,0.7379,0.7809,0.7501,0.7802,0.8407,0.9023,0.9778,1.0375,1.0375,1.0375,1.0441,1.0828,1.0931,1.1056,1.1503,1.1836,1.2135,1.2468,1.2578,1.292,1.4231,1.4708,1.5364,1.6595,1.6997,1.7234,1.7606,1.7812,1.7874,1.7874,1.7709,1.7523,1.7523,1.7504,1.7626,1.8098,1.8583,1.9033,1.9307,2.0226,2.1498,2.3076,2.321,2.3276,2.3406,2.3851,2.3642,2.2622,2.2988,2.2727,2.1707,2.1577,2.1446,2.1315,2.1259,2.1277,2.1423,2.1766,2.1918,2.1903,2.1408,2.1203,2.1196,2.0529,2.0316,2.0342,1.9715,1.9418,1.9322,1.8917,1.9045,1.9561,-0.0452,0.0,0.053,0.136,0.1755,0.2118,0.2298,0.2335,0.2354,0.2224,0.2216,0.2206,0.2178,0.2215,0.2198,0.2198,0.2253,0.2216,0.2216,0.2245,0.2236,0.2177,0.2591,0.2764,0.2755,0.3816,0.4547,0.4882,0.5216,0.5443,0.5553,0.5883,0.6209,0.6595,0.6827,0.692,0.6998,0.6726,0.6641,0.6651,0.6749,0.6857,0.7021,0.7121,0.7404,0.7618,0.738,0.7828,0.8651,0.9053,0.9819,1.0587,1.0587,1.0587,1.0653,1.0975,1.1077,1.1203,1.165,1.2047,1.2373,1.2507,1.2696,1.3181,1.4459,1.4919,1.5435,1.6738,1.7378,1.7688,1.7729,1.8081,1.8299,1.8071,1.804,1.804,1.804,1.7582,1.7476,1.8046,1.8389,1.8851,1.9379,2.0421,2.1491,2.2623,2.3041,2.3341,2.3629,2.3942,2.3838,2.325,2.321,2.2923,2.2335,2.1786,2.1511,2.1511,2.1226,2.1082,2.1082,2.1299,2.1295,2.1009,2.0663,2.0699,2.083,1.9931,1.9822,2.0231,1.9586,1.9348,1.9293,1.9305,1.9502,1.9908,-0.0607,-0.0381,0.0077,0.1243,0.1485,0.1786,0.234,0.2422,0.2414,0.2357,0.235,0.2331,0.221,0.2195,0.219,0.219,0.2243,0.235,0.235,0.236,0.2338,0.2207,0.2203,0.2245,0.2187,0.2793,0.3383,0.4087,0.422,0.4486,0.4815,0.5282,0.5818,0.6412,0.6715,0.6871,0.688,0.6728,0.6658,0.67,0.6787,0.6866,0.6974,0.7144,0.7273,0.7269,0.7235,0.8016,0.9064,0.9229,0.9947,1.0763,1.0814,1.0799,1.0806,1.1077,1.1158,1.1277,1.1673,1.2183,1.258,1.2476,1.283,1.3501,1.4764,1.5041,1.5435,1.6608,1.7637,1.8164,1.7802,1.8402,1.8806,1.835,1.833,1.835,1.8278,1.7749,1.7616,1.817,1.8402,1.8965,2.0029,2.0897,2.1599,2.2118,2.2891,2.3589,2.4086,2.4112,2.4073,2.3968,2.3576,2.3276,2.308,2.223,2.1707,2.1498,2.1028,2.0804,2.0699,2.0699,2.045,1.9943,1.9943,2.0104,2.028,1.931,1.9407,2.014,1.9488,1.9266,1.9432,1.9929,2.0108,2.0235,-0.1172,-0.0703,-0.0078,0.0534,0.1161,0.1776,0.2215,0.2433,0.2476,0.2416,0.2409,0.2405,0.2397,0.2352,0.225,0.225,0.2375,0.2409,0.2409,0.2458,0.2459,0.2398,0.2395,0.2369,0.2312,0.2383,0.2749,0.3351,0.4018,0.4486,0.4815,0.5084,0.562,0.6416,0.6654,0.695,0.7362,0.7158,0.7235,0.7383,0.7177,0.722,0.738,0.7474,0.7483,0.7459,0.7283,0.8073,0.9328,1.02,1.0892,1.148,1.175,1.1655,1.1497,1.1549,1.1556,1.1564,1.1732,1.2183,1.2695,1.3154,1.3365,1.3792,1.4832,1.5112,1.5303,1.6064,1.7083,1.7802,1.7688,1.8143,1.833,1.7895,1.8133,1.8247,1.7874,1.7822,1.785,1.7962,1.8116,1.8501,1.9123,2.0393,2.1413,2.1981,2.3231,2.4021,2.4112,2.4112,2.3877,2.3354,2.3772,2.3511,2.2546,2.2818,2.2492,2.1511,2.1433,2.1132,2.0699,2.0699,2.0673,2.0594,2.0594,2.0306,1.9882,1.9724,1.9745,1.9806,1.9199,1.9291,1.9753,1.9832,1.9859,1.9919,-0.1335,-0.11,-0.0704,-0.0077,0.0623,0.1246,0.183,0.2244,0.25,0.2474,0.247,0.2458,0.2422,0.2397,0.2383,0.2383,0.2436,0.247,0.247,0.2496,0.2484,0.2422,0.242,0.2377,0.2215,0.2245,0.2487,0.2952,0.3271,0.361,0.3889,0.4556,0.5289,0.6152,0.6544,0.6945,0.735,0.7259,0.7273,0.7345,0.7254,0.734,0.7521,0.7521,0.7521,0.7512,0.7421,0.8016,0.8914,0.973,1.0478,1.108,1.1594,1.1677,1.1622,1.1622,1.1622,1.1622,1.1872,1.231,1.2672,1.3152,1.3391,1.3691,1.4179,1.4712,1.5337,1.5992,1.7045,1.78,1.755,1.8196,1.862,1.8164,1.8464,1.8702,1.8506,1.8385,1.8333,1.8459,1.8542,1.8763,1.9262,2.0703,2.1643,2.1898,2.3297,2.4112,2.4112,2.4112,2.3995,2.3733,2.3981,2.3707,2.2844,2.2792,2.2348,2.1511,2.1185,2.0948,2.0699,2.0699,2.0699,2.0699,2.0699,2.0568,2.0257,1.9943,1.9799,1.9773,1.9512,1.9577,1.9839,2.0165,1.9865,1.9389]},{"header":{"parameterUnit":"m.s-1","parameterCategory":1,"la1":30.6,"la2":28.766,"lo1":-90.7593,"lo2":-88.6598,"dy":0.0162,"dx":0.0183,"nx":116,"ny":114,"refTime":"2024-03-17T12:00:00:Z","depth":0,"parameterNumber":3,"parameterNumberName":"V-component_of_WINDS"},"data":[0.0,0.0,0.0,0.0,0.0,0.0,0.0,0.0,0.0,0.0,0.0,0.0,0.0,0.0,0.0,0.0,0.0,0.0,0.0,0.0,0.0,0.0,0.0,0.0,0.0,0.0,0.0,0.0,0.0,0.0,0.0,0.0,0.0,0.0,0.0,0.0,0.0,0.0,0.0,0.0,0.0,0.0,0.0,0.0,0.0,0.0,0.0,0.0,0.0,0.0,0.0,0.0,0.0,0.0,0.0,0.0,0.0,0.0,0.0,0.0,0.0,0.0,0.0,0.0,0.0,0.0,0.0,0.0,0.0,0.0,0.0,0.0,0.0,0.0,0.0,0.0,0.0,0.0,0.0,0.0,0.0,0.0,0.0,0.0,0.0,0.0,0.0,0.0,0.0,0.0,0.0,0.0,0.0,0.0,0.0,0.0,0.0,0.0,0.0,0.0,0.0,0.0,0.0,0.0,0.0,0.0,0.0,0.0,0.0,0.0,0.0,0.0,0.0,0.0,0.0,0.0,0.0,0.0,0.0,0.0,0.0,0.0,0.0,0.0,0.0,0.0,0.0,0.0,0.0,0.0,0.0,0.0,0.0,0.0,0.0,0.0,0.0,0.0,0.0,0.0,0.0,0.0,0.0,0.0,0.0,0.0,0.0,0.0,0.0,0.0,0.0,0.0,0.0,0.0,0.0,0.0,0.0,0.0,0.0,0.0,0.0,0.0,0.0,0.0,0.0,0.0,0.0,0.0,0.0,0.0,0.0,0.0,0.0,0.0,0.0,0.0,0.0,0.0,0.0,0.0,0.0,0.0,0.0,0.0,0.0,0.0,0.0,0.0,0.0,0.0,0.0,0.0,0.0,0.0,0.0,0.0,0.0,0.0,0.0,0.0,0.0,0.0,0.0,0.0,0.0,0.0,0.0,0.0,0.0,0.0,0.0,0.0,0.0,0.0,0.0,0.0,0.0,0.0,0.0,0.0,0.0,0.0,0.0,0.0,0.0,0.0,0.0,0.0,0.0,0.0,0.0,0.0,0.0,0.0,0.0,0.0,0.0,0.0,0.0,0.0,0.0,0.0,0.0,0.0,0.0,0.0,0.0,0.0,0.0,0.0,0.0,0.0,0.0,0.0,0.0,0.0,0.0,0.0,0.0,0.0,0.0,0.0,0.0,0.0,0.0,0.0,0.0,0.0,0.0,0.0,0.0,0.0,0.0,0.0,0.0,0.0,0.0,0.0,0.0,0.0,0.0,0.0,0.0,0.0,0.0,0.0,0.0,0.0,0.0,0.0,0.0,0.0,0.0,0.0,0.0,0.0,0.0,0.0,0.0,0.0,0.0,0.0,0.0,0.0,0.0,0.0,0.0,0.0,0.0,0.0,0.0,0.0,0.0,0.0,0.0,0.0,0.0,0.0,0.0,0.0,0.0,0.0,0.0,0.0,0.0,0.0,0.0,0.0,0.0,0.0,0.0,0.0,0.0,0.0,0.0,0.0,0.0,0.0,0.0,0.0,0.0,0.0,0.0,0.0,0.0,0.0,0.0,0.0,0.0,0.0,0.0,0.0,0.0,0.0,0.0,0.0,0.0,0.0,0.0,0.0,0.0,0.0,0.0,0.0,0.0,0.0,0.0,0.0,0.0,0.0,0.0,0.0,0.0,0.0,0.0,0.0,0.0,0.0,0.0,0.0,0.0,0.0,0.0,0.0,0.0,0.0,0.0,0.0,0.0,0.0,0.0,0.0,0.0,0.0,0.0,0.0,0.0,0.0,0.0,0.0,0.0,0.0,0.0,0.0,0.0,0.0,0.0,0.0,0.0,0.0,0.0,0.0,0.0,0.0,0.0,0.0,0.0,0.0,0.0,0.0,0.0,0.0,0.0,0.0,0.0,0.0,0.0,0.0,0.0,0.0,0.0,0.0,0.0,0.0,0.0,0.0,0.0,0.0,0.0,0.0,0.0,0.0,0.0,0.0,0.0,0.0,0.0,0.0,0.0,0.0,0.0,0.0,0.0,0.0,0.0,0.0,0.0,0.0,0.0,0.0,0.0,0.0,0.0,0.0,0.0,0.0,0.0,0.0,0.0,0.0,0.0,0.0,0.0,0.0,0.0,0.0,0.0,0.0,0.0,0.0,0.0,0.0,0.0,0.0,0.0,0.0,0.0,0.0,0.0,0.0,0.0,0.0,0.0,0.0,0.0,0.0,0.0,0.0,0.0,0.0,0.0,0.0,0.0,0.0,0.0,0.0,0.0,0.0,0.0,0.0,0.0,0.0,0.0,0.0,0.0,0.0,0.0,0.0,0.0,0.0,0.0,0.0,0.0,0.0,0.0,0.0,0.0,0.0,0.0,0.0,0.0,0.0,0.0,0.0,0.0,0.0,0.0,0.0,0.0,0.0,0.0,0.0,0.0,0.0,0.0,0.0,0.0,0.0,0.0,0.0,0.0,0.0,0.0,0.0,0.0,0.0,0.0,0.0,0.0,0.0,0.0,0.0,0.0,0.0,0.0,0.0,0.0,0.0,0.0,0.0,0.0,0.0,0.0,0.0,0.0,0.0,0.0,0.0,0.0,0.0,0.0,0.0,0.0,0.0,0.0,0.0,0.0,0.0,0.0,0.0,0.0,0.0,0.0,0.0,0.0,0.0,0.0,0.0,0.0,0.0,0.0,0.0,0.0,0.0,0.0,0.0,0.0,0.0,0.0,0.0,0.0,0.0,0.0,0.0,0.0,0.0,0.0,0.0,0.0,0.0,0.0,0.0,0.0,0.0,0.0,0.0,0.0,0.0,0.0,0.0,0.0,0.0,0.0,0.0,0.0,0.0,0.0,0.0,0.0,0.0,0.0,0.0,0.0,0.0,0.0,0.0,0.0,0.0,0.0,0.0,0.0,0.0,0.0,0.0,0.0,0.0,0.0,0.0,0.0,0.0,0.0,0.0,0.0,0.0,0.0,0.0,0.0,0.0,0.0,0.0,0.0,0.0,0.0,0.0,0.0,0.0,0.0,0.0,0.0,0.0,0.0,0.0,0.0,0.0,0.0,0.0,0.0,0.0,0.0,0.0,0.0,0.0,0.0,0.0,0.0,0.0,0.0,0.0,0.0,0.0,0.0,0.0,0.0,0.0,0.0,0.0,0.0,0.0,0.0,0.0,0.0,0.0,0.0,0.0,0.0,0.0,0.0,0.0,0.0,0.0,0.0,0.0,0.0,0.0,0.0,0.0,0.0,0.0,0.0,0.0,0.0,0.0,0.0,0.0,0.0,0.0,0.0,0.0,0.0,0.0,0.0,0.0,0.0,0.0,0.0,0.0,0.0,0.0,0.0,0.0,0.0,0.0,0.0,0.0,0.0,0.0,0.0,0.0,0.0,0.0,0.0,0.0,0.0,0.0,0.0,0.0,0.0,0.0,0.0,0.0,0.0,0.0,0.0,0.0,0.0,0.0,0.0,0.0,0.0,0.0,0.0,0.0,0.0,0.0,0.0,0.0,0.0,0.0,0.0,0.0,0.0,0.0,0.0,0.0,0.0,0.0,0.0,0.0,0.0,0.0,0.0,0.0,0.0,0.0,0.0,0.0,0.0,0.0,0.0,0.0,0.0,0.0,0.0,0.0,0.0,0.0,0.0,0.0,0.0,0.0,0.0,0.0,0.0,0.0,0.0,0.0,0.0,0.0,0.0,0.0,0.0,0.0,0.0,0.0,0.0,0.0,0.0,0.0,0.0,0.0,0.0,0.0,0.0,0.0,0.0,0.0,0.0,0.0,0.0,0.0,0.0,0.0,0.0,0.0,0.0,0.0,0.0,0.0,0.0,0.0,0.0,0.0,0.0,0.0,0.0,0.0,0.0,0.0,0.0,0.0,0.0,0.0,0.0,0.0,0.0,0.0,0.0,0.0,0.0,0.0,0.0,0.0,0.0,0.0,0.0,0.0,0.0,0.0,0.0,0.0,0.0,0.0,0.0,0.0,0.0,0.0,0.0,0.0,0.0,0.0,0.0,0.0,0.0,0.0,0.0,0.0,0.0,0.0,0.0,0.0,0.0,0.0,0.0,0.0,0.0,0.0,0.0,0.0,0.0,0.0,0.0,0.0,0.0,0.0,0.0,0.0,0.0,0.0,0.0,0.0,0.0,0.0,0.0,0.0,0.0,0.0,0.0,0.0,0.0,0.0,0.0,0.0,0.0,0.0,0.0,0.0,0.0,0.0,0.0,0.0,0.0,0.0,0.0,0.0,0.0,0.0,0.0,0.0,0.0,0.0,0.0,0.0,0.0,0.0,0.0,0.0,0.0,0.0,0.0,0.0,0.0,0.0,0.0,0.0,0.0,0.0,0.0,0.0,0.0,0.0,0.0,0.0,0.0,0.0,0.0,0.0,0.0,0.0,0.0,0.0,0.0,0.0,0.0,0.0,0.0,0.0,0.0,0.0,0.0,0.0,0.0,0.0,0.0,0.0,0.0,0.0,0.0,0.0,0.0,0.0,0.0,0.0,0.0,0.0,0.0,0.0,0.0,0.0,0.0,0.0,0.0,0.0,0.0,0.0,0.0,0.0,0.0,0.0,0.0,0.0,0.0,0.0,0.0,0.0,0.0,0.0,0.0,0.0,0.0,0.0,0.0,0.0,0.0,0.0,0.0,0.0,0.0,0.0,0.0,0.0,0.0,0.0,0.0,0.0,0.0,0.0,0.0,0.0,0.0,0.0,0.0,0.0,0.0,0.0,0.0,0.0,0.0,0.0,0.0,0.0,0.0,0.0,0.0,0.0,0.0,0.0,0.0,0.0,0.0,0.0,0.0,0.0,0.0,0.0,0.0,0.0,0.0,0.0,0.0,0.0,0.0,0.0,0.0,0.0,0.0,0.0,0.0,0.0,0.0,0.0,0.0,0.0,0.0,0.0,0.0,0.0,0.0,0.0,0.0,0.0,0.0,0.0,0.0,0.0,0.0,0.0,0.0,0.0,0.0,0.0,0.0,0.0,0.0,0.0,0.0,0.0,0.0,0.0,0.0,0.0,0.0,0.0,0.0,0.0,0.0,0.0,0.0,0.0,0.0,0.0,0.0,0.0,0.0,0.0,0.0,0.0,0.0,0.0,0.0,0.0,0.0,0.0,0.0,0.0,0.0,0.0,0.0,0.0,0.0,0.0,0.0,0.0,0.0,0.0,0.0,0.0,0.0,0.0,0.0,0.0,0.0,0.0,0.0,0.0,0.0,0.0,0.0,0.0,0.0,0.0,0.0,0.0,0.0,0.0,0.0,0.0,0.0,0.0,0.0,0.0,0.0,0.0,0.0,0.0,0.0,0.0,0.0,0.0,0.0,0.0,0.0,0.0,0.0,0.0,0.0,0.0,0.0,0.0,0.0,0.0,0.0,0.0,0.0,0.0,0.0,0.0,0.0,0.0,0.0,0.0,0.0,0.0,0.0,0.0,0.0,0.0,0.0,0.0,0.0,0.0,0.0,0.0,0.0,0.0,0.0,0.0,0.0,0.0,0.0,0.0,0.0,0.0,0.0,0.0,0.0,0.0,0.0,0.0,0.0,0.0,0.0,0.0,0.0,0.0,0.0,0.0,0.0,0.0,0.0,0.0,0.0,0.0,0.0,0.0,0.0,0.0,0.0,0.0,0.0,0.0,0.0,0.0,0.0,0.0,0.0,0.0,0.0,0.0,0.0,0.0,0.0,0.0,0.0,0.0,0.0,0.0,0.0,0.0,0.0,0.0,0.0,0.0,0.0,0.0,0.0,0.0,0.0,0.0,0.0,0.0,0.0,0.0,0.0,0.0,0.0,0.0,0.0,0.0,0.0,0.0,0.0,0.0,0.0,0.0,0.0,0.0,0.0,0.0,0.0,0.0,0.0,0.0,0.0,0.0,0.0,0.0,0.0,0.0,0.0,0.0,0.0,0.0,0.0,0.0,0.0,0.0,0.0,0.0,0.0,0.0,0.0,0.0,0.0,0.0,0.0,0.0,0.0,0.0,0.0,0.0,0.0,0.0,0.0,0.0,0.0,0.0,0.0,0.0,0.0,0.0,0.0,0.0,0.0,0.0,0.0,0.0,0.0,0.0,0.0,0.0,0.0,0.0,0.0,0.0,0.0,0.0,0.0,0.0,0.0,0.0,-2.386,0.0,0.0,0.0,0.0,0.0,0.0,0.0,0.0,0.0,0.0,0.0,0.0,0.0,0.0,0.0,0.0,0.0,0.0,0.0,0.0,0.0,0.0,0.0,0.0,0.0,0.0,0.0,-1.9146,-1.9209,-1.939,-1.9458,-1.9526,-1.958,-1.9769,-1.9918,-2.006,-2.0152,-2.0258,-2.0338,-2.0357,-2.0391,-2.046,-2.0886,-2.1565,-2.2438,0.0,0.0,0.0,0.0,0.0,0.0,0.0,0.0,0.0,0.0,0.0,0.0,0.0,0.0,0.0,0.0,0.0,0.0,0.0,0.0,0.0,0.0,0.0,0.0,0.0,0.0,0.0,0.0,0.0,0.0,0.0,0.0,0.0,0.0,0.0,0.0,0.0,0.0,0.0,0.0,0.0,0.0,0.0,0.0,0.0,0.0,0.0,0.0,0.0,0.0,0.0,0.0,0.0,0.0,0.0,0.0,0.0,0.0,0.0,0.0,0.0,0.0,0.0,0.0,0.0,0.0,0.0,0.0,0.0,0.0,0.0,-2.4694,0.0,0.0,0.0,0.0,0.0,0.0,0.0,0.0,0.0,0.0,0.0,0.0,0.0,0.0,0.0,0.0,0.0,0.0,0.0,0.0,0.0,0.0,0.0,-1.8948,-1.9097,-1.9277,-1.9274,-1.935,-1.949,-1.9532,-1.958,-1.9726,-1.9855,-2.0001,-2.0133,-2.025,-2.0347,-2.0415,-2.0419,-2.0527,-2.0755,-2.1621,-2.248,-2.3343,0.0,0.0,0.0,0.0,0.0,0.0,0.0,0.0,0.0,0.0,0.0,0.0,0.0,0.0,0.0,0.0,0.0,0.0,0.0,0.0,0.0,0.0,0.0,0.0,0.0,0.0,0.0,0.0,0.0,0.0,0.0,0.0,0.0,0.0,0.0,0.0,0.0,0.0,0.0,0.0,0.0,0.0,0.0,0.0,0.0,0.0,0.0,0.0,0.0,0.0,0.0,0.0,0.0,0.0,0.0,0.0,0.0,0.0,0.0,0.0,0.0,0.0,0.0,0.0,-2.2913,-2.2977,-2.2996,-2.3655,-2.3898,-2.3844,-2.4658,-2.4942,-2.4794,0.0,0.0,0.0,0.0,0.0,0.0,0.0,0.0,0.0,0.0,0.0,0.0,0.0,0.0,0.0,0.0,0.0,0.0,0.0,0.0,0.0,0.0,-1.9051,-1.9184,-1.92,-1.9216,-1.9277,-1.9485,-1.9604,-1.9744,-1.9885,-1.9991,-2.0134,-2.0269,-2.0284,-2.0365,-2.0497,-2.0485,-2.0879,-2.164,-2.2524,-2.3366,-2.4149,-2.4313,0.0,0.0,0.0,0.0,0.0,0.0,0.0,0.0,0.0,0.0,0.0,0.0,0.0,0.0,0.0,0.0,0.0,0.0,0.0,0.0,0.0,0.0,0.0,0.0,0.0,0.0,0.0,0.0,0.0,0.0,0.0,0.0,0.0,0.0,0.0,0.0,0.0,0.0,0.0,0.0,0.0,0.0,0.0,-2.2254,-2.0912,0.0,0.0,0.0,0.0,0.0,0.0,0.0,0.0,0.0,0.0,0.0,0.0,0.0,-2.2609,-2.2537,-2.3228,-2.3555,-2.3563,-2.4148,-2.4415,-2.4433,-2.4527,-2.4565,-2.4569,-2.4697,0.0,-2.4714,-2.4731,0.0,0.0,0.0,0.0,0.0,0.0,0.0,0.0,0.0,0.0,0.0,0.0,0.0,0.0,0.0,0.0,0.0,0.0,0.0,0.0,0.0,-1.8966,-1.9137,-1.9137,-1.9219,-1.9341,-1.9527,-1.9681,-1.983,-1.999,-2.0107,-2.0192,-2.0308,-2.034,-2.0647,-2.1239,-2.123,-2.168,-2.2558,-2.3427,-2.3993,-2.4329,-2.4834,-2.527,-2.5595,-2.5607,0.0,0.0,0.0,0.0,0.0,0.0,0.0,0.0,0.0,0.0,0.0,0.0,0.0,0.0,0.0,0.0,0.0,0.0,0.0,0.0,0.0,0.0,0.0,0.0,0.0,0.0,0.0,0.0,0.0,0.0,0.0,0.0,0.0,0.0,0.0,0.0,0.0,0.0,0.0,-2.2099,-2.2129,-2.188,-2.2107,-2.1787,0.0,0.0,0.0,0.0,0.0,0.0,0.0,0.0,0.0,-2.2216,-2.3053,-2.3429,-2.3318,-2.4024,-2.4352,-2.4322,-2.4584,-2.4707,-2.4707,-2.4707,-2.4707,-2.4707,-2.466,-2.4647,-2.4631,-2.4645,-2.4596,-2.4515,0.0,0.0,0.0,0.0,-2.4266,-2.4114,0.0,0.0,0.0,0.0,0.0,0.0,0.0,0.0,0.0,0.0,0.0,0.0,-1.8587,-1.886,-1.9052,-1.9104,-1.9184,-1.9357,-1.9569,-1.9707,-1.9861,-2.0029,-2.0125,-2.0208,-2.0296,-2.059,-2.109,-2.1792,-2.2028,-2.2577,-2.3457,-2.4096,-2.4486,-2.4654,-2.5299,-2.5568,-2.5544,-2.5509,-2.5506,0.0,0.0,0.0,0.0,0.0,0.0,0.0,0.0,0.0,0.0,0.0,0.0,0.0,0.0,0.0,0.0,0.0,0.0,0.0,0.0,0.0,0.0,0.0,0.0,0.0,0.0,0.0,0.0,0.0,0.0,0.0,0.0,0.0,0.0,0.0,0.0,0.0,0.0,-2.2494,-2.2405,-2.2625,-2.2459,-2.1881,0.0,0.0,0.0,0.0,0.0,0.0,-2.1907,-2.2662,-2.3081,-2.3007,-2.385,-2.4258,-2.4131,-2.4638,-2.4861,-2.4794,-2.4738,-2.4707,-2.4707,-2.4707,-2.4692,-2.4642,-2.4561,-2.4495,-2.4444,-2.4549,-2.4479,-2.4375,-2.4375,-2.4303,-2.4191,-2.4191,-2.4037,-2.3858,0.0,0.0,0.0,0.0,0.0,0.0,0.0,0.0,0.0,0.0,0.0,-1.8469,-1.8843,-1.8895,-1.8965,-1.9099,-1.9115,-1.9259,-1.9569,-1.9662,-1.9769,-1.9907,-2.0039,-2.0171,-2.0302,-2.1239,-2.175,-2.1801,-2.2621,-2.3471,-2.4335,-2.4389,-2.4807,-2.5532,-2.5511,-2.5471,-2.5401,-2.5284,-2.5225,-2.513,0.0,0.0,0.0,0.0,0.0,0.0,0.0,0.0,0.0,0.0,0.0,0.0,0.0,0.0,0.0,0.0,0.0,0.0,0.0,0.0,0.0,0.0,0.0,0.0,0.0,0.0,0.0,0.0,0.0,0.0,0.0,0.0,0.0,0.0,0.0,0.0,0.0,0.0,0.0,-2.1849,-2.3028,0.0,0.0,0.0,0.0,-2.2765,-2.2815,-2.2817,-2.2735,-2.3495,-2.3909,-2.3842,-2.4694,-2.5099,-2.5044,-2.4961,-2.4861,-2.4794,-2.4738,-2.4707,-2.4707,-2.4707,-2.4626,-2.4512,-2.4372,-2.4211,-2.4041,-2.4375,-2.4321,-2.404,-2.404,-2.3862,-2.3631,-2.3566,-2.3544,-2.3522,0.0,0.0,0.0,0.0,0.0,0.0,0.0,0.0,-1.7966,-1.8095,-1.7872,-1.7962,-1.8625,-1.8324,-1.8339,-1.8981,-1.9101,-1.9261,-1.9513,-1.9681,-1.9806,-1.9904,-2.0069,-2.0515,-2.124,-2.1621,-2.2351,-2.3472,-2.3773,-2.438,-2.5234,-2.5191,-2.5339,-2.5586,-2.5439,-2.5329,-2.5264,-2.5214,-2.513,-2.4972,-2.453,-2.374,0.0,0.0,0.0,0.0,0.0,0.0,0.0,0.0,0.0,0.0,0.0,0.0,0.0,0.0,0.0,0.0,0.0,0.0,0.0,0.0,0.0,0.0,0.0,0.0,0.0,0.0,0.0,0.0,0.0,0.0,0.0,0.0,0.0,0.0,0.0,0.0,0.0,-2.3338,-2.3763,0.0,-2.2543,-2.2719,-2.29,-2.2905,-2.3345,-2.3592,-2.3563,-2.434,-2.4769,-2.4752,-2.5038,-2.5199,-2.5156,-2.4907,-2.4785,-2.4861,-2.4578,-2.4497,-2.4561,-2.4391,-2.4302,-2.4248,-2.4098,-2.3981,-2.3881,-2.3959,-2.3901,-2.3819,-2.3819,-2.3696,-2.3544,-2.3522,-2.3405,-2.3236,0.0,0.0,0.0,0.0,0.0,0.0,0.0,0.0,-1.7966,-1.8031,-1.7835,-1.7944,-1.8531,-1.8235,-1.8269,-1.8947,-1.9168,-1.9341,-1.9518,-1.9673,-1.9801,-1.9862,-2.0392,-2.1023,-2.175,-2.2347,-2.3225,-2.4404,-2.4982,-2.5553,-2.6113,-2.6357,-2.6474,-2.6429,-2.6238,-2.6072,-2.596,-2.5888,-2.5462,-2.4762,-2.4666,-2.3964,-2.2951,0.0,0.0,0.0,0.0,0.0,0.0,0.0,0.0,0.0,0.0,0.0,0.0,0.0,0.0,0.0,0.0,0.0,0.0,0.0,0.0,0.0,0.0,0.0,0.0,0.0,0.0,0.0,0.0,0.0,0.0,0.0,0.0,0.0,0.0,0.0,-2.4349,-2.4088,-2.4291,-2.4146,-2.3369,-2.3543,-2.3716,-2.3716,-2.4168,-2.4437,-2.4436,-2.4913,-2.5176,-2.5125,-2.5168,-2.5156,-2.5076,-2.4861,-2.4785,-2.4861,-2.4578,-2.4462,-2.4495,-2.4265,-2.4117,-2.4019,-2.384,-2.371,-2.358,-2.3513,-2.3445,-2.3405,-2.3477,-2.3387,-2.3224,-2.3224,-2.3116,-2.297,0.0,0.0,0.0,0.0,0.0,0.0,0.0,-1.7726,-1.7954,-1.8069,-1.8194,-1.8373,-1.8566,-1.8717,-1.8842,-1.8998,-1.9246,-1.945,-1.9602,-1.9647,-1.9745,-1.9858,-2.0975,-2.1649,-2.1776,-2.3436,-2.4369,-2.4471,-2.6166,-2.699,-2.6966,-2.7797,-2.8159,-2.809,-2.7894,-2.7677,-2.7483,-2.7293,-2.6176,-2.4547,-2.4412,-2.4357,-2.4352,0.0,0.0,0.0,0.0,0.0,0.0,0.0,0.0,0.0,0.0,0.0,0.0,0.0,0.0,0.0,0.0,0.0,0.0,0.0,0.0,0.0,0.0,0.0,0.0,0.0,0.0,0.0,0.0,0.0,0.0,0.0,0.0,0.0,-2.2789,-2.4091,-2.4778,-2.3927,-2.4587,-2.4854,-2.4197,-2.4851,-2.5284,-2.5284,-2.5303,-2.5293,-2.5282,-2.5241,-2.5134,-2.4993,-2.5132,-2.5063,-2.4804,-2.4861,-2.4847,-2.4779,-2.4704,-2.4594,-2.4478,-2.4355,-2.4118,-2.3876,-2.3606,-2.3359,-2.3168,-2.3045,-2.2919,-2.2816,-2.3007,-2.2925,-2.2712,-2.2712,-2.2668,-2.2651,0.0,0.0,0.0,0.0,0.0,0.0,0.0,-1.7816,-1.804,-1.8031,-1.7837,-1.7927,-1.8454,-1.8163,-1.8233,-1.8947,-1.9198,-1.9383,-1.9518,-1.9669,-2.0149,-2.0996,-2.1353,-2.2153,-2.3476,-2.4036,-2.4929,-2.6203,-2.6696,-2.7245,-2.7846,-2.809,-2.8159,-2.809,-2.7796,-2.7561,-2.7405,-2.7114,-2.6637,-2.6039,-2.5409,-2.445,-2.34,0.0,0.0,0.0,0.0,0.0,0.0,0.0,0.0,0.0,0.0,0.0,0.0,0.0,0.0,0.0,0.0,0.0,0.0,0.0,0.0,0.0,0.0,0.0,0.0,0.0,0.0,0.0,0.0,0.0,0.0,0.0,0.0,-2.4664,-2.4435,-2.4798,-2.5019,-2.4759,-2.495,-2.5083,-2.4976,-2.5088,-2.516,-2.516,-2.5252,-2.5231,-2.5099,-2.5063,-2.5013,-2.4934,-2.4865,-2.4779,-2.4654,-2.4526,-2.4476,-2.4526,-2.4192,-2.404,-2.4058,-2.3834,-2.3598,-2.3371,-2.3206,-2.3035,-2.2919,-2.2868,-2.2816,-2.2738,-2.2833,-2.2825,-2.2685,-2.2632,-2.2262,-2.1687,0.0,0.0,0.0,0.0,0.0,0.0,0.0,-1.791,-1.8229,-1.8138,-1.8001,-1.8087,-1.8491,-1.8288,-1.8358,-1.8981,-1.9246,-1.9416,-1.9493,-2.0039,-2.0671,0.0,0.0,-2.3087,-2.4186,-2.4956,-2.5851,-2.6894,-2.7622,-2.8066,-2.8216,-2.854,-2.8481,-2.8094,-2.817,-2.8096,-2.7956,-2.7976,-2.7695,-2.7195,-2.6657,-2.5478,-2.3988,-2.3731,-2.3565,-2.351,-2.3582,-2.395,-2.4412,-2.4447,0.0,0.0,0.0,0.0,0.0,0.0,0.0,0.0,0.0,0.0,0.0,0.0,0.0,0.0,0.0,0.0,0.0,0.0,0.0,0.0,0.0,0.0,0.0,0.0,-2.3765,-2.4511,-2.4885,-2.4942,-2.4942,-2.4942,-2.4942,-2.5019,-2.5212,-2.5084,-2.5024,-2.5072,-2.5091,-2.5043,-2.4929,-2.4888,-2.4818,-2.4746,-2.4704,-2.461,-2.4442,-2.4392,-2.4374,-2.4338,-2.4059,-2.3919,-2.3896,-2.362,-2.3412,0.0,-2.307,-2.2944,-2.2825,-2.247,-2.228,0.0,0.0,0.0,0.0,0.0,-2.1661,-2.0908,0.0,0.0,0.0,0.0,0.0,0.0,0.0,-1.7975,-1.8368,-1.8249,-1.8408,-1.8544,-1.8566,-1.8716,-1.8877,-1.9048,-1.9326,-1.9534,-1.967,-2.0584,0.0,-2.1684,-2.334,-2.4312,-2.4481,-2.6094,-2.6973,-2.7045,-2.8584,-2.8944,-2.8213,-2.8914,-2.8895,-2.8272,-2.8758,-2.8925,-2.8844,-2.9305,-2.8947,-2.8086,-2.7886,-2.6888,-2.5458,-2.463,-2.4337,-2.432,-2.4228,-2.4266,-2.4394,-2.4394,0.0,0.0,0.0,0.0,0.0,0.0,0.0,0.0,0.0,0.0,0.0,0.0,0.0,0.0,0.0,0.0,0.0,0.0,0.0,0.0,0.0,0.0,0.0,0.0,-2.3549,-2.3798,-2.4564,-2.4676,-2.4676,-2.4707,-2.4707,-2.4808,-2.5049,-2.4968,-2.4896,-2.4949,-2.4858,-2.478,-2.4775,0.0,0.0,0.0,0.0,-2.4495,-2.4173,-2.432,-2.4356,-2.4229,-2.4115,-2.3959,-2.3813,-2.3584,-2.3382,-2.3241,-2.3052,-2.2892,-2.2694,-2.1967,-2.1564,-2.1446,-2.2143,-2.2427,-2.2315,-2.1515,-2.0786,-2.0196,0.0,0.0,0.0,0.0,0.0,0.0,0.0,-1.7522,-1.7859,-1.7905,-1.833,-1.8603,-1.8465,-1.8698,-1.8895,-1.8948,-1.918,-1.9763,-2.0734,0.0,-2.1941,-2.3439,-2.4553,-2.5474,-2.6195,-2.7241,-2.7806,-2.7861,-2.8207,-2.832,-2.8198,-2.8301,-2.8636,-2.914,-2.8997,-2.9159,-2.9583,-2.9458,-2.9135,-2.8659,-2.7995,-2.7193,-2.6282,-2.5456,-2.5164,-2.5072,-2.4429,-2.4247,-2.4339,-2.4394,-2.4429,-2.4461,-2.4634,0.0,0.0,0.0,0.0,0.0,0.0,0.0,0.0,0.0,0.0,0.0,0.0,0.0,0.0,0.0,0.0,0.0,0.0,0.0,0.0,-2.3412,-2.4016,-2.4457,-2.453,-2.4551,-2.4582,-2.4692,-2.4707,-2.4764,-2.4929,-2.4823,-2.4716,-2.4682,-2.4756,-2.4731,-2.4578,-2.4491,-2.4441,-2.4407,-2.4284,-2.4153,-2.4036,-2.3919,-2.3837,-2.381,0.0,0.0,-2.3342,-2.3295,-2.3126,-2.2876,-2.2868,-2.247,-2.1823,-2.1685,-2.1204,-2.0622,-2.0727,-2.0729,-2.0593,-1.9792,-1.9352,-1.9077,0.0,0.0,0.0,0.0,0.0,0.0,0.0,-1.7614,-1.8153,-1.8142,-1.8351,-1.8487,-1.8445,-1.8659,-1.8825,-1.8931,-1.923,-1.9861,0.0,-2.1559,-2.2713,-2.457,-2.5514,-2.64,-2.7277,-2.8191,-2.8454,-2.8046,-2.8525,-2.832,-2.7496,-2.7464,-2.7438,-2.7423,-2.8055,-2.8427,-2.8585,-2.9232,-2.9291,-2.8915,-2.8419,-2.8036,-2.7588,-2.6405,-2.569,-2.5287,-2.4942,-2.456,-2.4266,-2.4376,-2.4357,-2.4356,-2.4617,-2.3987,-2.3033,0.0,0.0,0.0,0.0,0.0,0.0,0.0,0.0,0.0,0.0,0.0,0.0,0.0,0.0,-2.2351,0.0,0.0,-2.3596,-2.3892,-2.4321,-2.4582,-2.4517,-2.45,-2.4515,-2.4599,-2.4599,-2.4645,-2.4794,-2.466,-2.4564,-2.4556,-2.4524,-2.4459,-2.4357,-2.4321,-2.4284,-2.4248,-2.4153,-2.4054,-2.3937,-2.3837,-2.3774,-2.3768,-2.3589,-2.3448,-2.3319,-2.2788,-2.2485,-2.2327,-2.1846,-2.1416,-2.1004,-2.0504,-1.9816,-1.9086,-1.8975,-1.9236,-1.9597,-1.9148,-1.875,-1.8347,0.0,0.0,0.0,0.0,0.0,0.0,0.0,-1.7547,-1.8258,-1.8385,-1.8368,-1.8368,-1.8465,-1.862,-1.8789,-1.9001,-1.9308,-1.9945,0.0,-2.1985,-2.3404,-2.5409,-2.6357,-2.7225,-2.8104,-2.8878,-2.8932,-2.8252,-2.884,-2.8416,-2.7048,-2.6885,-2.6563,-2.6213,-2.7304,-2.7791,-2.7888,-2.9044,-2.9293,-2.8947,-2.8761,-2.8628,-2.8403,-2.7132,-2.6191,-2.5502,-2.5252,-2.4723,-2.421,-2.4358,-2.4303,-2.4248,-2.4582,-2.4016,-2.3122,-2.2678,-2.2318,0.0,0.0,0.0,0.0,0.0,0.0,0.0,0.0,0.0,-2.2547,-2.2599,-2.2622,-2.2828,-2.3459,-2.359,-2.3817,-2.4405,-2.45,-2.45,-2.45,-2.45,-2.45,-2.45,-2.45,-2.4532,-2.4645,-2.4515,-2.4428,-2.4458,-2.4302,-2.421,-2.419,-2.419,-2.417,-2.4113,-2.4094,-2.4016,-2.3917,-2.3876,-2.3813,-2.375,-2.3388,-2.3216,-2.3152,-2.2101,-2.1633,-2.1574,-2.0651,-2.0228,-2.0153,-1.9165,-1.8369,-1.7789,-1.7658,-1.8097,-1.8784,-1.8744,-1.8347,-1.7816,0.0,0.0,0.0,0.0,0.0,0.0,0.0,0.0,-1.7107,-1.7949,-1.8304,-1.8445,-1.833,-1.8601,-1.8878,-1.9066,-1.9335,0.0,-2.1859,-2.2294,-2.3598,-2.6085,-2.7151,-2.8073,-2.8952,-2.9135,-2.9187,-2.9154,-2.8482,-2.8083,-2.7949,-2.7152,-2.7544,-2.8839,-2.806,-2.842,-2.9585,-2.9361,-2.9079,-2.8791,-2.8466,-2.8034,-2.7543,-2.7302,-2.6877,-2.6179,-2.4772,-2.4245,-2.421,-2.4358,-2.4411,-2.4481,-2.465,-2.4472,-2.4126,-2.3681,0.0,-2.2058,-2.1505,-2.129,0.0,-2.1905,-2.2032,-2.2374,0.0,0.0,-2.3208,-2.3914,-2.4116,-2.417,-2.4263,-2.4352,-2.4405,-2.4481,-2.45,-2.45,-2.45,-2.45,-2.45,-2.45,-2.45,-2.45,-2.4534,-2.45,-2.4429,-2.4339,-2.4303,-2.4266,-2.419,-2.419,-2.4208,-2.419,-2.4074,-2.3996,-2.3996,-2.381,-2.3656,-2.3522,-2.2678,-2.2159,-2.1965,-2.1115,-2.068,-2.0528,-1.97,-1.9327,-1.9184,-1.8297,-1.7896,-1.7789,-1.7658,-1.7662,-1.7752,-1.7752,-1.7702,-1.7635,0.0,0.0,0.0,0.0,0.0,0.0,0.0,0.0,0.0,-1.8078,-1.8201,-1.8284,-1.829,-1.8639,-1.8932,-1.9086,0.0,0.0,-2.198,-2.235,-2.3859,-2.6911,-2.7459,-2.8358,-2.9766,-2.9836,-2.9674,-2.9293,-2.8936,-2.8536,-2.8094,-2.7657,-2.7828,-2.8541,-2.8401,-2.8641,-2.9158,-2.9268,-2.9206,-2.8975,-2.8244,-2.7838,-2.7523,-2.6066,-2.5379,-2.513,-2.4468,-2.3916,0.0,0.0,-2.3047,-2.3087,-2.3255,-2.3188,-2.2955,-2.242,-2.2205,0.0,-2.2443,0.0,0.0,0.0,-2.3172,-2.3603,-2.37,-2.3913,-2.4132,-2.4319,-2.4394,-2.4412,-2.4447,-2.4482,-2.45,0.0,-2.45,-2.45,-2.45,-2.45,-2.45,-2.45,-2.45,-2.45,-2.45,-2.4465,-2.443,-2.4358,-2.4284,-2.4229,-2.4191,-2.4152,-2.4113,-2.4094,-2.3996,-2.3917,-2.3896,-2.3768,-2.3422,-2.2851,-2.2774,-2.2224,-2.1208,-2.0761,-1.9958,-1.8933,-1.8586,-1.8359,-1.8188,-1.7792,-1.7589,-1.7502,-1.7441,-1.7353,-1.7288,-1.7502,-1.7612,-1.7656,0.0,0.0,0.0,0.0,0.0,0.0,0.0,0.0,0.0,0.0,-1.8117,-1.8138,-1.8348,-1.8697,-1.8966,-1.9087,0.0,0.0,0.0,-2.2106,-2.3687,-2.6719,-2.7081,-2.8017,-2.9767,-2.964,-2.9543,-2.9552,-2.9381,-2.9124,-2.8756,-2.8424,-2.8376,-2.8613,-2.8687,-2.8783,-2.8921,-2.9173,-2.9209,-2.9049,-2.7972,-2.7409,-2.6972,-2.4888,-2.3916,-2.369,-2.3672,-2.3268,0.0,0.0,-2.214,-2.2152,-2.2289,-2.2257,-2.207,-2.1651,-2.1926,-2.2432,-2.2712,0.0,0.0,-2.3382,-2.4046,-2.4546,-2.3892,-2.4257,-2.4689,-2.4497,-2.4464,-2.4464,-2.45,-2.4534,0.0,-2.45,-2.45,-2.45,-2.45,-2.45,-2.45,-2.45,-2.45,-2.45,-2.45,-2.4447,-2.4375,-2.4339,-2.4247,-2.4191,-2.4154,-2.4095,-2.4054,-2.3996,-2.3937,-2.3876,-2.3774,-2.3491,-2.3027,-2.2311,-2.2291,-2.1726,-2.0723,-2.0333,-1.9293,-1.7794,-1.7755,-1.7595,-1.7361,-1.7281,-1.7167,-1.7076,-1.7059,-1.6933,-1.6783,-1.7085,-1.7296,-1.7491,0.0,0.0,0.0,0.0,0.0,0.0,0.0,0.0,0.0,0.0,0.0,0.0,0.0,-1.8789,-1.9016,0.0,0.0,0.0,0.0,-2.1518,-2.2836,-2.4893,-2.5735,-2.6896,-2.852,-2.7989,-2.8498,-3.0177,-2.9586,-2.9695,-3.0408,-2.9563,-2.9506,-3.0087,-2.9004,-2.894,-2.9625,-2.9132,-2.8911,-2.881,-2.7682,-2.6475,-2.5246,-2.4205,-2.3125,-2.217,-2.2083,0.0,0.0,0.0,-2.2395,-2.2395,-2.2401,-2.2357,0.0,-2.2357,-2.2554,0.0,0.0,0.0,-2.3781,-2.3778,-2.4289,-2.4804,-2.4832,-2.4719,-2.4596,-2.4591,-2.4591,-2.4559,-2.4498,-2.4615,-2.4645,-2.4534,-2.45,-2.45,-2.45,-2.45,-2.45,-2.45,-2.45,-2.45,0.0,-2.4447,-2.4339,-2.421,-2.4209,-2.417,-2.4113,-2.4036,-2.3996,-2.3996,-2.3937,-2.3837,-2.3692,-2.2929,-2.2386,-2.2096,-2.0601,-2.0139,-2.057,-1.9642,-1.8597,-1.7509,-1.7368,-1.7126,-1.6815,-1.6607,-1.6528,-1.6528,-1.6459,-1.6293,-1.6142,-1.6142,-1.6507,-1.6993,0.0,0.0,0.0,0.0,0.0,0.0,0.0,0.0,0.0,0.0,0.0,0.0,0.0,0.0,0.0,0.0,0.0,0.0,0.0,-2.0206,-2.1245,-2.3221,-2.4502,-2.5721,-2.687,-2.7184,-2.6847,-2.5896,-2.6652,-2.6335,-2.5026,-2.6228,-2.7257,-2.7974,-2.7605,-2.8185,-2.9341,-2.7957,-2.7742,-2.8117,-2.6033,-2.4994,-2.4432,-2.2531,-2.1618,-2.1304,0.0,0.0,0.0,-2.0913,-2.0774,-2.0769,-2.0842,-2.0891,0.0,-2.1636,-2.187,-2.2087,0.0,0.0,-2.3873,-2.446,-2.4765,-2.4943,-2.5019,-2.4907,-2.476,-2.4689,-2.4148,-2.3675,-2.3758,-2.3726,-2.3726,-2.3821,-2.4209,-2.4513,-2.4566,-2.4532,-2.4497,-2.4497,-2.4498,0.0,0.0,0.0,0.0,-2.4339,-2.4247,-2.4191,-2.4172,-2.4056,-2.3976,-2.3876,-2.3286,-2.289,-2.2704,-2.185,-2.1348,-2.1153,-1.9965,-1.9722,-2.0278,-1.8731,-1.7952,-1.788,-1.7154,-1.6881,-1.6962,-1.6468,-1.6145,-1.5966,-1.5938,-1.5838,-1.568,-1.5506,-1.5622,-1.5981,0.0,0.0,0.0,0.0,0.0,0.0,0.0,0.0,0.0,0.0,0.0,0.0,0.0,0.0,0.0,0.0,0.0,0.0,0.0,0.0,-1.9935,-2.0965,-2.2178,-2.3069,-2.3542,-2.4057,-2.3554,-2.1954,-2.3199,-2.3067,-2.1696,-2.3474,-2.4829,-2.577,-2.5958,-2.6744,-2.7857,-2.6502,-2.614,-2.63,-2.4446,-2.3419,-2.2858,-2.1432,-2.0752,0.0,0.0,0.0,0.0,-2.025,-2.0116,-2.0086,-2.0158,-2.0176,-2.0383,-2.128,-2.1758,-2.2269,0.0,-2.4098,-2.4474,-2.5015,-2.5118,-2.5118,-2.5157,-2.505,-2.4839,-2.4473,-2.3865,-2.3431,-2.346,-2.3416,-2.3499,-2.3873,-2.4273,-2.4547,-2.458,-2.4564,-2.4547,-2.4547,-2.4513,0.0,0.0,0.0,0.0,-2.4339,-2.4229,-2.4154,-2.4154,-2.4036,-2.379,-2.342,-2.2867,-2.2345,-2.1807,-2.0983,-2.0305,-1.9804,-1.9636,-1.9634,-1.9685,-1.8358,-1.7814,-1.7824,-1.6763,-1.632,-1.6293,-1.5801,-1.5492,-1.5344,-1.53,-1.5196,-1.5059,-1.489,-1.4814,-1.4966,0.0,0.0,0.0,0.0,0.0,0.0,0.0,0.0,0.0,0.0,0.0,0.0,0.0,0.0,0.0,0.0,0.0,0.0,0.0,0.0,0.0,-1.8185,-1.8962,-1.9228,-1.885,-1.9025,-1.8906,-1.8471,-1.9341,-1.9952,-2.0318,-2.1322,-2.239,-2.3474,-2.4017,-2.4659,-2.5287,-2.4688,-2.4145,-2.3572,-2.2917,-2.1861,-2.0696,-2.0867,0.0,0.0,0.0,0.0,0.0,0.0,0.0,0.0,0.0,0.0,-2.0534,-2.1455,-2.232,-2.3147,-2.3948,-2.4826,-2.5478,-2.5412,-2.5351,-2.5313,-2.5313,-2.513,-2.4733,-2.3957,-2.3759,-2.3686,0.0,0.0,-2.389,-2.4538,-2.4639,-2.4615,-2.4615,-2.4615,-2.4615,0.0,0.0,0.0,0.0,0.0,0.0,-2.4229,0.0,-2.4113,-2.4094,-2.3976,-2.3553,-2.277,-2.2711,-2.217,-2.1096,-2.0314,-1.9368,-1.8289,-1.9566,-1.9695,-1.8831,-1.8444,-1.7957,-1.7396,-1.6222,-1.5477,-1.4994,-1.4763,-1.4651,-1.4637,-1.4515,-1.4388,-1.4254,-1.4254,-1.4144,-1.4052,0.0,0.0,0.0,0.0,0.0,0.0,0.0,0.0,0.0,0.0,0.0,0.0,0.0,0.0,0.0,0.0,0.0,0.0,0.0,0.0,0.0,0.0,0.0,0.0,0.0,0.0,0.0,0.0,0.0,-1.591,-1.4934,-1.7456,-1.9142,-2.0069,-2.0714,-2.1688,-2.2747,-2.1679,-2.1765,-2.2557,0.0,-2.0751,-2.0427,0.0,0.0,0.0,0.0,0.0,0.0,0.0,0.0,0.0,0.0,0.0,-2.252,-2.3368,-2.3774,-2.4117,-2.4922,-2.5313,-2.5476,-2.5423,-2.5397,-2.5369,-2.5369,-2.4754,-2.4124,-2.3922,-2.3271,-2.2787,0.0,0.0,0.0,-2.3973,-2.4388,0.0,-2.4676,-2.4663,0.0,0.0,0.0,-2.4564,-2.4564,-2.4515,0.0,0.0,-2.4321,-2.4228,-2.417,-2.4094,-2.3866,-2.3467,-2.2862,-2.1992,-2.089,-2.0436,-1.988,-1.9253,-1.9588,-1.9095,-1.7813,-1.6882,-1.6552,-1.6608,-1.5365,-1.4959,-1.5103,-1.4436,-1.4124,-1.4007,-1.3881,-1.3802,-1.3782,-1.3715,-1.3648,-1.3581,0.0,0.0,0.0,0.0,0.0,0.0,0.0,0.0,0.0,0.0,0.0,0.0,0.0,0.0,0.0,0.0,0.0,0.0,0.0,0.0,0.0,0.0,0.0,0.0,0.0,0.0,0.0,0.0,0.0,0.0,0.0,-1.4864,-1.6834,-1.819,-1.8857,-1.9837,-2.0918,-2.01,0.0,0.0,0.0,0.0,0.0,0.0,0.0,0.0,0.0,0.0,0.0,0.0,0.0,-2.1862,-2.2792,-2.3072,-2.3222,-2.4081,0.0,-2.4483,-2.5327,-2.5531,-2.5531,-2.5503,-2.5468,-2.5337,-2.4957,-2.4416,-2.3775,-2.3036,-2.2451,0.0,0.0,0.0,0.0,0.0,0.0,0.0,-2.4779,-2.4753,-2.4742,0.0,-2.4711,0.0,-2.465,-2.4582,-2.4515,0.0,-2.4375,-2.4266,-2.4209,-2.4133,-2.3687,-2.2801,-2.2247,-2.1372,-2.0232,-2.0134,-1.9791,-1.9201,-1.9003,-1.8394,-1.7452,-1.6366,-1.5965,-1.6128,0.0,-1.4515,-1.4547,-1.4,-1.3749,-1.3641,-1.3493,-1.3425,-1.3425,-1.3254,-1.3185,-1.3116,0.0,0.0,0.0,0.0,0.0,0.0,0.0,0.0,0.0,0.0,0.0,0.0,0.0,0.0,0.0,0.0,0.0,0.0,0.0,0.0,0.0,0.0,0.0,0.0,0.0,0.0,0.0,0.0,0.0,0.0,0.0,0.0,0.0,0.0,0.0,0.0,0.0,0.0,0.0,0.0,0.0,0.0,0.0,0.0,0.0,0.0,0.0,0.0,0.0,0.0,-2.2021,-2.196,-2.2516,-2.2996,-2.3411,-2.3735,-2.4148,-2.4645,-2.5418,-2.5617,-2.5615,-2.5604,-2.5465,-2.5143,-2.4399,-2.3987,-2.3377,-2.1899,0.0,0.0,-2.1602,0.0,-2.2836,-2.3749,0.0,-2.4666,-2.4869,-2.4847,-2.4808,-2.4808,-2.4798,-2.4791,-2.4714,-2.4647,-2.4599,-2.4534,-2.4411,-2.4303,-2.421,-2.4134,-2.3379,-2.1808,-2.1291,-2.0598,-1.9682,-1.9699,-1.9328,-1.861,-1.816,-1.7677,-1.7158,-1.6179,-1.5698,-1.557,0.0,0.0,-1.3641,-1.3493,-1.3412,-1.3344,-1.3185,-1.3129,-1.3047,-1.2803,-1.2697,-1.2627,0.0,0.0,0.0,0.0,0.0,0.0,0.0,0.0,0.0,0.0,-1.4384,-2.0396,0.0,0.0,0.0,0.0,0.0,0.0,0.0,0.0,0.0,0.0,0.0,0.0,0.0,0.0,0.0,0.0,0.0,0.0,0.0,0.0,0.0,0.0,0.0,0.0,0.0,0.0,0.0,0.0,0.0,0.0,0.0,0.0,0.0,0.0,0.0,0.0,0.0,0.0,-2.0234,-2.2443,-2.0997,-2.2667,-2.4592,-2.1756,-2.3072,-2.5499,-2.5646,-2.5681,-2.5673,-2.5621,-2.5046,-2.4471,-2.4315,-2.3153,0.0,0.0,0.0,-2.1594,-2.1606,-2.2177,0.0,-2.3771,0.0,0.0,0.0,0.0,-2.4888,0.0,0.0,0.0,0.0,0.0,0.0,0.0,0.0,-2.4446,-2.4209,-2.419,-2.3655,-2.2535,-2.0962,-2.0274,-2.0574,-1.9665,-1.8842,-1.8123,-1.778,-1.6864,-1.5506,-1.5086,-1.4679,-1.4226,-1.3888,0.0,-1.2978,-1.3012,-1.2861,-1.2685,-1.2838,-1.2733,-1.252,-1.2354,-1.2174,-1.1957,0.0,0.0,0.0,0.0,0.0,0.0,0.0,0.9544,0.5828,0.2171,-0.5605,-1.2178,-1.57,-1.5994,-1.7099,0.0,0.0,0.0,0.0,0.0,0.0,0.0,0.0,0.0,0.0,0.0,0.0,0.0,0.0,0.0,0.0,0.0,0.0,0.0,0.0,0.0,0.0,0.0,0.0,0.0,0.0,0.0,0.0,0.0,0.0,0.0,0.0,0.0,0.0,0.0,-1.9685,-1.9589,-1.7607,-2.0598,-2.4234,-2.1044,-2.2765,-2.5703,-2.5701,-2.5698,-2.5693,-2.5654,-2.533,-2.4787,-2.3845,0.0,0.0,0.0,0.0,-2.0985,-2.0972,0.0,0.0,0.0,0.0,0.0,0.0,0.0,0.0,0.0,0.0,0.0,0.0,0.0,0.0,0.0,0.0,-2.4498,-2.4266,-2.3345,-2.2335,-2.133,-2.036,-1.9944,-2.0127,-1.9344,-1.8576,-1.7899,-1.7164,-1.6167,-1.4935,-1.4825,-1.4383,-1.3728,-1.3648,0.0,-1.265,-1.265,-1.2473,-1.221,-1.2258,-1.2174,-1.1957,-1.1763,-1.159,-1.1479,0.0,0.0,0.0,0.0,0.0,0.0,0.0,1.3532,0.9733,0.8525,0.4603,-0.0654,-0.7409,-0.9438,-1.253,0.0,0.0,0.0,0.0,0.0,0.0,0.0,0.0,0.0,0.0,0.0,0.0,0.0,0.0,0.0,0.0,0.0,0.0,0.0,0.0,0.0,0.0,0.0,0.0,0.0,0.0,0.0,0.0,0.0,0.0,0.0,0.0,0.0,0.0,0.0,-1.88,-1.6522,-1.4329,-1.7947,-2.2406,-1.9419,-2.1812,-2.5426,-2.5428,-2.5566,-2.5662,-2.5461,-2.5283,-2.4729,-2.3111,-2.2591,0.0,0.0,-2.0404,-2.0398,-2.039,0.0,0.0,0.0,0.0,0.0,0.0,0.0,0.0,0.0,0.0,0.0,0.0,0.0,0.0,0.0,0.0,0.0,-2.408,-2.2246,-2.0825,-2.01,-1.967,-1.936,-1.9156,-1.8825,-1.8236,-1.7449,-1.6593,-1.5694,-1.4808,-1.4683,-1.4241,-1.3581,-1.3446,0.0,0.0,-1.2294,-1.2066,-1.1763,-1.1763,-1.1653,-1.1505,-1.1255,-1.1105,-1.1029,0.0,0.0,0.0,0.0,0.0,0.0,0.0,1.7526,1.6734,1.5528,1.494,1.2088,0.5415,-0.0843,-0.6798,0.0,0.0,0.0,0.0,0.0,0.0,0.0,0.0,0.0,0.0,0.0,0.0,0.0,0.0,0.0,0.0,0.0,0.0,0.0,0.0,0.0,0.0,0.0,0.0,0.0,0.0,0.0,0.0,0.0,0.0,0.0,0.0,0.0,0.0,0.0,0.0,-1.5455,-1.2698,-1.5185,-1.8421,-1.4877,0.0,0.0,-2.4518,-2.5092,-2.5507,-2.4726,-2.3925,-2.3082,-2.2127,0.0,0.0,0.0,-2.0388,-2.0408,-2.0394,-2.0449,0.0,0.0,0.0,0.0,0.0,0.0,0.0,0.0,0.0,0.0,0.0,0.0,0.0,0.0,0.0,0.0,-2.3314,-2.1297,-2.0174,-2.0263,-1.8968,-1.8194,-1.8048,-1.8138,-1.7569,-1.6344,-1.6192,-1.5649,-1.4777,-1.4235,-1.3795,-1.348,-1.2918,0.0,0.0,-1.1847,-1.1653,-1.1383,-1.1542,-1.1468,-1.1217,-1.1057,-1.0878,-1.0659,0.0,0.0,0.0,0.0,0.0,0.0,1.9333,1.9248,1.8821,1.7613,1.7424,1.6103,1.2727,0.932,0.3402,-0.6203,0.0,0.0,0.0,0.0,0.0,0.0,0.0,0.0,0.0,0.0,0.0,0.0,0.0,0.0,0.0,0.0,0.0,0.0,0.0,0.0,0.0,0.0,0.0,0.0,0.0,0.0,0.0,0.0,0.0,0.0,0.0,0.0,0.0,0.0,0.0,0.0,-1.2438,-1.2872,0.0,0.0,-1.5642,-1.8926,-2.1148,-2.2057,-2.2709,-2.4062,-2.414,-2.3513,-2.212,0.0,0.0,-2.058,-2.0468,-2.0468,-2.0458,-2.0429,-2.0681,0.0,0.0,0.0,0.0,0.0,0.0,0.0,0.0,0.0,0.0,0.0,0.0,0.0,0.0,0.0,-2.1873,-2.0843,-2.0027,-1.9592,-1.8931,-1.8318,-1.7774,-1.772,-1.6995,-1.5664,-1.5634,-1.5049,-1.3954,-1.3702,-1.3285,-1.2696,-1.2378,0.0,0.0,-1.1356,-1.1132,-1.0878,-1.0992,-1.0867,-1.0715,-1.0639,-1.0572,-1.0457,0.0,0.0,0.0,0.0,0.0,2.0003,2.0096,2.0083,1.975,1.8886,1.8636,1.8056,1.6872,1.593,1.177,0.2793,-0.3541,0.0,0.0,0.0,0.0,0.0,0.0,0.0,0.0,0.0,0.0,0.0,0.0,0.0,0.0,0.0,0.0,0.0,0.0,0.0,0.0,0.0,0.0,0.0,0.0,0.0,0.0,0.0,0.0,0.0,0.0,0.0,0.0,0.0,0.0,0.0,0.0,0.0,0.0,0.0,-1.3455,-1.5523,-1.6204,-1.8679,-2.0972,-2.0589,-2.2079,-2.2971,0.0,0.0,-2.1247,-2.0599,-2.0468,-2.0468,-2.0473,-2.0418,-2.0572,0.0,0.0,0.0,0.0,0.0,0.0,0.0,0.0,0.0,0.0,0.0,0.0,0.0,0.0,0.0,0.0,-2.0541,-2.0036,-1.9087,-1.8297,-1.7595,-1.7034,-1.6727,-1.5791,-1.4204,-1.4781,-1.43,-1.2914,-1.302,-1.2754,-1.2162,0.0,0.0,0.0,-1.0992,-1.0764,-1.0544,-1.0505,-1.0428,-1.0322,-1.041,-1.0342,-1.0234,0.0,0.0,0.0,0.0,0.0,0.0,2.0119,2.016,2.0171,2.0098,1.9726,1.9044,1.791,1.742,1.6685,1.55,0.8595,0.0,0.0,0.0,0.0,0.0,0.0,0.0,0.0,0.0,0.0,0.0,0.0,0.0,0.0,0.0,0.0,0.0,0.0,0.0,0.0,0.0,0.0,0.0,0.0,0.0,0.0,0.0,0.0,0.0,0.0,0.0,0.0,0.0,0.0,0.0,0.0,0.0,0.0,0.0,-1.2895,-1.599,-0.9638,-1.5339,-2.1172,-1.3289,-1.6629,-2.0691,0.0,0.0,-2.0499,-2.0415,-2.0402,-2.0396,-2.0405,-2.036,-2.0294,-2.0313,-2.1031,0.0,0.0,0.0,0.0,0.0,0.0,0.0,0.0,0.0,0.0,0.0,0.0,0.0,0.0,-2.0303,-2.0099,-1.9033,-1.6683,-1.5437,-1.5411,-1.4886,-1.361,-1.165,-1.3513,-1.35,-1.182,-1.2092,-1.221,0.0,0.0,0.0,0.0,-1.0774,-1.0505,-1.039,-1.0312,-1.0205,-1.0127,-1.0476,-1.0218,-0.9873,0.0,0.0,0.0,0.0,0.0,0.0,0.0,2.0276,2.0238,2.0171,2.0021,1.9661,1.8977,1.8072,1.7318,1.6742,0.9766,0.0,0.0,0.0,0.0,0.0,0.0,0.0,0.0,0.0,0.0,-0.8776,-0.736,0.0,0.0,0.0,0.0,0.0,0.0,0.0,0.0,0.0,0.0,0.0,0.0,0.0,0.0,0.0,0.0,0.0,0.0,0.0,0.0,0.0,0.0,0.0,0.0,0.0,0.0,-0.3955,-0.4919,0.0,-0.8107,-1.0523,-1.3076,-1.4963,-1.8652,-2.1278,-1.9284,0.0,-2.0492,-2.0469,-2.0468,-2.0452,-2.041,-2.0379,-2.0379,-2.0379,-2.0553,0.0,0.0,0.0,0.0,0.0,0.0,0.0,0.0,0.0,0.0,0.0,0.0,0.0,0.0,-1.3447,-1.3116,-1.711,-1.7166,-1.5958,-1.3585,-1.3594,-1.3056,-1.1863,-1.2253,-1.2092,-1.1503,-1.1044,0.0,0.0,0.0,0.0,0.0,-1.0656,-1.0622,-1.0611,-1.0845,-1.0736,-1.0485,-1.0656,-1.0426,-1.01,0.0,0.0,0.0,0.0,0.0,0.0,0.0,2.0363,2.0287,2.0208,2.0012,1.9764,1.9465,1.8689,1.8065,1.7735,1.2991,0.0,0.0,0.0,0.0,0.0,0.0,0.0,0.0,0.0,-0.2895,-0.3046,-0.1335,-0.0615,-0.0795,0.0,0.0,0.0,0.0,0.0,0.0,0.0,0.0,0.0,0.0,0.0,-1.568,0.0,0.0,0.0,0.0,0.0,0.0,0.0,0.0,0.0,0.0,0.0,0.0,0.0,-0.009,-0.0354,0.0,-0.6868,-0.9237,-1.19,-1.5958,0.0,0.0,0.0,0.0,-2.048,-2.0454,-2.0435,-2.0369,-2.0366,-2.036,-2.0365,-2.0328,0.0,0.0,0.0,0.0,0.0,0.0,0.0,0.0,0.0,0.0,0.0,0.0,0.0,0.0,-1.0375,-1.0294,-1.2779,-1.3775,-1.3642,-1.2272,-1.2286,-1.1794,-1.0754,-1.104,-1.0944,-1.0492,-1.0035,0.0,0.0,0.0,0.0,0.0,-1.039,-1.0503,-1.0619,-1.0994,-1.0938,-1.0751,-1.0858,-1.057,-1.0206,0.0,0.0,0.0,0.0,0.0,0.0,0.0,2.0391,2.027,2.0224,1.981,1.9532,1.9492,1.921,1.889,1.8535,0.0,0.0,0.0,0.0,0.0,0.0,0.0,0.0,0.0,0.1534,0.3424,0.3046,0.7233,0.9042,0.8581,0.8206,0.802,0.0,0.0,0.0,0.0,0.0,0.0,0.0,0.0,-0.8007,0.0,0.0,0.0,0.0,0.0,0.0,0.0,0.0,0.0,0.0,0.0,0.0,0.0,0.0,0.0,0.0,0.0,-0.4308,-0.879,-0.549,-0.9989,-1.5203,0.0,0.0,0.0,0.0,-2.0411,-2.0399,-2.0327,-2.0301,-2.0308,-2.0308,0.0,0.0,0.0,0.0,0.0,0.0,0.0,0.0,0.0,0.0,0.0,0.0,0.0,0.0,0.0,-0.9734,-0.9974,-0.6552,-0.7126,-0.8759,-1.1346,-1.084,-0.9994,-0.8776,-0.9874,-0.9956,-0.9076,-0.9188,0.0,0.0,0.0,0.0,0.0,-0.9984,-1.0215,-1.0435,-1.0849,-1.0984,-1.0903,-1.1042,-1.0655,-1.0237,0.0,0.0,0.0,0.0,0.0,0.0,0.0,0.0,0.0,0.0,2.015,1.9895,1.9545,1.9374,1.9068,0.0,0.0,0.0,0.0,0.0,0.0,0.0,0.0,0.0,0.0,0.8538,0.8492,0.8382,0.9325,0.975,0.9624,0.9379,0.9086,0.8548,0.4384,0.0,0.0,0.0,0.0,0.0,-0.5647,-0.8019,0.0,0.0,0.0,0.0,-1.1073,-0.7977,0.0,0.0,0.0,0.0,0.0,0.0,0.0,0.0,0.2169,0.216,0.1417,0.0,-0.6254,-0.5482,-1.0272,-1.52,0.0,0.0,0.0,0.0,0.0,-2.0466,-2.0396,-2.0371,0.0,0.0,0.0,0.0,0.0,0.0,0.0,0.0,0.0,0.0,0.0,0.0,0.0,0.0,0.0,0.0,0.0,-0.107,0.0216,-0.1096,-0.0326,-0.3166,-0.9986,-0.9075,-0.8864,-0.938,-0.881,-0.8971,-0.9715,-0.8871,0.0,0.0,0.0,0.0,-0.9555,-1.0106,-1.0356,-1.0457,-1.1134,-1.1081,-1.0634,-1.0953,-1.0663,-1.0132,0.0,0.0,0.0,0.0,0.0,0.0,0.0,0.0,0.0,0.0,0.0,0.0,0.0,0.0,0.0,0.0,0.0,0.0,0.0,0.0,0.0,0.0,0.0,0.0,0.0,1.233,1.197,1.221,1.1723,1.156,1.1703,1.1126,1.0634,1.0174,0.7805,0.0,0.0,0.0,0.0,0.0,0.0961,0.0,0.0,0.0,0.0,0.0,-0.5398,-0.4497,0.0,-0.2613,-0.1274,-0.0314,0.0,0.0,0.0,0.0,0.2568,0.2473,0.2113,-0.1301,-0.5173,-0.7042,-1.1381,-1.5626,-1.7253,0.0,0.0,0.0,0.0,0.0,-2.0923,0.0,0.0,0.0,0.0,0.0,0.0,0.0,0.0,0.0,0.0,0.0,0.0,0.0,0.0,0.0,0.0,0.0,0.0,0.3661,0.4793,0.3382,0.2915,-0.0572,-0.7331,-0.6915,-0.717,-0.8015,-0.7949,-0.8323,-0.9011,-0.8641,-0.8686,0.0,0.0,0.0,-0.939,-0.9923,-1.0181,-1.0392,-1.099,-1.1006,-1.0706,-1.0805,-1.0604,-1.0266,0.0,0.0,0.0,0.0,0.0,0.0,0.0,0.0,0.0,0.0,0.0,0.0,0.0,0.0,0.0,0.0,0.0,0.0,0.0,0.0,0.0,0.0,0.0,1.4592,1.4477,1.4076,1.4046,1.4454,1.3654,1.3388,1.368,1.2806,1.2234,1.1957,1.1689,0.0,0.0,0.0,0.0,0.0,0.852,0.0,0.0,0.0,0.0,0.0,0.0,0.0,0.0,-0.125,-0.0631,-0.0578,0.2188,0.0,0.0,0.0,0.0,0.0,0.2979,-0.0317,-0.4331,-0.7405,-1.0846,-1.426,-1.7246,0.0,0.0,0.0,0.0,0.0,0.0,0.0,0.0,0.0,0.0,0.0,0.0,0.0,0.0,0.0,0.0,0.0,0.0,0.0,0.0,0.0,0.0,0.0,0.0,0.5522,0.5893,0.6371,0.3301,-0.047,-0.4736,-0.4815,-0.5198,-0.5954,-0.708,-0.7727,-0.7873,-0.8304,-0.8514,0.0,0.0,0.0,-0.9026,-0.946,-0.9791,-1.0095,-1.0506,-1.071,-1.0718,-1.0514,-1.0419,-1.0368,0.0,0.0,0.0,0.0,0.0,0.0,0.0,0.0,0.0,0.0,0.0,0.0,0.0,0.0,0.0,0.0,0.0,0.0,0.0,0.0,0.0,0.0,1.5998,1.5533,1.5227,1.4464,1.3967,1.3846,1.3654,1.3552,1.3608,1.3357,1.3045,1.272,1.2685,1.2318,0.0,0.0,0.0,1.095,1.0778,0.0,0.0,0.0,0.0,0.0,0.0,0.0,0.0,0.4913,0.4771,0.4512,0.4242,0.0,0.0,0.0,0.0,0.0,0.3648,0.0707,-0.1917,-0.0647,-0.2997,-0.5739,0.0,0.0,0.0,0.0,0.0,0.0,0.0,0.0,0.0,0.0,0.0,0.0,0.0,0.0,0.0,0.0,0.0,0.0,0.0,0.0,0.0,0.0,0.0,0.0,0.0,0.4559,0.5111,0.6357,0.0058,-0.3747,-0.4549,-0.3283,-0.3393,-0.4778,-0.5917,-0.6849,-0.7582,-0.7587,-0.7616,0.0,0.0,-0.8254,-0.8119,-0.8714,-0.911,-0.9361,-0.9547,-0.9762,-0.9999,-1.0205,-1.0102,-0.9903,0.0,0.0,0.0,0.0,0.0,0.0,0.0,0.0,0.0,0.0,0.0,0.0,0.0,0.0,0.0,0.0,0.0,0.0,0.0,0.0,0.0,0.0,1.6962,1.6475,1.6208,1.5647,1.5428,1.566,1.4764,1.4445,1.4543,1.3576,1.3104,1.3012,1.3091,1.2988,1.2696,0.0,1.2259,1.1864,0.0,0.0,0.0,0.0,0.0,0.0,0.0,0.0,0.0,0.0,0.6658,0.6132,0.5387,0.0,0.0,0.0,0.0,0.0,0.4431,0.3057,0.1927,0.2746,-0.1648,-0.6215,0.0,0.0,0.0,0.0,0.0,0.0,0.0,0.0,0.0,0.0,0.0,0.0,0.0,0.0,0.0,0.0,0.0,0.0,0.0,0.0,0.0,0.0,0.0,0.0,0.0,0.0,0.3629,0.2985,-0.1581,-0.4005,-0.4005,-0.3416,-0.3602,-0.4523,-0.5675,-0.6421,-0.6794,-0.7425,-0.7692,-0.7686,0.0,-0.8113,-0.8184,-0.8469,-0.8573,-0.8514,-0.8554,-0.8501,-0.8343,-0.8541,-0.8606,-0.8508,0.0,0.0,0.0,0.0,0.0,0.0,0.0,0.0,0.0,0.0,0.0,0.0,0.0,0.0,0.0,0.0,0.0,0.0,0.0,0.0,1.8121,1.8191,1.7698,1.7256,1.6935,1.6528,1.6535,1.6956,1.5708,1.522,1.5412,1.4072,1.3433,1.3446,1.3501,1.3535,1.3547,1.3331,1.3032,1.2683,0.0,0.0,0.0,0.0,0.0,0.0,0.0,0.0,0.0,0.0,0.0,0.0,0.0,0.0,0.0,0.5142,0.5225,0.538,0.5305,0.5221,0.5009,0.4478,0.0,0.0,0.0,0.0,0.0,0.0,0.0,0.0,0.0,0.0,0.0,0.0,0.0,0.0,0.0,0.0,0.0,0.0,0.0,0.0,0.0,0.0,0.0,0.0,0.0,0.0,0.0,0.0,0.1909,0.0056,-0.2359,-0.361,-0.361,-0.3819,-0.4092,-0.4425,-0.5399,-0.5769,-0.571,-0.6907,-0.7331,-0.7219,-0.7492,-0.7771,-0.8103,-0.7937,-0.7877,-0.7765,-0.7605,-0.7331,-0.716,-0.7261,-0.7374,-0.7439,0.0,0.0,0.0,0.0,0.0,0.0,0.0,0.0,0.0,0.0,0.0,0.0,0.0,0.0,0.0,0.0,0.0,0.0,0.0,0.0,1.8406,1.8465,1.8191,1.7726,1.7019,1.6405,1.6055,1.5901,1.5551,1.5403,1.549,1.5176,1.4842,1.447,1.4305,1.4026,1.3682,1.3682,1.3635,1.3568,1.316,0.0,0.0,0.0,0.0,0.0,0.0,0.0,0.0,0.0,0.0,0.0,0.0,0.0,0.7307,0.6428,0.6807,0.7314,0.6452,0.6155,0.5856,0.4826,0.0,0.0,0.0,0.0,0.0,0.0,0.0,0.0,0.0,0.0,0.0,0.0,0.0,0.0,0.0,0.0,0.0,0.0,0.0,0.0,0.0,0.0,0.0,0.0,0.0,0.0,0.0,0.0,0.0,0.0,-0.2355,-0.3599,-0.3599,-0.3875,-0.4095,-0.4209,-0.4639,-0.457,-0.4174,-0.5399,-0.5668,-0.5152,-0.6253,-0.6858,-0.7139,-0.6588,-0.6794,-0.7439,-0.6637,-0.674,-0.7261,-0.7315,-0.7374,-0.7492,0.0,0.0,0.0,0.0,0.0,0.0,0.0,0.0,0.0,0.0,0.0,0.0,0.0,0.0,0.0,0.0,0.0,0.0,0.0,0.0,1.8454,1.8445,1.7975,1.7618,1.7368,1.7076,1.6823,1.6661,1.6143,1.5708,1.5359,1.5179,1.4982,1.4783,1.4797,1.4578,1.4181,1.4111,1.396,1.3741,1.3323,1.3047,0.0,0.0,0.0,0.0,0.0,0.0,0.0,0.0,0.8756,0.8103,0.7482,0.7474,0.7634,0.7259,0.7349,0.7447,0.707,0.6647,0.6221,0.5873,0.0,0.0,0.0,0.0,0.0,0.0,0.0,0.0,0.0,0.0,0.0,0.0,0.0,0.0,0.0,0.0,0.0,0.0,0.0,0.0,0.0,0.0,0.0,0.0,0.0,0.0,0.0,0.0,0.0,0.028,-0.1065,-0.185,-0.2188,-0.2465,-0.2573,-0.2517,-0.3405,-0.3677,-0.345,-0.4116,-0.4333,-0.4106,-0.4831,-0.5324,-0.5588,-0.5655,-0.5764,-0.5923,-0.5226,-0.5222,-0.5542,-0.5655,-0.5655,-0.5655,0.0,0.0,0.0,0.0,0.0,0.0,0.0,0.0,0.0,0.0,0.0,0.0,0.0,0.0,0.0,0.0,0.0,0.0,0.0,1.8859,1.8607,1.8565,1.8103,1.7827,1.7805,1.7572,1.737,1.7164,1.6562,1.604,1.5638,1.5344,1.5165,1.5134,1.5149,1.5027,1.4735,1.4637,1.4429,1.4072,1.3648,1.3391,0.0,0.0,0.0,0.0,0.0,0.0,0.0,0.0,0.9439,0.8918,0.8357,0.8226,0.8211,0.7889,0.7773,0.7704,0.7496,0.7083,0.6728,0.0,0.0,0.0,0.0,0.0,0.0,0.0,0.0,0.0,0.0,0.0,0.0,0.0,0.0,0.0,0.0,0.0,0.0,0.0,0.0,0.0,0.0,0.0,0.0,0.0,0.0,0.0,0.0,0.0,0.0,0.0,0.0224,-0.028,-0.0617,-0.14,-0.1568,-0.1063,-0.2066,-0.2621,-0.2732,-0.3226,-0.3337,-0.3171,-0.3788,-0.4336,-0.471,-0.4835,-0.4838,-0.4728,-0.4298,-0.4245,-0.4408,-0.4522,-0.4522,-0.4574,0.0,0.0,0.0,0.0,0.0,0.0,0.0,0.0,0.0,0.0,0.0,0.0,0.0,0.0,0.0,0.0,0.0,0.0,0.0,1.8913,1.8895,1.8895,1.8698,1.8471,1.822,1.7827,1.7432,1.7085,1.6633,1.6382,1.6398,1.5854,1.561,1.561,1.5388,1.5313,1.5313,1.5313,1.5117,1.4763,1.4292,1.3901,1.3547,0.0,0.0,0.0,0.0,0.0,0.0,0.0,1.0273,0.9961,0.9062,0.911,0.9319,0.83,0.8226,0.8349,0.769,0.7454,0.0,0.0,0.0,0.0,0.0,0.0,0.0,0.0,0.0,0.0,0.0,0.0,0.0,0.0,0.0,0.0,0.0,0.0,0.0,0.0,0.0,0.0,0.0,0.0,0.0,0.0,0.0,0.0,0.0,0.0,0.0,0.0,0.1234,0.0898,0.0898,-0.0898,-0.1178,-0.0,-0.0617,-0.1233,-0.1846,-0.2676,-0.273,-0.2232,-0.3347,-0.4119,-0.4656,-0.4181,-0.4021,-0.4021,-0.4021,-0.4079,-0.4193,-0.4193,-0.4301,-0.4519,0.0,0.0,0.0,0.0,0.0,0.0,0.0,0.0,0.0,0.0,0.0,0.0,0.0,0.0,0.0,0.0,0.0,0.0,0.0,1.8945,1.8789,1.8678,1.845,1.829,1.8211,1.7888,1.7455,1.6892,1.6738,1.6686,1.6686,1.6528,1.6313,1.608,1.6024,1.574,1.5314,1.5314,1.5102,1.4808,1.4637,1.4369,1.4059,0.0,0.0,0.0,0.0,0.0,0.0,0.0,0.0,0.0,0.9616,0.9408,0.9217,0.8805,0.8406,0.8036,0.7829,0.0,0.0,0.0,0.0,0.0,0.0,0.0,0.0,0.0,0.0,0.0,0.0,0.0,0.0,0.0,0.0,0.0,0.0,0.0,0.0,0.0,0.0,0.0,0.0,0.0,0.0,0.0,0.0,0.0,0.0,0.0,0.0,0.0,0.157,0.1066,0.0898,0.0112,-0.0224,-0.0,-0.0393,-0.0785,-0.1177,-0.1455,-0.1621,-0.1788,-0.2404,-0.2959,-0.3453,-0.3738,-0.3852,-0.3852,-0.3852,-0.391,-0.391,-0.4024,-0.3968,-0.3913,0.0,0.0,0.0,0.0,0.0,0.0,0.0,0.0,0.0,0.0,1.975,1.9668,0.0,0.0,0.0,1.9633,1.9578,0.0,1.9198,1.8998,1.8807,1.8695,1.8465,1.8246,1.8057,1.7883,1.7566,1.7075,1.6942,1.6892,1.6866,1.6659,1.6448,1.6274,0.0,1.5883,1.5507,1.5507,1.5224,1.4808,1.4808,1.4525,1.4072,0.0,0.0,0.0,0.0,0.0,0.0,0.0,0.0,0.0,1.0312,0.0,0.9448,0.8935,0.8439,0.801,0.7815,0.0,0.0,0.0,0.0,0.0,0.0,0.0,0.0,0.0,0.0,0.0,0.0,0.0,0.0,0.0,0.0,0.0,0.0,0.0,0.0,0.0,0.0,0.0,0.0,0.0,0.0,0.0,0.0,0.0,0.0,0.0,0.0,0.0,0.1737,0.1401,0.1122,0.0729,0.0505,0.0336,-0.0168,-0.0224,0.0168,-0.0561,-0.0897,-0.0896,-0.1398,-0.1845,-0.2291,-0.2905,-0.3186,-0.3186,-0.3186,-0.3186,-0.3297,-0.3355,-0.3357,-0.3297,0.0,0.0,2.0302,2.03,0.0,0.0,0.0,0.0,0.0,1.9877,1.9719,1.9602,0.0,0.0,0.0,1.942,1.939,1.9282,1.9018,1.9002,1.8932,1.8806,1.862,1.8325,1.7861,1.7856,1.7721,1.7538,1.7208,1.7059,1.7018,1.6554,1.6285,1.6231,0.0,1.5856,1.5799,1.5799,1.5448,1.4887,1.4856,1.4447,1.3888,1.3854,0.0,0.0,0.0,0.0,0.0,0.0,0.0,0.0,1.1067,1.0572,0.9913,0.8958,0.8464,0.8198,0.0,0.0,0.0,0.0,0.0,0.0,0.0,0.0,0.0,0.0,0.0,0.0,0.0,0.0,0.0,0.0,0.0,0.0,0.0,0.0,0.0,0.0,0.0,0.0,0.0,0.0,0.0,0.0,0.0,0.0,0.0,0.0,0.0,0.1902,0.1846,0.1792,0.1572,0.1178,0.0953,0.0,0.0168,0.0505,0.174,0.0112,-0.028,0.028,-0.0391,-0.0894,-0.1285,-0.1789,-0.2014,-0.2014,-0.2071,-0.2184,-0.2352,-0.2408,-0.246,-0.2556,0.0,0.0,2.0302,2.03,0.0,0.0,0.0,0.0,1.9855,1.9762,1.9655,1.9602,1.9602,1.9602,0.0,1.9555,1.936,1.9219,1.9152,1.8967,1.8824,1.8788,1.8751,1.8601,1.8365,1.8146,1.7932,1.7737,1.7505,1.7386,0.0,0.0,0.0,1.6501,0.0,1.6191,1.5799,1.5799,1.5712,1.5551,1.5299,1.4935,1.4556,1.43,1.404,0.0,0.0,0.0,0.0,0.0,0.0,0.0,1.1627,1.1008,1.0273,0.9884,0.8973,0.8089,0.0,0.0,0.0,0.0,0.0,0.0,0.0,0.0,0.0,0.0,0.0,0.0,0.0,0.0,0.0,0.0,0.0,0.0,0.0,0.0,0.0,0.0,0.0,0.0,0.0,0.0,0.0,0.0,0.0,0.0,0.0,0.0,0.0,0.2521,0.2408,0.2354,0.2298,0.168,0.1399,0.0,0.1343,0.1511,0.1792,0.1402,0.0896,0.0335,-0.0223,-0.0501,-0.0613,-0.0724,-0.078,-0.0836,-0.1061,-0.1229,-0.1285,-0.1454,-0.1594,-0.1663,0.0,0.0,0.0,0.0,0.0,0.0,0.0,0.0,1.9774,1.9713,1.9641,1.9602,1.9602,1.9602,0.0,0.0,1.9483,1.936,1.9298,1.9152,1.8984,1.877,1.8677,1.8544,1.831,1.817,1.8065,1.7954,0.0,0.0,0.0,0.0,0.0,1.6789,0.0,1.6367,1.5996,1.5996,1.5826,1.5551,1.5359,1.4996,1.4556,1.4365,1.4105,1.3788,1.3788,0.0,0.0,0.0,0.0,0.0,0.0,0.0,1.0836,1.0186,0.9482,0.8889,0.0,0.0,0.0,0.0,0.0,0.0,0.0,0.0,0.0,0.0,0.0,0.0,0.0,0.0,0.0,0.0,0.0,0.0,0.0,0.0,0.0,0.0,0.0,0.0,0.0,0.0,0.0,0.0,0.0,0.0,0.0,0.3357,0.3299,0.3244,0.3132,0.3021,0.291,0.2517,0.2406,0.2521,0.2747,0.28,0.2629,0.2467,0.2,0.1365,0.0886,0.0607,0.0599,0.0332,0.0223,0.0223,0.0056,-0.0111,-0.0219,-0.0333,-0.0487,-0.0621,0.0,0.0,0.0,0.0,0.0,0.0,0.0,0.0,0.0,1.9695,1.9641,1.9597,1.9602,1.9602,1.9602,0.0,0.0,0.0,1.9405,1.936,1.9152,1.8734,1.862,1.8448,1.8232,1.8191,1.817,0.0,0.0,0.0,0.0,0.0,0.0,1.7068,0.0,1.6501,1.6203,1.6203,1.5896,1.5389,1.5329,1.4966,1.4479,1.4429,1.417,1.3888,1.3841,1.3695,1.348,1.348,0.0,0.0,0.0,0.0,1.1494,1.0532,1.0108,0.9925,0.0,0.0,0.0,0.0,0.0,0.0,0.0,0.0,0.0,0.0,0.0,0.0,0.0,0.0,0.0,0.0,0.0,0.0,0.0,0.0,0.0,0.0,0.0,0.0,0.0,0.0,0.0,0.0,0.0,0.0,0.3965,0.3968,0.3858,0.3744,0.3796,0.3685,0.3411,0.3411,0.3527,0.3649,0.3855,0.3828,0.352,0.3194,0.2884,0.2505,0.2138,0.191,0.1811,0.1378,0.1229,0.1229,0.1174,0.0986,0.0801,0.0823,0.069,0.0399,0.0,0.0,0.0,0.0,0.0,0.0,0.0,0.0,0.0,0.0,1.9665,1.9665,1.9615,1.9602,1.9602,1.9602,1.9497,1.942,1.939,0.0,0.0,1.8788,1.8769,1.8751,1.8696,1.8544,1.8445,0.0,0.0,0.0,0.0,0.0,0.0,1.7337,0.0,0.0,1.6203,1.6203,1.6024,1.5712,1.5418,1.5269,1.5134,1.4856,1.4525,1.4222,1.4098,1.3802,1.348,1.3425,1.322,0.0,0.0,0.0,0.0,1.1653,1.1025,0.0,0.0,0.0,0.0,0.0,0.0,0.0,0.0,0.0,0.0,0.0,0.0,0.0,0.0,0.0,0.0,0.0,0.0,0.0,0.0,0.0,0.0,0.0,0.0,0.0,0.0,0.0,0.0,0.0,0.0,0.0,0.3852,0.3691,0.3638,0.3638,0.3744,0.3796,0.3741,0.3855,0.3913,0.3968,0.3851,0.3629,0.3267,0.3217,0.3007,0.277,0.2566,0.2511,0.2454,0.2485,0.2465,0.241,0.2127,0.1974,0.1861,0.1659,0.1486,0.1344,0.0,0.0,0.0,0.0,0.0,0.0,0.0,0.0,0.0,0.0,0.0,1.9625,1.9597,1.9602,1.9602,1.9602,1.9483,1.936,1.9298,1.912,1.8966,1.8914,1.8843,1.8788,1.8788,1.9158,1.9082,0.0,0.0,0.0,0.0,1.854,1.8068,0.0,0.0,0.0,0.0,1.6324,1.612,1.5996,1.5697,1.5418,1.5165,1.5027,1.4749,1.4388,1.4356,1.4181,1.3967,1.3735,1.3581,1.3391,1.3082,0.0,0.0,0.0,0.0,0.0,0.0,0.0,0.0,0.0,0.0,0.0,0.0,0.0,0.0,0.0,0.0,0.0,0.0,0.0,0.0,0.0,0.0,0.0,0.0,0.0,0.0,0.0,0.0,0.0,0.0,0.0,0.0,0.0,0.0,0.4401,0.4401,0.4349,0.4298,0.4193,0.4301,0.4187,0.4024,0.4079,0.4204,0.4385,0.447,0.4357,0.4108,0.3778,0.3291,0.2711,0.2774,0.279,0.2697,0.2798,0.2773,0.2724,0.2505,0.2316,0.2205,0.2101,0.2022,0.1896,0.0,0.0,0.0,0.0,0.0,0.0,0.0,0.0,0.0,0.0,0.0,1.9611,1.9602,0.0,0.0,0.0,1.9508,1.942,1.928,1.9184,1.9086,1.9001,1.9112,1.9146,1.9109,1.9856,0.0,0.0,0.0,0.0,1.916,1.8705,1.8107,0.0,1.7379,0.0,0.0,0.0,0.0,1.612,1.5955,1.561,1.5195,0.0,0.0,0.0,0.0,1.4501,1.4374,1.4098,1.3947,1.3782,1.3425,1.322,0.0,0.0,0.0,0.0,0.0,0.0,0.0,0.0,0.0,0.0,0.0,0.0,0.0,0.0,0.0,0.0,0.0,0.0,0.0,0.0,0.0,0.0,0.0,0.0,0.0,0.0,0.0,0.0,0.0,0.0,0.0,0.0,0.0,0.4901,0.5066,0.5007,0.5011,0.5069,0.5069,0.4959,0.4684,0.4645,0.4683,0.4829,0.4976,0.4931,0.4757,0.4338,0.3727,0.3053,0.3168,0.3209,0.3092,0.3192,0.3169,0.3044,0.2885,0.2672,0.2433,0.2407,0.2334,0.2164,0.0,0.0,0.0,0.0,0.0,0.0,0.0,0.0,0.0,0.0,0.0,1.9679,1.9615,1.9602,1.9602,1.9602,1.9652,1.9633,1.9485,1.9471,1.9323,1.9001,1.9723,0.0,1.993,0.0,0.0,0.0,0.0,0.0,1.7995,1.7579,1.7363,1.7338,1.7969,1.7701,1.6815,0.0,0.0,0.0,1.6067,1.5826,0.0,0.0,0.0,0.0,0.0,0.0,0.0,1.4319,1.4254,1.4222,1.4032,0.0,0.0,0.0,0.0,0.0,0.0,0.0,0.0,0.0,0.0,0.0,0.0,0.0,0.0,0.0,0.0,0.0,0.0,0.0,0.0,0.0,0.0,0.0,0.0,0.0,0.0,0.0,0.0,0.0,0.0,0.0,0.0,0.0,0.0,0.4963,0.5508,0.5395,0.5555,0.61,0.61,0.61,0.61,0.5857,0.5512,0.5171,0.5171,0.4974,0.46,0.4591,0.4456,0.4208,0.4015,0.3943,0.3946,0.4063,0.3979,0.3727,0.3521,0.3197,0.2761,0.2573,0.2373,0.2201,0.0,0.0,0.0,0.0,0.0,0.0,0.0,0.0,0.0,0.0,0.0,0.0,0.0,1.9602,1.9602,1.9602,1.9464,1.9326,1.92,1.9084,1.9001,1.8878,1.9147,1.9523,1.9984,0.0,0.0,0.0,0.0,1.9539,1.8597,1.8186,1.8029,1.8062,1.7555,1.7252,1.7117,1.6712,0.0,0.0,1.6163,1.5926,0.0,0.0,0.0,0.0,0.0,0.0,0.0,0.0,0.0,0.0,0.0,0.0,0.0,0.0,0.0,0.0,0.0,0.0,0.0,0.0,0.0,0.0,0.0,0.0,0.0,0.0,0.0,0.0,0.0,0.0,0.0,0.0,0.0,0.0,0.0,0.0,0.0,0.0,0.0,0.0,0.0,0.0,0.0,0.0,0.0,0.0,0.5996,0.5937,0.5991,0.6209,0.6209,0.6209,0.6209,0.6513,0.6406,0.5901,0.6203,0.6046,0.5496,0.5399,0.5318,0.5198,0.5139,0.4793,0.4271,0.4293,0.4248,0.4109,0.3911,0.3678,0.3504,0.3414,0.3337,0.3252,0.0,0.0,0.0,0.0,0.0,0.0,0.0,0.0,0.0,0.0,0.0,0.0,0.0,0.0,1.9615,1.9625,1.9479,1.9326,1.9248,1.915,1.9069,1.9001,1.9254,1.9705,2.036,0.0,0.0,0.0,0.0,0.0,0.0,1.8211,1.8037,1.8071,1.727,1.7025,0.0,0.0,0.0,1.6686,0.0,1.6161,1.6128,0.0,0.0,0.0,0.0,0.0,0.0,0.0,0.0,0.0,0.0,0.0,0.0,0.0,0.0,0.0,0.0,0.0,0.0,0.0,0.0,0.0,0.0,0.0,0.0,0.0,0.0,0.0,0.0,0.0,0.0,0.0,0.0,0.0,0.0,0.0,0.0,0.0,0.0,0.0,0.0,0.0,0.0,0.0,0.0,0.0,0.6485,0.648,0.6588,0.6756,0.6732,0.6654,0.6524,0.687,0.6778,0.6318,0.6655,0.6531,0.6062,0.597,0.5884,0.5809,0.5809,0.5453,0.4829,0.4815,0.4743,0.4633,0.4397,0.4231,0.4037,0.3997,0.3909,0.3778,0.0,0.0,0.0,0.0,0.0,0.0,0.0,0.0,0.0,0.0,0.0,0.0,0.0,0.0,0.0,1.9686,1.9686,1.9686,1.9686,1.9686,1.9592,1.939,2.0165,2.0751,2.1095,0.0,0.0,0.0,0.0,0.0,0.0,0.0,1.728,1.7296,1.715,1.7108,1.7108,0.0,1.6981,1.6654,0.0,1.6622,1.6741,0.0,0.0,0.0,1.7156,1.7121,0.0,0.0,0.0,0.0,0.0,0.0,0.0,0.0,0.0,0.0,0.0,0.0,0.0,0.0,0.0,0.0,0.0,0.0,0.0,0.0,0.0,0.0,0.0,0.0,0.0,0.0,0.0,0.0,0.0,0.0,0.0,0.0,0.0,0.0,0.0,0.0,0.0,0.0,0.0,0.648,0.7085,0.7139,0.7354,0.7901,0.7689,0.7473,0.7212,0.6951,0.6684,0.6428,0.6428,0.6331,0.6184,0.6184,0.6142,0.6019,0.6019,0.5895,0.5723,0.5723,0.555,0.5285,0.5101,0.4787,0.4434,0.422,0.3957,0.3649,0.0,0.0,0.0,0.0,0.0,0.0,0.0,0.0,0.0,0.0,0.0,0.0,0.0,0.0,0.0,1.9625,1.9555,1.9479,1.9479,1.9387,1.9264,1.912,1.9882,2.0533,2.1022,0.0,0.0,0.0,0.0,0.0,0.0,0.0,0.0,0.0,1.7133,1.7108,1.7108,1.7108,0.0,0.0,1.7282,1.7477,0.0,0.0,0.0,0.0,0.0,1.7948,0.0,0.0,1.6982,1.6111,0.0,0.0,0.0,0.0,0.0,0.0,1.1653,0.0,0.0,0.0,0.0,0.0,0.0,0.0,0.0,0.0,0.0,0.0,0.0,0.0,0.0,0.0,0.0,0.0,0.0,0.0,0.0,0.0,0.0,0.0,0.0,0.0,0.0,0.0,0.7408,0.7515,0.7681,0.7687,0.7741,0.7901,0.7689,0.7559,0.7486,0.7224,0.6957,0.6702,0.6702,0.6505,0.6184,0.6184,0.6142,0.6019,0.6019,0.5933,0.5755,0.5755,0.5707,0.5663,0.5539,0.5453,0.5323,0.528,0.5062,0.4819,0.0,0.0,0.0,0.0,0.0,0.0,0.0,0.0,0.0,0.0,0.0,0.0,0.0,0.0,0.0,2.0103,2.0341,2.0462,2.0446,2.0368,2.0287,2.0203,2.066,2.117,2.1708,0.0,0.0,0.0,0.0,0.0,0.0,0.0,0.0,0.0,1.7248,0.0,0.0,0.0,0.0,0.0,1.7427,0.0,0.0,1.8338,1.8413,0.0,0.0,0.0,1.8484,1.8311,1.7388,0.0,0.0,0.0,0.0,0.0,0.0,0.0,0.0,0.0,0.0,0.0,0.0,0.0,0.9786,0.9798,0.9787,0.0,0.0,0.0,0.0,0.0,0.0,0.0,0.0,0.0,0.0,0.0,0.0,0.0,0.0,0.0,0.0,0.0,0.0,0.7901,0.7901,0.7901,0.7901,0.7901,0.7901,0.7901,0.7689,0.7595,0.7595,0.7334,0.7121,0.6969,0.7201,0.7096,0.6731,0.6948,0.6927,0.6725,0.6725,0.6598,0.6471,0.6422,0.613,0.5755,0.5717,0.568,0.569,0.5787,0.5598,0.5271,0.0,0.0,2.0183,2.0117,2.0136,0.0,0.0,0.0,0.0,0.0,0.0,0.0,0.0,0.0,0.0,0.0,2.1572,2.1964,2.1898,2.1898,2.1881,2.1887,2.1961,2.2208,2.2618,2.2485,0.0,0.0,0.0,0.0,0.0,0.0,0.0,0.0,1.7512,1.7384,0.0,0.0,0.0,1.6827,1.7293,1.782,0.0,0.0,1.9355,0.0,1.9603,1.9603,1.9462,1.8767,1.7607,0.0,0.0,0.0,0.0,0.0,1.3146,0.0,0.0,0.0,0.0,0.0,0.0,0.0,1.0049,0.9847,0.9644,0.0,0.0,0.0,0.0,0.0,0.0,0.0,0.0,0.0,0.0,0.0,0.0,0.0,0.0,0.0,0.0,0.7901,0.7901,0.7901,0.7901,0.7901,0.7901,0.7901,0.7955,0.8008,0.7792,0.7696,0.7791,0.7523,0.7373,0.7348,0.7815,0.784,0.7453,0.799,0.8046,0.7682,0.7682,0.7607,0.7412,0.7273,0.6683,0.5852,0.5809,0.582,0.587,0.5989,0.5754,0.5391,2.0205,2.0209,2.0192,2.0183,0.0,0.0,0.0,0.0,0.0,0.0,0.0,0.0,0.0,0.0,0.0,0.0,0.0,2.1898,2.1902,2.1916,2.1849,2.175,2.2355,2.255,2.2224,2.2815,2.2852,0.0,0.0,0.0,0.0,0.0,0.0,0.0,1.7714,1.7384,0.0,0.0,0.0,1.6807,1.7751,0.0,1.9211,1.9706,1.9924,2.003,1.9995,2.0045,2.0024,0.0,1.8401,1.7704,0.0,0.0,0.0,0.0,0.0,0.0,0.0,0.0,0.0,0.0,0.0,0.0,1.1025,1.0708,1.0299,0.0,0.0,0.0,0.0,0.0,0.0,0.0,0.0,0.0,0.0,0.0,0.0,0.0,0.0,0.0,0.0,0.7901,0.7901,0.7901,0.7901,0.7901,0.7901,0.7901,0.8109,0.862,0.8395,0.8443,0.8891,0.8618,0.8332,0.8096,0.8186,0.8012,0.7644,0.7777,0.7783,0.7682,0.7682,0.7599,0.7482,0.744,0.7154,0.666,0.6562,0.665,0.6854,0.6537,0.6411,0.6379,2.0171,2.0144,2.0136,2.0069,0.0,0.0,0.0,0.0,0.0,0.0,0.0,0.0,0.0,0.0,0.0,0.0,0.0,0.0,0.0,0.0,2.3014,2.296,2.3326,2.3412,2.3154,2.3422,2.3267,2.2716,0.0,0.0,0.0,0.0,0.0,0.0,0.0,0.0,0.0,0.0,1.7536,1.7396,1.7972,0.0,1.882,1.9714,2.0061,2.0061,2.0061,2.0115,2.0078,1.9269,1.8805,0.0,0.0,1.6884,1.634,0.0,1.5385,1.4968,0.0,0.0,0.0,1.2871,0.0,0.0,0.0,1.1305,1.1182,0.0,0.0,0.0,0.0,0.0,0.0,0.0,0.0,0.0,0.0,0.0,0.0,0.0,0.0,0.0,0.0,0.7842,0.8002,0.8315,0.8368,0.8474,0.8732,0.8732,0.889,0.919,0.905,0.9119,0.938,0.9261,0.9092,0.8945,0.9065,0.8898,0.8501,0.8606,0.8524,0.8349,0.8349,0.8267,0.8095,0.8095,0.7904,0.7635,0.7396,0.7416,0.7533,0.7455,0.7412,0.732,2.0117,2.0088,2.0069,1.996,0.0,0.0,0.0,0.0,0.0,0.0,0.0,0.0,0.0,0.0,0.0,0.0,0.0,0.0,0.0,0.0,0.0,2.419,2.419,2.417,2.4113,2.3917,2.3487,2.2833,0.0,0.0,0.0,0.0,0.0,0.0,0.0,0.0,0.0,0.0,0.0,1.8264,0.0,1.8283,1.8138,1.9318,1.9773,1.9788,1.996,2.0025,1.9954,1.944,0.0,1.8978,1.8272,1.7573,0.0,0.0,0.0,0.0,0.0,0.0,0.0,0.0,0.0,1.273,0.0,0.0,0.0,1.2246,0.0,0.0,0.0,0.0,0.0,0.0,0.0,0.0,0.0,0.0,0.0,0.0,0.0,0.0,0.0,0.8156,0.8421,0.8935,0.8928,0.9145,0.9562,0.9614,0.9666,0.9769,0.9769,0.9821,0.9925,0.9925,0.9864,0.9678,0.9856,0.969,0.9265,0.9399,0.9315,0.9016,0.9016,0.8895,0.8765,0.8765,0.8643,0.8487,0.8214,0.8106,0.8146,0.8387,0.8377,0.8197,2.0088,2.0088,2.0108,2.0079,0.0,0.0,0.0,0.0,0.0,0.0,0.0,0.0,0.0,0.0,0.0,0.0,0.0,0.0,2.3985,0.0,0.0,0.0,2.419,2.4094,2.3837,2.3816,2.3653,2.3315,0.0,0.0,0.0,0.0,0.0,0.0,2.0103,0.0,0.0,0.0,1.9318,0.0,1.961,1.9061,0.0,1.8755,1.9008,1.9118,1.9758,1.9919,1.9854,0.0,1.9939,1.9798,0.0,1.906,0.0,0.0,0.0,0.0,0.0,0.0,0.0,0.0,1.4313,0.0,0.0,0.0,1.275,1.2584,0.0,0.0,0.0,0.0,0.0,0.0,0.0,0.0,0.0,0.0,0.0,0.0,0.0,0.0,0.0,0.0,0.9458,0.951,0.951,0.9562,0.9614,0.9614,0.9821,1.0293,1.0293,1.0557,1.1116,1.1116,1.0729,1.0027,1.0077,0.9697,0.9013,0.9061,0.9059,0.9016,0.9016,0.8975,0.8975,0.8975,0.8935,0.8937,0.8824,0.8834,0.8881,0.8853,0.8866,0.8856,2.0088,2.0088,2.0069,1.9991,0.0,0.0,0.0,0.0,0.0,0.0,0.0,0.0,0.0,0.0,0.0,0.0,0.0,2.3398,0.0,0.0,0.0,0.0,0.0,0.0,2.4036,2.4016,2.3955,2.381,2.3602,0.0,0.0,0.0,0.0,0.0,2.0128,0.0,1.9865,0.0,0.0,0.0,0.0,0.0,0.0,1.9293,1.9223,1.9055,1.9412,1.9641,1.9833,0.0,2.015,0.0,0.0,0.0,0.0,0.0,0.0,0.0,0.0,0.0,0.0,0.0,0.0,0.0,0.0,0.0,1.3702,0.0,0.0,0.0,0.0,0.0,0.0,0.0,0.0,0.0,0.0,0.0,0.0,0.0,0.0,0.0,0.0,0.0,0.0,0.0,1.0035,1.0241,1.0549,1.06,1.0702,1.0913,1.0913,1.1065,1.1326,1.1326,1.1113,1.0788,1.0305,0.993,0.9606,0.918,0.9016,0.9016,0.9016,0.9016,0.9016,0.9016,0.9062,0.9123,0.9314,0.9361,0.9423,0.9482,0.9563,0.9524,2.0747,0.0,0.0,0.0,0.0,0.0,0.0,0.0,0.0,0.0,0.0,0.0,2.4151,2.3581,0.0,0.0,0.0,2.3139,0.0,0.0,2.4094,0.0,0.0,0.0,0.0,2.419,2.4151,2.4074,2.3816,2.3279,0.0,0.0,0.0,0.0,0.0,2.054,2.0441,0.0,0.0,2.0787,2.1297,2.0902,2.0044,1.9798,1.9467,1.9157,1.9408,1.9672,1.9925,2.017,2.0185,0.0,1.9833,0.0,0.0,0.0,0.0,0.0,1.8461,0.0,0.0,0.0,0.0,0.0,0.0,0.0,0.0,0.0,0.0,0.0,0.0,0.0,0.0,0.0,0.0,0.0,0.0,0.0,0.0,0.0,0.0,0.0,0.0,0.0,0.0,1.0608,1.0659,1.0863,1.1276,1.1326,1.1326,1.1326,1.1326,1.1326,1.1326,1.1326,1.1225,1.1122,1.0557,1.0194,1.0075,0.9529,0.9282,0.9324,0.9304,0.9301,0.9293,0.9415,0.9458,0.9494,0.9877,0.9968,0.9855,0.9988,0.9947,0.9888,2.2371,2.1904,0.0,0.0,0.0,0.0,0.0,0.0,0.0,0.0,0.0,0.0,0.0,0.0,0.0,0.0,0.0,2.3801,2.386,0.0,2.3996,0.0,0.0,2.417,0.0,0.0,2.4151,2.3996,2.3996,2.3899,0.0,0.0,0.0,0.0,0.0,2.2296,2.1931,2.1907,2.1777,2.1661,2.1678,2.119,2.0433,0.0,1.9546,1.9285,1.9946,0.0,0.0,1.9889,2.0065,0.0,0.0,0.0,0.0,0.0,0.0,0.0,0.0,0.0,0.0,1.7961,0.0,0.0,0.0,0.0,1.6459,0.0,0.0,0.0,0.0,0.0,0.0,0.0,0.0,0.0,0.0,0.0,0.0,0.0,0.0,0.0,0.0,0.0,0.0,1.1267,1.1267,1.1276,1.1326,1.1326,1.1326,1.1326,1.1326,1.1326,1.1326,1.1326,1.1096,1.0737,1.0672,1.0458,1.0092,1.0066,1.0058,1.0077,1.0073,1.0083,1.0083,1.0401,1.0368,1.013,1.0663,1.062,1.0238,1.0074,0.9836,0.9614,0.0,0.0,0.0,0.0,0.0,0.0,0.0,2.3088,0.0,0.0,0.0,0.0,0.0,0.0,2.4077,0.0,0.0,2.4037,2.3917,2.3917,0.0,0.0,0.0,2.4113,0.0,0.0,2.4133,2.3996,2.3816,2.3689,2.3598,0.0,0.0,0.0,0.0,2.2582,0.0,0.0,0.0,0.0,0.0,2.1486,2.1207,0.0,0.0,1.983,2.013,2.04,0.0,2.0745,2.0679,2.0496,2.0361,2.01,1.9884,1.9812,1.9523,0.0,0.0,0.0,1.8669,1.8461,0.0,0.0,0.0,0.0,0.0,0.0,0.0,0.0,0.0,0.0,0.0,0.0,0.0,0.0,0.0,0.0,0.0,0.0,0.0,0.0,0.0,0.0,0.0,1.1728,1.1469,1.1326,0.0,1.1326,1.1326,1.1326,1.1326,1.1326,1.1326,1.1326,1.1366,1.1474,1.1208,1.101,1.0847,1.0857,1.071,1.0444,1.0442,1.0629,1.0863,1.0667,1.0606,1.0657,1.0827,1.0702,1.0396,1.0372,1.0257,1.0146,2.3443,0.0,0.0,0.0,0.0,0.0,0.0,0.0,0.0,0.0,2.4248,0.0,2.4016,0.0,2.4115,0.0,2.4019,2.4019,2.3959,2.3937,0.0,2.3917,2.4016,0.0,0.0,0.0,2.4074,2.3958,2.3795,2.3667,2.3598,0.0,0.0,0.0,0.0,0.0,0.0,0.0,2.194,0.0,0.0,2.1511,0.0,0.0,2.0552,2.0507,0.0,2.0733,2.0958,2.099,2.0942,2.0795,2.0597,2.0342,2.0131,2.008,1.9904,1.9675,1.9762,1.9639,0.0,1.9072,1.8846,0.0,1.7961,0.0,0.0,0.0,0.0,0.0,0.0,0.0,0.0,0.0,0.0,0.0,0.0,1.2474,0.0,0.0,0.0,0.0,0.0,0.0,1.1828,1.1728,1.1427,1.1326,0.0,0.0,1.1377,1.1528,1.1519,1.1578,1.1728,1.1728,1.1877,1.2126,1.1849,1.1724,1.1656,1.1712,1.1569,1.1249,1.1272,1.1402,1.1679,1.1484,1.1423,1.1453,1.159,1.1478,1.1175,1.0667,1.0419,1.0308,2.493,0.0,0.0,0.0,2.1483,0.0,0.0,0.0,2.3884,0.0,2.4478,2.4302,2.4018,2.3996,2.4018,2.4097,2.3939,0.0,2.4097,2.3979,0.0,0.0,2.3937,2.3976,2.3896,0.0,0.0,0.0,2.3896,2.3876,2.3795,0.0,0.0,0.0,2.3458,0.0,2.2422,2.222,2.194,2.1603,2.1419,2.134,2.134,2.1417,2.1355,2.123,2.1071,2.1119,2.1135,2.0712,2.0844,2.1135,2.0613,2.0444,2.0395,2.0292,2.0208,2.0208,2.0361,2.0292,2.012,1.9782,0.0,0.0,0.0,0.0,1.804,0.0,0.0,0.0,0.0,0.0,0.0,0.0,0.0,0.0,0.0,0.0,0.0,0.0,0.0,0.0,0.0,1.1728,1.1769,1.1377,1.1326,0.0,0.0,0.0,1.1519,1.1927,1.1927,1.2126,1.248,1.248,1.2529,1.252,1.252,1.252,1.254,1.252,1.252,1.2521,1.2476,1.2437,1.2503,1.2791,1.2711,1.2451,1.2857,1.2793,1.2323,1.1074,1.036,1.0102,2.4987,2.4145,2.3525,0.0,2.4094,2.4271,0.0,0.0,0.0,0.0,2.441,2.4153,2.3937,2.4057,2.4096,2.3959,2.4098,0.0,0.0,0.0,0.0,2.402,2.3978,2.3917,2.3896,2.3976,0.0,2.3896,2.3896,2.3876,2.3795,0.0,0.0,0.0,0.0,0.0,2.2923,2.2721,2.2341,2.1882,2.1853,2.1853,0.0,0.0,2.1853,2.1836,2.154,2.1481,2.1481,2.1356,2.134,2.1324,2.1198,2.0942,2.0695,2.0646,2.0429,2.0208,2.0243,2.007,1.9909,1.9919,1.9726,1.942,0.0,0.0,0.0,0.0,0.0,0.0,0.0,0.0,0.0,0.0,0.0,0.0,0.0,0.0,0.0,0.0,0.0,0.0,0.0,1.2559,1.2274,1.2175,1.1927,0.0,0.0,0.0,0.0,1.2323,1.2332,1.2382,1.248,1.248,1.2618,1.288,1.288,1.2857,1.2791,1.3182,1.3152,1.2781,1.2797,1.2986,1.3273,1.3026,1.2884,1.2867,1.2976,1.2735,1.2332,1.1977,1.1678,1.1418,2.4999,0.0,0.0,2.4915,0.0,0.0,2.4972,0.0,0.0,2.4657,2.4497,0.0,2.4098,2.4192,2.421,2.4079,2.4192,0.0,0.0,0.0,0.0,2.3978,2.3896,2.3876,2.3876,2.3896,0.0,2.3876,0.0,0.0,2.3795,0.0,0.0,0.0,0.0,2.3531,0.0,2.2746,2.2395,2.2068,2.201,0.0,0.0,2.201,2.201,2.201,2.184,2.1781,2.1797,2.1694,2.1617,2.154,2.1386,2.1214,2.1023,2.1023,2.0811,2.0597,2.0597,2.0429,2.0189,2.008,1.9889,1.9711,1.9435,1.9398,1.9325,0.0,0.0,0.0,0.0,0.0,0.0,0.0,0.0,0.0,0.0,0.0,0.0,0.0,0.0,0.0,0.0,0.0,0.0,0.0,0.0,0.0,0.0,0.0,0.0,1.2706,1.2706,1.2803,1.2997,1.2997,1.3094,1.3266,1.3266,1.3229,1.3227,1.3496,1.3476,1.3227,1.3227,1.3382,1.36,1.3331,1.3232,1.3266,1.3266,1.3074,1.2852,1.2803,1.2363,1.1778,0.0,0.0,0.0,0.0,0.0,0.0,0.0,2.4779,0.0,2.4692,0.0,2.4513,2.4301,2.4302,2.4284,2.4283,0.0,2.4228,2.4248,2.4115,2.3996,2.3891,2.3834,2.3816,2.3816,2.3816,0.0,0.0,0.0,0.0,0.0,0.0,0.0,0.0,0.0,0.0,0.0,2.2652,2.2358,0.0,2.2124,2.2084,2.2084,2.2084,2.2084,2.2084,2.2084,2.2096,2.2039,2.1811,2.1797,2.1781,2.1495,2.1371,2.1356,2.1309,2.1214,2.1103,2.1071,2.0893,2.0662,2.0239,2.0135,2.003,1.9624,1.9551,1.9515,1.9493,1.9457,1.9258,0.0,0.0,0.0,0.0,0.0,0.0,0.0,0.0,0.0,0.0,0.0,0.0,0.0,0.0,0.0,0.0,0.0,0.0,0.0,0.0,0.0,1.3064,1.3064,1.3266,1.3621,0.0,1.3621,1.3621,1.3621,1.3621,1.3621,1.3621,1.3621,1.3621,1.3621,1.3621,1.3621,1.3621,1.3621,1.3621,1.3563,1.3563,1.3563,1.342,1.2745,1.1877,0.0,0.0,0.0,0.0,0.0,2.4779,2.4738,2.4676,2.4629,2.4631,2.4549,2.4446,2.4248,2.4229,2.421,2.4211,2.4247,0.0,0.0,0.0,0.0,2.4302,2.4039,2.3896,2.3896,2.3941,2.3919,0.0,0.0,0.0,0.0,0.0,0.0,0.0,0.0,0.0,2.3126,2.3028,0.0,2.2615,2.2588,2.2588,2.2588,2.2588,2.2588,2.2588,2.2588,2.2354,2.2027,2.1969,2.1969,2.194,2.1911,2.1751,2.1603,2.1417,2.1246,2.1055,2.0893,2.0695,2.0527,2.046,2.0357,2.0185,1.9839,1.9752,1.9696,1.9472,1.9213,1.8936,1.8669,0.0,0.0,0.0,0.0,0.0,0.0,0.0,0.0,0.0,0.0,0.0,0.0,0.0,0.0,0.0,0.0,0.0,0.0,0.0,0.0,0.0,1.3515,0.0,0.0,0.0,1.3621,1.3621,1.3621,1.3621,1.3621,1.3621,1.3621,1.3621,1.3621,1.3621,1.3621,1.3621,1.3621,1.3573,1.3467,1.342,1.342,1.321,1.3027,1.2871,0.0,0.0,0.0,0.0,0.0,0.0,0.0,2.4629,0.0,2.4599,2.4566,2.4515,2.4428,2.4375,2.4375,2.4375,2.4393,2.4392,2.4392,2.4356,2.4321,2.4248,2.4134,0.0,2.4054,2.4095,2.4036,2.3912,0.0,0.0,0.0,0.0,0.0,0.0,0.0,2.343,0.0,0.0,0.0,2.2816,2.2738,2.2712,2.2712,2.2712,2.2712,2.2712,2.2712,2.2561,2.2354,2.226,2.2203,2.2175,2.2027,2.1911,2.1751,2.1479,2.123,2.1007,2.0728,2.0527,2.0407,2.0407,2.0339,2.027,2.01,2.0065,2.003,1.9869,1.9726,1.9457,1.8936,1.8344,0.0,0.0,0.0,0.0,0.0,0.0,0.0,0.0,0.0,0.0,0.0,0.0,0.0,0.0,0.0,0.0,0.0,0.0,0.0,0.0,0.0,0.0,0.0,0.0,0.0,1.3621,1.3621,1.3621,1.3621,1.3621,1.3621,1.3621,1.3621,1.3621,1.3621,1.3621,1.3621,1.3573,1.3467,1.342,1.3402,1.3471,1.3511,1.3481,0.0,2.7273,0.0,0.0,2.5517,0.0,2.4884,2.4642,2.4549,2.4582,2.4582,2.4582,2.4582,2.4515,2.45,2.45,2.45,2.4429,2.4266,2.4303,2.4303,2.419,2.419,2.4209,2.4209,2.4209,2.4171,0.0,0.0,0.0,0.0,0.0,0.0,0.0,0.0,0.0,0.0,0.0,2.2876,2.2868,2.2738,2.2712,2.2712,2.2712,2.2712,2.2712,2.2712,2.2712,2.2685,2.2515,2.246,2.2405,2.2186,2.2027,2.1882,2.1584,2.1308,2.1039,2.0646,2.0494,2.0407,2.0304,2.0304,2.0304,2.0304,2.0304,2.0304,2.0304,2.0235,1.9975,1.925,1.8745,0.0,0.0,0.0,0.0,0.0,0.0,0.0,0.0,0.0,0.0,0.0,0.0,0.0,0.0,0.0,0.0,0.0,0.0,0.0,0.0,0.0,1.3621,1.3621,0.0,1.3621,1.3621,1.3621,1.3621,1.3621,1.3621,1.3621,1.3621,1.3621,1.3668,1.3705,1.361,1.361,1.3658,1.3457,1.3362,1.3412,1.365,1.3801,1.3781,0.0,0.0,0.0,0.0,0.0,0.0,2.4837,2.4734,2.4629,2.4515,2.4517,2.4517,2.4517,2.45,2.45,2.45,2.45,2.45,2.4482,2.4482,2.4482,2.4465,2.4284,2.4192,2.4192,2.4265,2.4211,0.0,0.0,0.0,0.0,0.0,0.0,0.0,0.0,0.0,0.0,2.2919,2.2842,2.2712,2.2712,2.2712,2.2712,2.2712,2.2712,2.2712,2.2712,2.2712,2.2685,2.2685,2.2632,2.2579,2.2552,2.2326,2.2039,2.1882,2.1675,2.1354,2.0909,2.0761,2.0662,2.0373,2.0304,2.0304,2.0304,2.0304,2.0304,2.0304,2.0065,1.9696,1.9199,1.8959,1.8664,0.0,0.0,0.0,0.0,0.0,0.0,0.0,0.0,0.0,0.0,0.0,0.0,0.0,0.0,0.0,0.0,0.0,0.0,1.3621,0.0,1.3621,1.3621,1.3621,1.3621,1.3621,1.3621,1.3621,1.3621,1.3621,1.3621,1.3621,1.3621,1.38,1.4129,1.361,1.3647,1.3931,1.3399,1.3218,1.3228,1.3212,1.3392,1.3709,0.0,0.0,0.0,0.0,0.0,0.0,0.0,2.4888,2.479,2.4749,2.4596,2.45,2.45,2.45,2.45,2.45,2.45,2.45,2.45,2.45,2.45,2.45,2.4429,2.4393,2.4393,2.441,2.4338,0.0,0.0,0.0,0.0,0.0,0.0,0.0,0.0,2.3468,2.3312,2.3242,2.317,2.3122,2.2985,2.2944,2.2902,2.2764,2.2712,2.2712,2.2712,2.2712,2.2712,2.2712,2.2659,2.2605,2.2605,2.247,2.2231,2.1986,2.1811,2.1601,2.1214,2.1087,2.1055,2.0926,2.0745,2.0595,2.0595,2.0441,2.0304,2.0304,2.0185,1.9995,1.9588,1.9317,1.9058,0.0,0.0,0.0,0.0,0.0,0.0,0.0,0.0,0.0,0.0,0.0,0.0,0.0,0.0,0.0,0.0,0.0,0.0,1.4501,0.0,1.4373,1.4093,1.4093,1.3905,1.3621,1.3952,1.4093,1.4093,1.4362,1.4501,1.4501,1.4129,1.4035,1.4129,1.3552,1.3362,1.3494,1.3238,1.3152,1.3173,1.3549,1.3792,1.4008,2.6832,0.0,2.7589,0.0,2.5581,2.5698,2.518,2.5012,2.4955,2.4921,2.4738,2.4599,2.4566,2.4517,2.4482,2.45,2.45,2.45,2.45,2.45,2.45,2.45,2.45,0.0,2.45,2.45,2.4446,2.4358,2.4931,0.0,0.0,0.0,0.0,0.0,2.3822,2.361,2.3544,2.3437,2.3392,2.3392,2.3259,2.3182,2.3182,2.2985,2.291,2.291,2.291,2.291,2.291,2.2799,2.2721,2.2668,2.2605,2.2487,2.2321,2.2106,2.1974,2.1886,2.1524,2.1462,2.1432,2.1339,2.1119,2.0942,2.0942,2.0745,2.0561,2.046,2.0373,2.022,1.9945,1.9711,1.9442,1.9043,0.0,0.0,0.0,0.0,0.0,0.0,0.0,1.7086,1.7086,0.0,0.0,0.0,0.0,0.0,0.0,0.0,0.0,0.0,0.0,0.0,0.0,1.4605,1.4419,1.4035,1.4419,1.4605,1.4605,1.4971,1.5108,1.5062,1.464,1.4501,1.4536,1.3967,1.3852,1.4026,1.3817,1.3634,1.354,1.417,1.4237,1.4184,2.6766,2.6602,2.6351,2.5457,2.5303,2.5273,2.5126,2.5115,2.5056,2.4912,2.4898,2.4842,2.4707,2.4532,2.443,2.45,2.45,2.45,2.45,2.45,2.45,0.0,0.0,2.45,2.45,2.45,2.45,2.45,0.0,0.0,2.5386,0.0,2.5031,2.4847,2.3992,2.3522,2.3392,2.3392,2.3392,2.3392,2.3392,2.3392,2.3392,2.3392,2.3392,2.3392,2.3392,2.3392,2.3346,2.3084,2.2935,2.2859,2.2579,2.2405,2.231,2.231,2.2282,2.2209,2.1886,2.1781,2.1721,2.1401,2.1308,2.1291,2.1291,2.1291,2.1182,2.0844,2.0527,2.027,2.0115,2.0025,1.9797,1.9281,0.0,0.0,0.0,0.0,0.0,0.0,1.7434,1.7199,1.7199,0.0,0.0,0.0,0.0,0.0,0.0,0.0,0.0,1.5108,1.5108,0.0,1.5108,1.5108,1.5108,1.5062,1.5108,1.5108,1.5108,1.5108,1.5108,1.5108,1.5108,1.5289,1.5546,1.5085,1.5337,1.6009,1.5463,1.4893,1.4435,1.4842,1.4599,1.4145,2.588,2.6178,2.6332,2.5437,2.5303,2.5293,2.5243,2.5241,2.522,2.5184,2.5044,2.4953,2.4902,2.4673,2.453,0.0,2.4481,2.4447,0.0,2.45,2.45,2.45,2.45,2.45,2.45,2.45,2.45,2.45,0.0,0.0,0.0,2.5502,2.5092,2.4481,2.4149,2.3979,2.3955,2.3955,2.3955,2.3917,2.3753,2.3671,2.3649,2.3459,2.3392,2.3392,2.3392,2.3392,2.3364,2.3084,2.2977,2.2859,2.2525,2.2366,2.231,2.231,2.231,2.2282,2.218,2.2152,2.2123,2.202,2.1827,2.1631,2.1631,2.1462,2.1182,2.0763,2.0579,2.041,2.0096,1.9955,1.9797,1.9639,1.953,0.0,0.0,0.0,0.0,0.0,1.8344,1.7948,0.0,1.7598,0.0,0.0,0.0,0.0,0.0,0.0,0.0,0.0,1.6032,0.0,1.5579,1.5579,1.5412,1.5108,1.54,1.5756,1.6032,1.6032,1.6032,1.6032,1.5611,1.5511,1.5579,1.5394,1.5242,1.5198,1.583,1.5691,1.5246,1.6071,1.6262,1.6073,2.5409,2.5736,2.5947,2.5399,2.5303,2.5303,2.5303,2.5293,2.5292,2.5282,2.5145,2.5082,2.5082,2.4865,0.0,2.4685,2.4594,2.4564,2.4613,2.4564,2.453,2.453,2.4566,2.4549,2.45,2.4549,0.0,2.45,2.5001,2.5244,2.5207,2.5134,2.482,2.4266,2.421,2.419,2.419,2.419,2.419,2.419,2.4016,2.3937,2.3917,2.3756,2.3692,2.3692,2.3692,2.3692,2.3606,2.3212,2.3025,2.29,2.2497,2.2338,2.231,2.231,2.231,2.231,2.231,2.231,2.231,2.231,2.2152,2.1991,2.1961,2.1708,2.1339,2.1007,2.073,2.0478,2.0185,1.9955,1.9797,1.9762,1.9726,1.969,1.969,0.0,0.0,0.0,0.0,0.0,0.0,1.8028,1.7787,0.0,0.0,0.0,0.0,0.0,0.0,1.6522,1.6522,0.0,1.6064,1.6064,1.5932,1.5635,1.5932,1.6194,1.6522,1.6522,1.6522,1.6466,1.6095,1.5908,1.5901,1.5865,1.5741,1.5626,1.6571,1.6564,1.6147,1.7087,1.7179,1.6844,2.5409,2.5447,2.5457,0.0,2.538,0.0,2.5303,2.5303,2.5264,2.5222,2.5212,2.5209,2.5191,2.5044,2.4888,2.4832,0.0,0.0,0.0,2.4685,2.4623,2.4623,2.4673,2.4663,2.4534,2.4645,2.4645,2.4517,2.4517,2.4465,2.4394,2.4339,2.4266,2.4192,2.419,2.419,2.419,2.419,2.419,2.419,2.419,2.4208,2.419,2.419,2.4208,2.419,2.419,2.4151,2.4016,2.3414,2.3165,2.3038,2.2508,2.2366,2.2366,2.231,2.231,2.231,2.231,2.231,2.231,2.231,2.2282,2.2282,2.2197,2.1949,2.1678,2.1524,2.0991,2.0512,2.0444,2.01,1.9797,1.9747,1.9726,1.969,1.969,0.0,0.0,0.0,0.0,0.0,0.0,1.8422,1.8108,0.0,0.0,0.0,0.0,0.0,1.7112,1.6534,1.6522,1.6522,1.6522,1.6522,1.6522,1.6522,1.6522,1.6522,1.6479,1.6479,1.6504,1.6529,1.6529,1.651,1.6517,1.6585,1.6809,1.711,1.77,1.7557,1.7097,1.7908,1.758,1.6815,0.0,0.0,2.7063,2.6409,2.6292,2.6081,2.5399,2.5262,2.522,2.5192,2.5198,2.5203,2.5191,2.5168,2.5125,2.5101,2.4861,2.476,2.4804,2.4775,2.476,2.476,2.4808,2.4842,2.4798,2.4837,2.4794,2.4645,2.4599,2.4515,2.4394,2.4284,2.421,2.4192,2.419,2.419,2.419,2.419,2.419,2.419,2.419,2.417,2.4132,2.417,2.417,2.4113,2.4113,2.4113,2.4016,2.3566,2.3414,2.3346,2.3017,2.291,2.2833,2.2432,2.231,2.231,2.231,2.231,2.231,2.231,2.2254,2.2214,2.2214,2.2049,2.1823,2.1493,2.1293,2.1103,2.0745,2.0361,2.012,2.007,1.9889,1.969,1.969,1.9617,0.0,0.0,1.9457,1.931,1.8988,1.8846,1.8602,0.0,0.0,0.0,0.0,1.7313,1.7112,1.6534,1.6522,1.6522,1.6522,1.6522,1.6522,1.6522,1.6522,1.6479,1.6436,1.6436,1.6585,1.6893,1.6893,1.7082,1.7501,1.792,1.792,1.7712,1.8658,1.868,1.8248,1.8851,1.8955,1.8694,2.735,2.7686,2.7816,2.7287,2.7181,2.7026,2.6532,2.6074,2.5784,2.5784,2.5455,2.5203,2.5191,2.5191,2.5191,2.5191,2.5032,2.4947,2.4993,2.4921,2.4893,2.4893,2.4921,2.4921,2.4851,2.4915,2.4874,2.4749,2.4704,2.4642,2.4528,2.4459,2.4425,2.4426,2.4321,2.4303,2.4284,2.4228,2.419,2.419,2.419,2.417,2.4094,2.4151,2.4113,2.4036,2.4036,2.4036,2.3976,2.361,2.35,2.345,2.3188,2.3091,2.3042,2.273,2.2579,2.2487,2.2487,2.2377,2.2282,2.2254,2.2242,2.2168,2.2094,2.2003,2.1882,2.1631,2.1448,2.1309,2.1055,2.0697,2.0429,2.0208,2.005,1.9889,1.9711,1.969,0.0,1.969,1.969,1.9617,1.9339,1.9199,1.8921,1.8461,1.8425,0.0,1.7663,1.7696,1.7501,1.6936,1.666,1.676,1.7287,1.7287,1.7287,1.7287,1.7036,1.7005,1.7197,1.6992,1.709,1.7567,1.7567,1.7634,1.7835,1.8166,1.8068,1.78,1.8631,1.8778,1.8594,1.9068,1.921,1.9174,2.8307,2.8397,2.8395,2.8153,2.8115,2.8049,2.7879,2.7201,2.6688,2.6715,2.5926,2.5386,2.5382,2.5268,2.5191,2.5191,2.5191,2.5191,2.5191,2.5088,2.5038,2.5038,2.5025,2.4981,2.4861,2.4968,2.4968,2.4832,2.4818,2.479,2.4697,2.4697,2.47,2.4692,2.4493,2.4389,2.4389,2.4266,2.419,2.419,2.419,2.4151,2.4094,2.4094,2.4036,2.3996,2.3996,2.3937,2.3858,2.3628,2.3558,2.3508,2.3283,2.3212,2.3212,2.3212,2.3035,2.2799,2.2712,2.2515,2.2282,2.2214,2.2168,2.2123,2.1928,2.1982,2.2036,2.1993,2.1833,2.1664,2.155,2.1279,2.0872,2.0376,2.0243,2.007,1.9747,0.0,1.969,1.969,1.969,1.9669,1.9611,1.9487,1.9213,1.8784,1.8781,1.8681,1.8266,1.8338,1.8202,1.7776,1.7118,1.7237,1.8191,1.8204,1.8204,1.8191,1.7727,1.7752,1.8131,1.7714,1.7756,1.8282,1.8282,1.8126,1.7933,1.8065,1.7932,1.7691,1.8226,1.8432,1.8493,1.8911,1.9052,1.904,2.9193,2.9744,2.997,2.9206,2.9074,2.8853,2.8163,2.7788,2.7631,2.768,2.6822,2.6204,2.6211,2.5612,2.5191,2.5191,2.5191,2.5191,2.5191,2.518,2.5168,2.5168,2.5172,2.5164,2.5141,2.5164,2.5099,2.4968,2.4915,2.4814,2.4697,2.4704,2.4707,2.4692,2.4493,2.4389,2.4389,2.4266,2.419,2.419,2.419,2.4132,2.4016,2.4074,2.4016,2.3917,2.3917,2.3917,2.3896,2.3795,2.3753,2.3753,2.371,2.3689,2.3689,2.3689,2.3535,2.3277,2.2825,2.2515,2.2282,2.2214,2.2106,2.2015,2.1928,2.2352,2.2756,2.2725,2.319,2.3406,2.2778,2.2393,2.1826,2.0873,2.0429,2.007,1.9747,0.0,1.969,1.969,1.9632,1.9632,1.969,1.9523,1.9413,1.9465,1.9434,1.9429,1.9348,1.941,1.9434,1.9439,1.8452,1.8028,1.8204,1.8204,1.8204,1.8204,1.8116,1.8069,1.8037,1.7949,1.8115,1.8548,1.8548,1.8486,1.8486,1.8486,1.8216,1.7823,1.8363,1.8571,1.8633,1.9172,1.9275,1.917,3.0161,3.0456,3.0549,3.0074,3.0063,2.9953,2.9469,2.8925,2.8579,2.8608,2.7757,2.7152,2.7152,2.6795,2.6364,2.5898,2.586,2.5669,2.5229,2.5191,2.5191,2.5191,2.5203,2.5214,2.5214,2.5214,2.5172,2.5106,2.5069,2.5032,2.4961,2.4966,2.4966,2.4953,2.476,2.4682,2.4651,2.4408,2.4302,2.4303,2.419,2.4094,2.3996,2.3996,2.3917,2.3855,2.3855,2.3855,2.3837,2.3816,2.3795,2.3795,2.3795,2.3795,2.3795,2.3795,2.3664,2.3394,2.301,2.2694,2.2443,2.2326,2.213,2.2011,2.2368,2.2673,2.3007,2.3404,2.3768,2.3901,2.3553,2.3028,2.2573,2.2309,2.1302,0.0,0.0,2.0376,2.0243,2.0243,2.052,2.0706,2.0676,2.0576,2.0498,2.046,2.0534,2.0543,2.0458,2.0547,2.0503,2.0253,1.9481,1.9058,1.9058,1.9058,1.9221,1.9522,1.8932,1.8745,1.8946,1.8659,1.8784,1.9231,1.9231,1.9193,1.9142,1.9142,1.8943,1.8707,1.8953,1.9052,1.9076,1.9334,1.9184,1.8888,3.0799,3.0793,3.0765,3.0671,3.073,3.075,3.0587,2.9973,2.9519,2.9519,2.8705,2.8135,2.8135,2.7915,2.7501,2.6787,2.6718,2.6458,2.5822,2.5784,2.5612,2.5229,2.5191,2.5191,2.5191,2.5191,2.5191,2.5191,2.5191,2.5191,2.5191,2.5191,2.5191,2.518,2.4987,2.4902,2.4888,2.454,2.4424,2.4424,2.4247,2.4152,2.4115,2.4057,2.3959,2.3878,2.3878,2.3837,2.3795,2.3795,2.3795,2.3795,2.3795,2.3795,2.3795,2.3795,2.3685,2.3504,2.3157,2.2833,2.2579,2.2617,2.2406,2.2319,2.3005,2.3288,2.357,2.4149,2.4398,2.4464,2.4299,2.3785,2.344,2.3502,0.0,0.0,0.0,2.1279,2.1046,2.0946,2.1356,2.1655,2.156,2.148,2.1399,2.1304,2.1455,2.1597,2.1664,2.1876,2.18,2.1456,2.0515,1.9999,1.9999,2.0125,2.0363,2.0706,1.9811,1.9547,1.9786,1.9384,1.9422,1.9798,1.9798,1.9684,1.9482,1.9482,1.9304,1.9115,1.9238,1.9288,1.9288,1.9288,1.9017,1.8647,3.0799,3.0804,3.0799,3.0794,3.0799,3.0799,3.0769,3.0626,3.0489,3.0489,2.9691,2.9089,2.9089,2.8431,2.7913,2.7708,2.7698,2.7654,2.7523,2.7529,2.6823,2.5268,2.5191,2.5191,2.5191,2.5191,2.5191,2.5191,2.5191,2.5191,2.5191,2.5191,2.5191,2.518,2.4987,2.4902,2.4888,2.454,2.4474,2.4575,2.4428,2.4393,2.4461,2.4461,2.4302,2.4078,2.4078,2.3959,2.3795,2.3795,2.3795,2.3795,2.3795,2.3795,2.3795,2.3795,2.3789,2.3656,2.3151,2.2764,2.2641,2.3187,2.3123,2.3084,2.3784,2.4448,2.4961,2.5011,2.5574,2.5839,2.5143,2.4978,2.4627,2.3681,0.0,0.0,2.235,2.22,2.2026,2.1659,2.1585,2.156,2.1655,2.151,2.1429,2.148,2.1808,2.2309,2.2935,2.3424,2.3731,2.3856,2.1734,2.0655,2.0655,2.1104,2.1129,2.0718,2.063,2.0288,1.9798,1.9761,1.9761,1.9798,1.9798,1.9535,1.9033,1.9033,1.8733,1.8332,1.8833,1.9046,1.9046,1.9046,1.8946,1.8722,3.0901,3.0799,3.0799,3.0799,3.0799,3.0799,3.0799,3.0764,3.0714,3.0714,3.0348,3.0071,3.0071,2.9771,2.9312,2.8724,2.8636,2.836,2.7796,2.7713,2.7166,2.6001,2.5944,2.5707,2.521,2.5191,2.5191,2.5191,2.5191,2.5191,2.5191,2.5191,2.5191,2.521,2.5125,2.5101,2.5069,2.4823,2.4749,2.4764,2.4564,2.4479,2.4495,2.4459,2.4302,2.4116,2.4116,2.3979,2.3795,2.3795,2.3795,2.3795,2.3795,2.3795,2.3795,2.3795,2.3789,2.37,2.3481,2.3368,2.3364,2.3595,2.365,2.3801,2.4514,2.4911,2.5243,2.569,2.6021,2.612,2.5839,2.5425,2.5125,2.5168,0.0,2.3471,2.3305,2.3103,2.2769,2.2374,2.2596,2.2835,2.2877,2.3094,2.3245,2.3186,2.3611,2.3941,2.4156,2.41,2.4035,2.4112,2.327,2.2653,2.2257,2.2127,2.1741,2.1179,2.0882,2.0363,1.9798,1.9798,1.9798,1.9798,1.9798,1.9685,1.951,1.951,1.9196,1.8744,1.8895,1.8819,1.8518,1.8518,1.8244,1.7919,3.0923,3.0808,3.0799,3.0799,3.0799,3.0799,3.0799,3.0799,3.0799,3.0799,3.0709,3.0665,3.0665,3.0618,3.0347,2.971,2.9602,2.9323,2.8695,2.8564,2.802,2.6861,2.6803,2.6555,2.6013,2.5994,2.586,2.5573,2.586,2.5726,2.521,2.5459,2.544,2.5191,2.5191,2.518,2.5156,2.4985,2.4912,2.4912,2.4692,2.4629,2.4642,2.461,2.4424,2.4192,2.4192,2.402,2.3795,2.3795,2.3795,2.3795,2.3795,2.3795,2.3795,2.3792,2.3747,2.37,2.3656,2.3954,2.4274,2.4274,2.4479,2.4842,2.5464,2.5597,2.5712,2.6104,2.6385,2.6551,2.6551,2.6137,2.5955,2.6468,2.5316,2.4343,2.4393,2.4249,2.3983,2.3561,2.3741,2.3955,2.4164,2.4282,2.4368,2.4435,2.4732,2.4985,2.5125,2.5027,2.4824,2.4625,2.4857,2.4531,2.3714,2.3163,2.2508,2.1738,2.1351,2.0758,2.0055,2.0055,1.9952,1.9798,1.9798,1.971,1.956,1.956,1.9246,1.8769,1.8769,1.853,1.8179,1.8003,1.7702,1.735,3.0813,3.0829,3.0818,3.0799,3.0799,3.0799,3.0799,3.0799,3.0799,3.0799,3.0799,3.0799,3.0799,3.0799,3.0739,3.06,3.0593,3.0564,3.051,3.037,2.9524,2.781,2.772,2.772,2.7701,2.7701,2.7281,2.6402,2.7281,2.6842,2.5229,2.602,2.5963,2.521,2.521,2.5168,2.5101,2.4972,2.4959,2.498,2.4865,2.4898,2.501,2.501,2.4753,2.4408,2.4389,2.4155,2.3795,2.3795,2.3795,2.3795,2.3795,2.3795,2.3795,2.3825,2.3761,2.3696,2.3625,2.4445,2.5312,2.5312,2.571,2.622,2.6622,2.6691,2.6607,2.6291,2.6783,2.7317,2.7317,2.7317,2.7317,2.7317,2.6684,2.6043,2.5594,2.5727,2.5754,2.5361,2.488,2.479,2.5337,2.4663,2.442,2.4936,2.4898,2.5125,2.5749,2.6416,2.6474,2.5792,2.6431,2.6184,2.4924,2.4285,2.3405,2.2214,2.2214,2.1653,2.061,2.061,2.0308,1.9798,1.9798,1.951,1.8983,1.8983,1.8694,1.8204,1.8204,1.8191,1.8129,1.7576,1.7375,1.73,3.1714,3.2209,3.2428,3.1822,3.17,3.1505,3.0896,3.0799,3.0799,3.0799,3.0799,3.0799,3.0799,3.0799,3.0774,3.0739,3.0639,3.0564,3.051,3.0472,3.0211,2.9697,2.895,2.828,2.772,2.7701,2.7568,2.7319,2.7568,2.7128,2.6039,2.6288,2.6275,2.6041,2.6041,2.5996,2.5939,2.5904,2.5549,2.505,2.557,2.5802,2.5844,2.5844,2.5615,2.5242,2.463,2.4155,2.3795,2.3795,2.3795,2.3795,2.3795,2.3795,2.3904,2.448,2.4617,2.4739,2.5216,2.5947,2.6366,2.5507,2.6109,2.6842,2.674,2.7097,2.7382,2.7058,2.7168,2.7466,2.7997,2.7665,2.7483,2.8014,2.7466,2.7003,2.7039,2.6687,2.6446,2.6556,2.5623,2.5074,2.5227,2.4951,2.4634,2.4385,2.5043,2.5589,2.5778,2.6416,2.6286,2.5183,2.5763,2.551,2.4215,2.4502,2.4047,2.2902,2.2058,2.1261,2.061,2.0207,1.9952,1.9786,1.9409,1.9384,1.9547,1.9183,1.8694,1.8204,1.8204,1.7727,1.6999,1.6835,1.6773,1.6748,3.2038,3.2514,3.283,3.2645,3.262,3.2323,3.1447,3.131,3.1193,3.0857,3.0799,3.0799,3.0799,3.0799,3.0799,3.0799,3.0734,3.0646,3.0543,3.0535,3.0518,3.0501,2.9866,2.9282,2.8734,2.8702,2.8523,2.8179,2.8523,2.8083,2.6918,2.7243,2.7198,2.6867,2.6543,2.6365,2.6274,2.5937,2.5487,2.5075,2.5882,2.6015,2.5768,2.6091,2.6023,2.5719,2.5179,2.5005,2.4976,2.4563,2.4151,2.3795,2.3795,2.3795,2.3958,2.4769,2.5,2.5177,2.5888,2.6584,2.6923,2.6189,2.6799,2.7461,2.7021,2.7248,2.7436,2.6942,2.7313,2.7881,2.8345,2.8241,2.8274,2.8704,2.7926,2.7337,2.7519,2.6997,2.6551,2.6556,2.5706,2.5148,2.5153,2.4858,2.4659,2.479,2.5407,2.5894,2.617,2.6562,2.6315,2.5284,2.5589,2.5299,2.4268,2.4418,2.4049,2.3083,2.235,2.1735,2.1202,2.0894,2.0466,2.0047,1.971,1.9487,1.9355,1.8821,1.8308,1.7852,1.7626,1.7124,1.6522,1.6522,1.6522,1.6522,3.2165,3.2329,3.2563,3.3273,3.3458,3.3161,3.2133,3.2114,3.1895,3.1037,3.0916,3.0916,3.0916,3.0857,3.0799,3.0799,3.0877,3.0862,3.0743,3.0821,3.0785,3.0645,3.0635,3.053,3.0317,3.0241,2.9817,2.9033,2.9803,2.9383,2.7816,2.8567,2.8477,2.7687,2.6943,2.658,2.6455,2.5601,2.5226,2.5294,2.6034,2.592,2.5394,2.6133,2.631,2.6113,2.5946,2.6277,2.6656,2.5723,2.4766,2.4013,2.4013,2.4013,2.4176,2.4982,2.5213,2.5393,2.6099,2.6763,2.7225,2.7297,2.7781,2.8025,2.7338,2.7233,2.7091,2.6428,2.7363,2.8345,2.8412,2.8903,2.9317,2.9317,2.8224,2.7417,2.7417,2.6902,2.6422,2.5952,2.5501,2.5181,2.5216,2.457,2.4619,2.5741,2.5778,2.6054,2.6663,2.675,2.646,2.572,2.5763,2.5458,2.4713,2.4167,2.3601,2.2975,2.2886,2.2615,2.2184,2.2123,2.1522,2.0475,2.0421,1.9867,1.8891,1.8362,1.7919,1.7523,1.6941,1.6713,1.6713,1.6663,1.6675,1.6726,3.3964,3.4138,3.3988,3.348,3.3925,3.359,3.1427,3.2245,3.281,3.1934,3.1817,3.1817,3.1817,3.1213,3.0799,3.0799,3.1427,3.1812,3.1782,3.2405,3.2478,3.1785,3.1656,3.1263,3.054,3.0362,3.0189,2.9997,3.0125,2.9669,2.8643,2.8821,2.876,2.8527,2.836,2.824,2.8123,2.7304,2.6963,2.6982,2.7153,2.7479,2.7934,2.8104,2.8029,2.7689,2.6376,2.5922,2.5875,2.5481,2.5473,2.5679,2.5679,2.5679,2.5842,2.6633,2.6886,2.7025,2.777,2.8054,2.8246,2.8847,2.8586,2.8025,2.7338,2.7661,2.7861,2.7214,2.7334,2.7715,2.8312,2.8506,2.8605,2.8605,2.834,2.818,2.818,2.7476,2.7142,2.7604,2.6663,2.5957,2.5973,2.5089,2.484,2.5741,2.5778,2.585,2.5995,2.6489,2.6257,2.5125,2.5531,2.5241,2.4109,2.3963,2.3818,2.3673,2.2798,2.2324,2.2184,2.1766,2.1445,2.1152,2.0764,2.0386,2.0026,1.9481,1.9195,1.9052,1.8465,1.8267,1.8256,1.7717,1.7837,1.8401,3.4528,3.4707,3.4683,3.4602,3.4936,3.4623,3.2869,3.3395,3.3668,3.2835,3.2718,3.2562,3.2153,3.168,3.1427,3.1427,3.2226,3.2718,3.2718,3.3147,3.301,3.2133,3.2024,3.1598,3.0716,3.0524,3.0424,3.0392,3.0356,3.0098,2.9601,2.9577,2.953,2.9446,2.8992,2.8548,2.8066,2.7228,2.6887,2.6925,2.7323,2.7759,2.8161,2.8559,2.8628,2.8431,2.7544,2.7075,2.6823,2.6669,2.6439,2.6204,2.6204,2.6204,2.6367,2.7164,2.7417,2.7556,2.8301,2.8729,2.8973,2.8936,2.8854,2.8592,2.7924,2.8058,2.8134,2.7448,2.781,2.8307,2.8373,2.8936,2.9284,2.892,2.887,2.887,2.887,2.7866,2.7169,2.7264,2.6631,2.6186,2.6309,2.5558,2.5386,2.614,2.5929,2.5923,2.6242,2.6591,2.6474,2.5821,2.5778,2.5458,2.4805,2.4196,2.3891,2.3891,2.2962,2.2509,2.2509,2.2249,2.1955,2.1661,2.1397,2.1063,2.074,1.9844,1.9565,1.9537,1.8997,1.8765,1.8794,1.8725,1.8915,1.9309,3.478,3.492,3.5097,3.5603,3.5809,3.5561,3.455,3.4642,3.4525,3.3707,3.3609,3.3336,3.262,3.2406,3.2328,3.2328,3.3108,3.3609,3.3609,3.3746,3.3434,3.2582,3.2523,3.2109,3.1271,3.1144,3.0889,3.0528,3.051,3.0472,3.0402,3.0344,3.0286,3.0166,2.9379,2.862,2.7854,2.6986,2.6702,2.6873,2.7475,2.7797,2.7972,2.8654,2.8903,2.8885,2.8752,2.8422,2.8106,2.8196,2.7515,2.6638,2.6765,2.6729,2.6747,2.7417,2.7616,2.7737,2.8355,2.9053,2.9457,2.8864,2.9158,2.9455,2.8975,2.8589,2.8134,2.7504,2.8362,2.9069,2.8489,2.945,3.0096,2.9367,2.9334,2.9367,2.9251,2.813,2.7126,2.6687,2.6527,2.6465,2.658,2.6153,2.6086,2.6594,2.6217,2.6199,2.675,2.6779,2.6736,2.662,2.6184,2.585,2.5633,2.4689,2.4109,2.3876,2.3354,2.3004,2.2888,2.2888,2.2613,2.2149,2.2149,2.1844,2.1278,2.026,1.9922,1.9965,1.9403,1.9266,1.9432,1.9929,2.0108,2.0147,3.5801,3.5813,3.5625,3.4976,3.545,3.5366,3.3795,3.4798,3.5402,3.4544,3.4447,3.4389,3.4272,3.3629,3.3225,3.3225,3.396,3.4447,3.4447,3.5148,3.5168,3.4291,3.4252,3.3882,3.3064,3.3039,3.2227,3.0598,3.0518,3.0472,3.0402,3.0378,3.0323,3.0185,3.0013,2.9806,2.9526,2.8711,2.8752,2.9339,2.8787,2.8957,2.9602,2.9699,2.9737,2.9642,2.8941,2.8386,2.8081,2.8607,2.856,2.8413,2.9083,2.8848,2.8279,2.8406,2.8424,2.8442,2.85,2.9053,2.9727,3.0252,3.0373,3.0439,3.075,2.9499,2.8184,2.7824,2.8152,2.8489,2.8445,2.9036,2.9334,2.8638,2.9019,2.9201,2.8605,2.8246,2.802,2.7925,2.7896,2.7689,2.731,2.7186,2.7041,2.6784,2.6724,2.6678,2.6779,2.6779,2.6518,2.5937,2.6402,2.6112,2.493,2.5342,2.4979,2.3891,2.3804,2.347,2.2888,2.2888,2.2859,2.2772,2.2772,2.2453,2.1888,2.1715,2.1643,2.1614,2.0952,2.1053,2.1557,2.1643,2.1672,2.1643,3.5991,3.5999,3.5872,3.5488,3.5717,3.5681,3.4913,3.5417,3.5752,3.5382,3.5324,3.5148,3.4642,3.4272,3.4077,3.4077,3.4837,3.5324,3.5324,3.5694,3.5519,3.4642,3.4603,3.3999,3.2698,3.3147,3.2503,3.0659,3.1118,3.108,3.0574,3.0482,3.0383,3.024,3.0138,2.9787,2.9207,2.8847,2.8903,2.9188,2.8828,2.9169,2.9888,2.9888,2.9888,2.9851,2.9491,2.9152,2.8931,2.9079,2.8984,2.8864,2.9062,2.8902,2.8587,2.8587,2.8587,2.8587,2.8484,2.8999,2.9673,2.9891,3.0255,3.057,3.0756,3.0331,2.9779,2.9454,2.9671,2.9772,2.9353,2.9692,2.9798,2.9069,2.9549,2.993,2.9615,2.9138,2.8777,2.8697,2.869,2.8756,2.8965,2.8365,2.7952,2.7777,2.7157,2.6779,2.6779,2.6779,2.6649,2.6358,2.6634,2.6329,2.5371,2.5313,2.482,2.3891,2.3528,2.3163,2.2888,2.2888,2.2888,2.2888,2.2888,2.2743,2.2497,2.2149,2.1989,2.196,2.167,2.1743,2.2033,2.2396,2.2062,2.1439]}]]